     2              OBSERVATION DATA    GPS                 RINEX VERSION / TYPE
teqc 2000Jul20 Karen Wendt 20030613 20:52:34UTC             PGM / RUN BY / DATE
                                                            COMMENT
L2: 1 -> 1; 150 -> 5; 250 -> 9                              COMMENT
L2: 1 -> 1; 150 -> 5; 250 -> 9                              COMMENT
L2: 1 -> 1; 150 -> 5; 250 -> 9                              COMMENT
L2: 1 -> 1; 150 -> 5; 250 -> 9                              COMMENT
L2: 1 -> 1; 150 -> 5; 250 -> 9                              COMMENT
L2: 1 -> 1; 150 -> 5; 250 -> 9                              COMMENT
L2: 1 -> 1; 150 -> 5; 250 -> 9                              COMMENT
L2: 1 -> 1; 150 -> 5; 250 -> 9                              COMMENT
L2: 1 -> 1; 150 -> 5; 250 -> 9                              COMMENT
L2: 1 -> 1; 150 -> 5; 250 -> 9                              COMMENT
L2: 1 -> 1; 150 -> 5; 250 -> 9                              COMMENT
L2: 1 -> 1; 150 -> 5; 250 -> 9                              COMMENT
L2: 1 -> 1; 150 -> 5; 250 -> 9                              COMMENT
L2: 1 -> 1; 150 -> 5; 250 -> 9                              COMMENT
Original Marker Name: mile Mile_1959_USGS                   COMMENT
Campaign Name: USGS Death Valley 2003                       COMMENT
4-Character Station Name: MILE                              COMMENT
6-Character Antenna Code: DMRCHT                            COMMENT
Vertical Measurement Point: BCR                             COMMENT
Vertical Offset to Rinex Ref. Point: 0.0348                 COMMENT
Radial Measurement Point: ECF                               COMMENT
Radial Offset to Rinex Ref. Point: 0.1897                   COMMENT
Antenna Height from Field Measurement: 1.3580 m             COMMENT
Additional Antenna Identification Info.:                    COMMENT
Turborogue and Ashtech Choke Ring                           COMMENT
Original XYZ: -2278536.6185 -4576190.0896 3803866.3487      COMMENT
New XYZ position is based on association with SCEC monument COMMENT
E1G0J9T0+0011. Position of that monument is believed to be  COMMENT
valid to within 1 m horizontally; vertical accuracy         COMMENT
should be no worse than 3-times this value.                 COMMENT
                                                            COMMENT
Revised Rinex header created by UCSD GPS archive for        COMMENT
GSAC on 20-Apr-2005 (2005:110) 16:33:07 GMT                 COMMENT
For assistance contact dagnew@ucsd.edu                      COMMENT
or anderson@python.ucsd.edu                                 COMMENT
                                                            COMMENT
MILE 1959                                                   MARKER NAME
JMS US GEOLOGICAL SURVEY                                    OBSERVER / AGENCY
04600 ASHTECH Z-XII3 CD00                                   REC # / TYPE / VERS
CR620022601 DORNE-MARGOL. TYPE T                            ANT # / TYPE
 -2278511.0000 -4576128.0000  3803878.0000                  APPROX POSITION XYZ
        1.3099        0.0000        0.0000                  ANTENNA: DELTA H/E/N
     1     1     0                                          WAVELENGTH FACT L1/2
     5    C1    L1    L2    P1    P2                        # / TYPES OF OBSERV
    30                                                      INTERVAL
  2003     6     9    19    17    0.000000                  TIME OF FIRST OBS
  2003     6     9    23    59   30.000000                  TIME OF LAST OBS
                                                            END OF HEADER
 03  6  9 19 17  0.0000000  0  6G23G21G18G17G15G14
                    -27079.38149    -20850.24843
  21329670.423      116601.21849     84189.84247  21329669.837    21329675.889
  20757160.542       59922.66449     42361.41948  20757160.097
  20757166.116      157654.62649    114219.84543
  20445094.100      -54180.54649    -38973.91648  20445093.356    20445100.733
  22991076.448     -254801.54249   -180796.62346  22991076.099    22991085.622
 03  6  9 19 17 29.9990000  0  7G23G21G 3G18G17G15G14
                    -41450.51749     -2452.93743
  21038334.191      161037.54349    118815.53247  21038333.365    21038339.395
  22335023.744     -165695.43949   -110715.26646  22335023.235    22335031.641
  20461317.798       80677.70249     58534.17548  20461317.225
  20461323.223      219048.56649    162048.93045                  22098537.467
  20140542.151      -79192.03149    -58463.37948  20140541.393    20140548.779
  22671277.591     -359931.54449   -262715.94346  22671278.011    22671287.461
 03  6  9 19 18  0.0000000  0  7G23G21G 3G18G17G15G14
                  -1176880.96949   -887136.39643
  21133267.246     -915506.00149   -720049.58847  21133266.464    21133272.482
  22411826.753    -1337512.98149  -1023819.82646  22411826.206    22411834.669
  20551732.692    -1019608.80449   -798831.93548  20551732.122    20551738.134
  22196678.628     -840588.96549   -663642.71246  22196678.799    22196687.620
  20222258.555    -1225189.26349   -951448.23248  20222257.832    20222265.228
  22737730.538    -1586139.55949  -1218202.56146  22737730.807    22737740.207
 03  6  9 19 18 30.0000000  0  7G23G21G 3G18G17G15G14
                  -1189071.04549   -896571.78643
  21142168.016     -868731.90149   -683602.25847  21142167.332    21142173.368
  22402629.214    -1385845.52249  -1061481.51546  22402628.843    22402637.332
  20556103.568     -996639.26949   -780933.59848  20556103.116    20556109.140
  22208787.050     -776960.96449   -614062.50146  22208786.936    22208795.664
  20217942.601    -1247869.74949   -969121.33248  20217941.910    20217949.302
  22718134.560    -1689118.05849  -1298445.39046  22718134.553    22718143.947
 03  6  9 19 19  0.0000000  0  8G26G23G21G 3G18G17G15G14
                   -861002.80749   -700587.31144                  23786540.784
                  -1201006.45949   -863737.08843
  21151132.426     -821623.35249   -646894.31947  21151131.826    21151137.904
  22393527.148    -1433677.24149  -1098752.95746  22393526.814    22393535.343
  20560526.109     -973398.70049   -762824.06248  20560525.674    20560531.735
  22220949.033     -713050.07849   -564261.85246  22220948.758    22220957.478
  20213690.033    -1270217.12649   -986534.86448  20213689.364    20213696.750
  22698585.091    -1791851.33749  -1378497.14346  22698585.007    22698594.328
 03  6  9 19 19 30.0000000  0  9G26G 9G23G21G 3G18G17G15G14
  23806815.036     -754420.28749   -617536.04545  23806814.235    23806823.464
  23816568.755    -1302169.04249  -1001914.59045  23816569.272    23816577.476
                  -1212689.52049   -873299.79743
  21160160.368     -774181.23349   -609926.44947  21160159.806    21160165.921
  22384520.482    -1481007.73549  -1135633.84146  22384520.169    22384528.700
  20564999.709     -949889.63649   -744505.31248  20564999.317    20565005.385
  22233164.427     -648857.96449   -514242.08546  22233164.101    22233172.840
  20209500.814    -1292231.49749  -1003688.91348  20209500.184    20209507.572
  22679082.414    -1894338.47349  -1458357.09646  22679082.278    22679091.560
 03  6  9 19 20  0.0000000  0  9G26G 9G23G21G 3G18G17G15G14
  23827143.563     -647593.70149   -534294.58445  23827142.452    23827151.444
  23805630.387    -1359648.54349  -1046703.72245  23805630.715    23805639.500
                  -1224119.39249   -882689.82643
  21169252.096     -726403.83549   -572697.32847  21169251.562    21169257.731
  22375609.835    -1527833.73949  -1172121.61946  22375609.548    22375618.091
  20569524.558     -926111.31249   -725976.74648  20569524.195    20569530.279
  22245433.614     -584383.15749   -464002.01746  22245433.277    22245442.038
  20205375.525    -1313909.77549  -1020581.07248  20205374.910    20205382.356
  22659627.405    -1996574.92449  -1538021.72446  22659627.257    22659636.505
 03  6  9 19 20 30.0000000  0  8G26G23G21G 3G18G17G15G14
  23847517.467     -540525.07549   -450864.55945  23847517.127    23847525.919
                  -1235296.04749   -837016.67043
  21178407.803     -678290.17349   -535206.18647  21178407.324    21178413.486
  22366795.633    -1574152.84849  -1208214.41446  22366795.390    22366803.896
  20574100.552     -902064.14949   -707238.69948  20574100.217    20574106.323
  22257756.861     -519624.40549   -413540.70846  22257756.476    22257765.340
  20201314.686    -1335249.48249  -1037209.41248  20201314.111    20201321.591
  22640220.669    -2098557.45849  -1617488.48846  22640220.512    22640229.821
 03  6  9 19 21  0.0000000  0  8G26G23G21G 3G18G17G15G14
  23867937.650     -433215.79049   -367246.98845  23867937.490    23867946.260
  21022994.357    -1246218.49349   -845527.21747  21022993.964    21023001.580
  21187627.885     -629838.20649   -497451.42747  21187627.451    21187633.640
  22358078.481    -1619961.57749  -1243909.51046  22358078.245    22358086.782
  20578727.834     -877747.41849   -688290.59948  20578727.533    20578733.670
  22270134.434     -454579.89149   -362856.72546  22270134.067    22270143.007
  20197318.917    -1356247.28649  -1053571.33448  20197318.387    20197325.853
  22620863.156    -2200281.41249  -1696753.76746  22620862.993    22620872.357
 03  6  9 19 21 30.0000000  0  9G26G 9G23G21G 3G18G17G15G14
  23888402.959     -325669.79849   -283444.99345  23888402.883    23888411.616
                  -1075263.13449   -829292.46543
  21020963.900    -1256888.74549   -853841.68747  21020963.570    21020971.146
  21196912.303     -581048.40849   -459433.42747  21196911.893    21196918.107
  22349458.565    -1665259.41649  -1279206.51146  22349458.372    22349466.861
  20583406.063     -853163.09649   -669133.99048  20583405.805    20583411.941
  22282566.240     -389250.62849   -311950.86846  22282565.871    22282574.842
  20193388.272    -1376902.91749  -1069666.62548  20193387.768    20193395.229
  22601555.140    -2301745.51649  -1775816.55646  22601554.939    22601564.285
 03  6  9 19 22  0.0000000  0  9G26G 9G23G21G 3G18G17G15G14
  23908912.828     -217890.18149   -199460.95245  23908912.823    23908921.396
                  -1131251.60049   -872919.84443
  21018981.207    -1267307.77649   -861960.40147  21018980.902    21018988.471
  21206260.898     -531921.26249   -421152.55347  21206260.501    21206266.711
  22340936.153    -1710044.86249  -1314104.24846  22340936.012    22340944.486
  20588135.005     -828312.45449   -649769.85248  20588134.761    20588140.893
  22295052.178     -323636.91149   -260823.36746  22295051.797    22295060.795
  20189523.008    -1397215.17849  -1085494.35848  20189522.514    20189529.996
  22582297.091    -2402947.07349  -1854674.78446  22582296.901    22582306.143
 03  6  9 19 22 30.0000000  0  9G26G 9G23G21G 3G18G17G15G14
  23929466.580     -109880.29649   -115297.45745  23929466.595    23929475.001
  23752003.167    -1186860.32349   -916251.23445  23752002.761    23752012.525
  21017046.101    -1277476.96349   -869884.43247  21017045.782    21017053.387
  21215673.617     -482457.16149   -382609.12147  21215673.245    21215679.504
  22332511.442    -1754316.72349  -1348601.79246  22332511.324    22332519.761
  20592914.263     -803197.34449   -630199.63948  20592914.022    20592920.186
  22307592.169     -257738.99249   -209474.39946  22307591.805    22307600.797
  20185723.251    -1417182.86349  -1101053.58848  20185722.795    20185730.302
  22563089.305    -2503884.24949  -1933326.98746  22563089.129    22563098.366
 03  6  9 19 23  0.0000000  0  9G26G 9G23G21G 3G18G17G15G14
  23950063.606       -1642.82949    -30956.62845  23950063.656    23950072.024
  23741493.562    -1242085.79649   -959283.99345  23741493.536    23741503.523
  21015158.388    -1287396.84749   -877614.20647  21015158.059    21015165.704
  21225150.527     -432655.61349   -343802.74347  21225150.194    21225156.498
  22324184.780    -1798073.23949  -1382697.77146  22324184.729    22324193.154
  20597743.791     -777817.96149   -610423.50148  20597743.589    20597749.779
  22320186.150     -191557.10549   -157904.16346  22320185.817    22320194.809
  20181989.451    -1436804.21949  -1116342.95348  20181989.010    20181996.526
  22543932.384    -2604553.93849  -2011770.76446  22543932.221    22543941.494
 03  6  9 19 23 30.0000000  0  9G26G 9G23G21G 3G18G17G15G14
  23970703.544      106820.20349     53559.96145  23970703.637    23970711.817
  23731058.077    -1296924.15749  -1002015.09945  23731058.130    23731067.991
  21013318.110    -1297067.30949   -885149.61947  21013317.813    21013325.504
  21234691.919     -382515.24049   -304732.33847  21234691.599    21234697.948
  22315956.729    -1841312.00049  -1416390.30546  22315956.635    22315965.120
  20602623.517     -752174.69549   -590441.73848  20602623.341    20602629.563
  22332834.507     -125089.79149   -106111.51646  22332834.190    22332843.230
  20178322.005    -1456076.89949  -1131360.62248  20178321.579    20178329.115
  22524827.006    -2704952.80749  -2090003.51546  22524826.857    22524836.128
 03  6  9 19 24  0.0000000  0  9G26G 9G23G21G 3G18G17G15G14
  23991385.824      215505.87349    138250.03345  23991385.869    23991394.247
  23720697.172    -1351372.26749  -1044442.12745  23720697.223    23720706.785
  21011525.162    -1306489.25449   -892491.38547  21011524.894    21011532.575
  21244297.806     -332035.93949   -265397.84947  21244297.519    21244303.936
  22307827.426    -1884031.71549  -1449678.38646  22307827.362    22307835.889
  20607553.330     -726268.48449   -570255.08348  20607553.168    20607559.431
  22345537.097      -58337.54749    -54096.84146  22345536.737    22345545.845
  20174721.114    -1474999.49549  -1146105.50148  20174720.711    20174728.284
  22505773.666    -2805078.21149  -2168023.16746  22505773.527    22505782.827
 03  6  9 19 24 30.0000000  0  9G26G 9G23G21G 3G18G17G15G14
  24012109.714      324410.72049    223110.88945  24012109.822    24012118.228
  23710410.725    -1405427.64449  -1086563.13445  23710410.744    23710420.405
  21009779.241    -1315664.05949   -899640.57547  21009778.983    21009786.674
  21253968.134     -281218.18349   -225799.62147  21253967.884    21253974.303
  22299797.131    -1926231.15149  -1482561.06046  22299797.092    22299805.706
  20612532.789     -700101.12049   -549864.93248  20612532.641    20612538.948
  22358293.809        8699.29749     -1860.39946  22358293.456    22358302.602
  20171187.108    -1493571.00949  -1160576.80748  20171186.708    20171194.293
  22486772.773    -2904928.16949  -2245828.19346  22486772.632    22486781.902
 03  6  9 19 25  0.0000000  0  9G26G23G21G 3G 9G18G17G15G14
  24032874.338      433529.53549    308138.48645  24032874.477    24032882.935
  21008079.766    -1324594.89349   -906599.65147  21008079.509    21008087.214
  21263702.418     -230064.25849   -185939.44247  21263702.185    21263708.616
  22291865.726    -1967911.11649  -1515038.94646  22291865.683    22291874.321
                   -984859.91149   -754488.01643
  20617561.349     -673675.85949   -529273.82148  20617561.219    20617567.512
  22371104.311       76018.53449     50596.08446  22371103.987    22371113.106
  20167719.736    -1511792.11749  -1174775.06948  20167719.348    20167726.964
                  -1005763.31849   -759977.30045                  22467833.227
 03  6  9 19 25 30.0000000  0  9G26G23G21G 3G 9G18G17G15G14
  24053679.393      542861.39349    393332.07745  24053679.634    24053688.326
  21006426.910    -1333280.51149   -913367.65347  21006426.673    21006434.396
  21273501.152     -178571.81349   -145815.48247  21273500.932    21273507.360
  22284033.782    -2009068.25149  -1547109.43446  22284033.735    22284042.403
                  -1038123.86249   -795992.09143
  20622639.218     -646991.61649   -508480.90948  20622639.094    20622645.386
  22383968.908      143621.93949    103274.00246  22383968.541    22383977.731
  20164319.677    -1529659.60049  -1188697.77948  20164319.312    20164326.910
  22448928.530    -1105057.07549   -837348.92846  22448928.790    22448937.989
 03  6  9 19 26  0.0000000  0 10G26G31G23G21G 3G 9G18G17G15G14
  24074524.280      652402.68749    478688.84045  24074524.603    24074533.259
  23926086.502    -1172184.99649   -896674.25945  23926087.145    23926097.085
  21004820.437    -1341722.68149   -919945.95847  21004820.216    21004827.946
  21283364.148     -126741.69349   -105428.40947  21283363.904    21283370.352
  22276301.448    -2049701.77049  -1578771.90946  22276301.438    22276310.085
                  -1090987.11649   -837184.24545                  23680012.286
  20627766.006     -620050.19749   -487487.60448  20627765.905    20627772.193
  22396887.385      211508.69949    156172.71546  22396887.067    22396896.243
  20160987.071    -1547172.75449  -1202344.39248  20160986.699    20160994.289
  22430087.773    -1204068.72649   -914500.74346  22430087.473    22430096.635
 03  6  9 19 26 30.0000000  0 10G26G31G23G21G 3G 9G18G17G15G14
  24095408.408      762150.00949    564206.15145  24095408.836    24095417.653
  23910665.855    -1253231.93649   -959827.65545  23910664.502    23910674.181
  21003260.025    -1349922.67549   -926335.55147  21003259.786    21003267.536
  21293291.385      -74573.84549    -64778.16047  21293291.161    21293297.613
  22268668.984    -2089810.94949  -1610025.80746  22268668.971    22268677.584
  23670020.754    -1143447.16249   -878062.15345  23670020.586    23670030.159
  20632941.429     -592853.27049   -466295.19948  20632941.322    20632947.610
  22409859.688      279678.21949    209291.74346  22409859.377    22409868.542
  20157722.027    -1564330.55549  -1215714.10648  20157721.670    20157729.271
  22411300.059    -1302796.16849   -991431.08646  22411300.230    22411309.414
 03  6  9 19 27  0.0000000  0 10G26G31G23G21G 3G 9G18G17G15G14
  24116331.124      872099.45849    649880.96845  24116331.560    24116340.507
  23895314.163    -1333901.99549  -1022687.37145  23895313.329    23895323.353
  21001745.308    -1357882.36349   -932537.89447  21001745.094    21001752.853
  21303282.626      -22069.69049    -23865.85947  21303282.405    21303288.866
  22261136.362    -2129395.37949  -1640870.80946  22261136.346    22261144.933
  23660114.889    -1195502.14949   -918624.42145  23660115.093    23660124.268
  20638165.109     -565402.78949   -444905.21948  20638164.996    20638171.245
  22422885.613      348129.57749    262630.38546  22422885.369    22422894.566
  20154524.680    -1581132.64949  -1228806.64948  20154524.343    20154531.967
  22392567.158    -1401237.98849  -1068138.85846  22392567.318    22392576.523
 03  6  9 19 27 30.0000000  0 10G26G31G23G21G 3G 9G18G17G15G14
  24137292.070      982249.30149    735711.94845  24137292.401    24137301.459
  23880035.239    -1414191.64749  -1085250.67045  23880034.766    23880044.831
  21000276.403    -1365601.40249   -938552.71847  21000276.191    21000283.980
  21313338.133       30772.12349     17309.55147  21313337.923    21313344.395
  22253704.071    -2168452.49849  -1671304.90946  22253704.031    22253712.607
  23650286.960    -1247147.97449   -958867.85445  23650286.947    23650296.404
  20643437.110     -537698.55349   -423317.50348  20643436.996    20643443.216
  22435965.382      416863.69049    316189.35846  22435965.125    22435974.388
  20151395.548    -1597576.39349  -1241619.95348  20151395.219    20151402.834
  22373889.503    -1499390.46649  -1144621.18346  22373889.529    22373898.655
 03  6  9 19 28  0.0000000  0 10G26G31G23G21G 3G 9G18G17G15G14
  24158290.554     1092596.79049    821696.94145  24158290.923    24158300.023
  23864829.541    -1494098.12649  -1147515.40045  23864829.092    23864839.128
  20998853.185    -1373080.66449   -944380.70247  20998852.957    20998860.709
  21323457.951       83951.74149     58748.18447  21323457.737    21323464.123
  22246372.400    -2206980.77649  -1701326.94046  22246372.367    22246380.911
  23640537.591    -1298381.45149   -998789.98445  23640537.547    23640547.022
  20648757.201     -509741.48449   -401532.77948  20648757.063    20648763.267
  22449099.061      485880.99749    369969.01446  22449098.762    22449108.017
  20148334.975    -1613660.14049  -1254152.74148  20148334.628    20148342.208
  22355267.322    -1597250.86149  -1220875.90446  22355267.251    22355276.360
 03  6  9 19 28 30.0000000  0 10G26G31G23G21G 3G 9G18G17G15G14
  24179326.193     1203139.66549    907834.17145  24179326.560    24179335.821
  23849697.261    -1573618.23749  -1209479.07445  23849696.968    23849706.880
  20997475.593    -1380320.30949   -950021.97347  20997475.340    20997482.996
  21333642.260      137470.21549    100450.85647  21333642.017    21333648.372
  22239141.736    -2244978.31749  -1730935.40346  22239141.703    22239150.190
  23630867.348    -1349198.95049  -1038387.98345  23630867.361    23630876.789
  20654125.285     -481532.13449   -379551.47448  20654125.167    20654131.344
  22462286.549      555181.23849    423969.12346  22462286.233    22462295.536
  20145343.261    -1629381.75449  -1266403.34848  20145342.899    20145350.448
  22336701.284    -1694816.05149  -1296900.61046  22336701.184    22336710.207
 03  6  9 19 29  0.0000000  0 10G26G31G23G21G 3G 9G18G17G15G14
  24200398.418     1313874.81549    994121.23045  24200398.832    24200408.053
  23834639.098    -1652749.66049  -1271139.86945  23834638.893    23834648.702
  20996143.405    -1387321.27549   -955477.26447  20996143.133    20996150.759
  21343890.956      191327.21949    142417.31847  21343890.702    21343897.052
  22232012.273    -2282443.85649  -1760129.32546  22232012.228    22232020.691
  23621276.843    -1399597.79649  -1077659.75845  23621276.870    23621286.241
  20659541.205     -453071.62049   -357374.46048  20659541.067    20659547.205
  22475527.869      624764.39849    478189.69546  22475527.536    22475536.867
  20142420.731    -1644740.02249  -1278370.83348  20142420.352    20142427.869
  22318191.853    -1792083.62549  -1372693.39846  22318191.687    22318200.693
 03  6  9 19 29 30.0000000  0 10G26G31G23G21G 3G 9G18G17G15G14
  24221506.740     1424798.94449   1080555.54745  24221507.170    24221516.346
  23819655.274    -1731490.42049  -1332496.25945  23819655.116    23819664.891
  20994856.283    -1394085.12749   -960747.78847  20994856.023    20994863.642
  21354203.962      245522.14049    184647.09647  21354203.682    21354209.987
  22224984.217    -2319376.85149  -1788908.27546  22224984.154    22224992.611
  23611766.358    -1449575.88649  -1116603.66345  23611766.354    23611775.746
  20665004.606     -424361.61849   -335003.03548  20665004.445    20665010.556
  22488822.810      694629.54049    532629.98346  22488822.512    22488831.853
  20139567.469    -1659734.06149  -1290054.49948  20139567.078    20139574.597
  22299739.362    -1889051.73449  -1448252.84646  22299739.182    22299748.139
 03  6  9 19 30  0.0000000  0 10G26G31G23G21G 3G 9G18G17G15G14
  24242650.440     1535909.16249   1167134.83645  24242650.662    24242659.830
  23804746.207    -1809837.86249  -1393546.15645  23804746.107    23804755.935
  20993614.130    -1400612.62049   -965834.14147  20993613.883    20993621.490
  21364581.316      300055.34449    227140.45747  21364581.058    21364587.392
  22218057.797    -2355775.54349  -1817270.89247  22218057.699    22218066.178
  23602336.451    -1499130.11749  -1155217.28345  23602336.453    23602345.868
  20670515.344     -395402.71049   -312437.66748  20670515.180    20670521.268
  22502171.618      764777.28849    587290.46946  22502171.291    22502180.619
  20136783.814    -1674362.32949  -1301453.15548  20136783.445    20136790.978
  22281344.345    -1985717.76349  -1523576.90446  22281344.176    22281353.099
 03  6  9 19 30 30.0000000  0 10G26G31G23G21G 3G 9G18G17G15G14
  24263828.959     1647202.39149   1253856.75845  24263829.220    24263838.288
  23789912.360    -1887790.05149  -1454288.08345  23789912.256    23789922.172
  20992416.733    -1406905.09549   -970737.36447  20992416.463    20992424.069
  21375022.931      354926.17749    269896.91647  21375022.680    21375028.991
  22211233.113    -2391639.39949  -1845216.75347  22211233.074    22211241.548
  23592987.699    -1548258.13049  -1193498.80745  23592987.664    23592997.135
  20676073.149     -366196.42649   -289679.53148  20676072.963    20676079.057
  22515574.040      835207.04249    642170.72846  22515573.693    22515583.025
  20134069.925    -1688624.12549  -1312566.24248  20134069.544    20134077.073
  22263007.226    -2082079.67649  -1598663.99446  22263007.051    22263015.931
 03  6  9 19 31  0.0000000  0 10G26G31G23G21G 3G 9G18G17G15G14
  24285041.610     1758675.48849   1340718.82145  24285041.705    24285050.863
  23775154.094    -1965344.59349  -1514720.15745  23775153.973    23775164.040
  20991263.859    -1412963.40049   -975458.11747  20991263.601    20991271.232
  21385528.751      410134.60049    312916.42647  21385528.497    21385534.863
  22204510.393    -2426967.31849  -1872745.00147  22204510.368    22204518.878
  23583720.581    -1596957.02549  -1231445.95345  23583720.540    23583730.016
  20681677.712     -336744.14449   -266729.71248  20681677.553    20681683.657
  22529030.031      905918.53749    697270.51046  22529029.687    22529039.060
  20131426.020    -1702517.99449  -1323392.63548  20131425.644    20131433.182
  22244728.407    -2178135.22549  -1673512.35846  22244728.215    22244737.064
 03  6  9 19 31 30.0000000  0 10G26G31G23G21G 3G 9G18G17G15G14
  24306287.962     1870325.78949   1427718.99245  24306288.307    24306297.430
  23760472.261    -2042498.71549  -1574840.19545  23760472.097    23760482.093
  20990155.380    -1418788.41849   -979997.08647  20990155.158    20990162.816
  21396098.892      465680.88349    356199.20347  21396098.649    21396105.009
  22197889.922    -2461757.84149  -1899854.49847  22197889.931    22197898.465
  23574535.638    -1645223.93149  -1269056.45545  23574535.598    23574545.173
  20687328.932     -307046.68349   -243588.84548  20687328.780    20687334.901
  22542539.521      976911.36849    752589.52146  22542539.195    22542548.612
  20128852.403    -1716042.37349  -1333931.11448  20128852.036    20128859.573
  22226508.358    -2273881.56949  -1748119.78946  22226508.229    22226517.056
 03  6  9 19 32  0.0000000  0 10G26G31G23G21G 3G 9G18G17G15G14
  24327567.450     1982149.70249   1514854.44445  24327567.676    24327576.805
  23745866.850    -2119250.70149  -1634646.88645  23745866.639    23745876.660
  20989091.043    -1424381.67749   -984355.46247  20989090.815    20989098.457
  21406733.256      521564.42849    399744.79447  21406733.007    21406739.374
  22191371.895    -2496010.43949  -1926544.82447  22191371.913    22191380.390
  23565433.302    -1693056.63449  -1306328.63145  23565433.280    23565442.919
  20693026.512     -277105.81549   -220258.30048  20693026.356    20693032.471
  22556102.383     1048184.54849    808126.99246  22556102.105    22556111.523
  20126349.300    -1729196.32549  -1344180.94748  20126348.939    20126356.483
  22208347.582    -2369317.02849  -1822484.96046  22208347.471    22208356.200
 03  6  9 19 32 30.0000000  0 10G26G31G23G21G 3G 9G18G17G15G14
  24348879.522     2094144.73949   1602123.24245  24348879.711    24348888.676
  23731338.498    -2195597.81649  -1694138.09045  23731338.376    23731348.238
  20988070.737    -1429743.72849   -988533.67947  20988070.471    20988078.054
  21417431.804      577785.36049    443553.27347  21417431.560    21417437.890
  22184956.479    -2529723.84949  -1952815.00847  22184956.504    22184964.941
  23556414.170    -1740452.03149  -1343260.04445  23556414.134    23556423.678
  20698770.284     -246922.14049   -196738.56248  20698770.139    20698776.253
  22569718.774     1119738.50649    863883.24046  22569718.509    22569727.862
  20123917.026    -1741978.16249  -1354140.82448  20123916.652    20123924.184
  22190246.415    -2464438.94449  -1896605.81846  22190246.312    22190254.936
 03  6  9 19 33  0.0000000  0 10G26G31G23G21G 3G 9G18G17G15G14
  24370223.551     2206307.47149   1689522.73245  24370223.755    24370232.398
  23716887.607    -2271538.10549  -1753312.28745  23716887.371    23716897.245
  20987094.171    -1434875.93849   -992532.79347  20987093.897    20987101.423
  21428194.488      634343.15049    487624.24947  21428194.230    21428200.517
  22178643.869    -2562897.36949  -1978664.49847  22178643.864    22178652.163
  23547478.735    -1787407.78649  -1379848.89545  23547478.720    23547488.025
  20704560.027     -216496.95349   -173030.62948  20704559.871    20704565.963
  22583388.453     1191572.81449    919857.94846  22583388.156    22583397.543
  20121555.643    -1754387.41849  -1363810.37048  20121555.267    20121562.784
  22172205.351    -2559245.24949  -1970480.74046  22172205.232    22172213.772
 03  6  9 19 33 30.0000000  0 10G26G31G23G21G 3G 9G18G17G15G14
  24391599.046     2318635.77149   1777051.21445  24391599.207    24391607.913
  23702514.662    -2347068.60749  -1812167.18245  23702514.371    23702524.158
  20986161.258    -1439778.59749   -996353.04447  20986160.973    20986168.471
  21439021.297      691238.23949    531958.04547  21439021.005    21439027.284
  22172434.322    -2595529.28449  -2004091.96547  22172434.273    22172442.498
  23538627.624    -1833920.44849  -1416092.46445  23538627.597    23538636.877
  20710395.674     -185830.91349   -149135.02148  20710395.501    20710401.557
  22597111.472     1263687.49649    976051.10746  22597111.156    22597120.555
  20119265.607    -1766421.93049  -1373187.91748  20119265.222    20119272.711
  22154224.838    -2653733.17749  -2044107.58846  22154224.709    22154233.202
 03  6  9 19 34  0.0000000  0 10G26G31G23G21G 3G 9G18G17G15G14
  24413005.394     2431126.12949   1864705.98445  24413005.558    24413014.176
  23688220.094    -2422187.33149  -1870701.20645  23688219.777    23688229.452
  20985271.738    -1444453.10849   -999995.51347  20985271.439    20985278.931
  21449912.194      748470.19449    576554.33447  21449911.905    21449918.232
  22166327.871    -2627618.80549  -2029096.78747  22166327.850    22166336.061
  23529861.220    -1879988.22149  -1451989.38145  23529861.186    23529870.409
  20716276.796     -154925.65049   -125053.00348  20716276.630    20716282.643
  22610887.638     1336081.72449   1032462.11746  22610887.368    22610896.754
  20117047.017    -1778080.77549  -1382272.73248  20117046.628    20117054.100
  22136305.286    -2747900.68549  -2117484.75046  22136305.135    22136313.622
 03  6  9 19 34 30.0000000  0  9G31G23G21G 3G 9G18G17G15G14
  23674004.423    -2496891.69849  -1928912.34945  23674004.028    23674013.641
  20984425.527    -1448900.08349  -1003460.68047  20984425.215    20984432.689
  21460867.222      806039.21549    621413.27147  21460866.911    21460873.300
  22160324.910    -2659164.79049  -2053678.07347  22160324.866    22160333.040
  23521180.014    -1925607.94449  -1487537.16245  23521180.076    23521189.028
  20722203.290     -123781.80549   -100785.07848  20722203.117    20722209.121
  22624717.084     1408755.51849   1089090.96946  22624716.825    22624726.205
  20114900.246    -1789362.42249  -1391063.62548  20114899.845    20114907.273
  22118447.204    -2841745.24049  -2190610.26146  22118447.038    22118455.521
 03  6  9 19 35  0.0000000  0  9G31G23G21G 3G 9G18G17G15G14
  23659867.954    -2571179.29649  -1986798.73845  23659867.515    23659877.081
  20983622.450    -1453120.39749  -1006749.23347  20983622.141    20983629.602
  21471886.372      863944.99749    666534.61547  21471886.062    21471892.482
  22154425.536    -2690166.42649  -2077835.19447  22154425.500    22154433.621
  23512584.756    -1970776.85149  -1522733.65545  23512584.796    23512593.562
  20728175.018      -92400.32449    -76331.98348  20728174.853    20728180.848
  22638599.784     1481708.78749   1145937.59046  22638599.483    22638608.896
  20112825.533    -1800265.35149  -1399559.41348  20112825.121    20112832.529
  22100651.027    -2935264.35249  -2263482.18747  22100650.838    22100659.313
 03  6  9 19 35 30.0000000  0  9G31G23G21G 3G 9G18G17G15G14
  23645811.232    -2645047.88549  -2044358.62745  23645810.826    23645820.309
  20982862.301    -1457115.18049  -1009862.04747  20982861.977    20982869.432
  21482969.591      922187.48549    711918.32847  21482969.270    21482975.730
  22148629.951    -2720622.66749  -2101567.33147  22148629.873    22148638.066
  23504075.688    -2015492.35449  -1557576.83845  23504075.667    23504084.463
  20734191.669      -60782.76349    -51694.93148  20734191.498    20734197.481
  22652535.566     1554940.99949   1203001.56446  22652535.266    22652544.571
  20110823.088    -1810788.50449  -1407759.27248  20110822.667    20110830.049
  22082917.217    -3028455.75449  -2336098.75347  22082917.015    22082925.514
 03  6  9 19 36  0.0000000  0  9G31G23G21G 3G 9G18G17G15G14
  23631834.654    -2718495.31049  -2101590.32945  23631834.241    23631843.725
  20982144.832    -1460885.47149  -1012799.93247  20982144.534    20982151.964
  21494116.824      980766.27449    757564.09047  21494116.512    21494122.956
  22142938.255    -2750532.67549  -2124873.83447  22142938.173    22142946.433
  23495653.307    -2059752.11149  -1592064.91445  23495653.288    23495662.174
  20740253.098      -28929.96149    -26874.57848  20740252.912    20740258.893
  22666524.366     1628451.91749   1260282.70846  22666523.992    22666533.306
  20108893.127    -1820930.68549  -1415662.27248  20108892.693    20108900.056
  22065246.185    -3121317.25949  -2408458.26746  22065245.968    22065254.435
 03  6  9 19 36 30.0000000  0  9G31G23G21G 3G 9G18G17G15G14
  23617938.597    -2791519.40249  -2158492.15445  23617938.212    23617947.655
  20981469.852    -1464432.53649  -1015563.87147  20981469.551    20981476.973
  21505328.016     1039681.15849    803471.75147  21505327.661    21505334.145
  22137350.617    -2779895.80749  -2147754.19047  22137350.531    22137358.879
  23487318.176    -2103553.64749  -1626195.92645  23487318.099    23487327.052
  20746359.081        3156.99349     -1871.75848  20746358.875    20746364.833
  22680566.017     1702240.93449   1317780.55946  22680565.651    22680574.923
  20107035.868    -1830690.80049  -1423267.55748  20107035.429    20107042.770
  22047638.231    -3213847.11149  -2480559.34246  22047638.028    22047646.468
 03  6  9 19 37  0.0000000  0  9G31G23G21G 3G 9G18G17G15G14
  23604123.663    -2864117.31649  -2215061.91145  23604123.186    23604132.580
  20980837.286    -1467756.71949  -1018154.13747  20980836.979    20980844.420
  21516603.258     1098932.72949    849641.76247  21516602.926    21516609.387
  22131867.387    -2808710.50149  -2170207.20047  22131867.287    22131875.629
  23479070.813    -2146893.80849  -1659967.41345  23479070.748    23479079.683
  20752509.406       35477.11549     23312.74748  20752509.177    20752515.121
  22694660.591     1776308.06249   1375495.10746  22694660.233    22694669.540
  20105251.616    -1840067.06449  -1430573.73748  20105251.164    20105258.533
  22030094.013    -3306041.98649  -2552399.40246  22030093.783    22030102.209
 03  6  9 19 37 30.0000000  0  9G31G23G21G 3G 9G18G17G15G14
  23590390.126    -2936287.32549  -2271298.22945  23590389.723    23590399.003
  20980246.905    -1470859.32549  -1020571.74747  20980246.588    20980254.041
  21527942.437     1158520.11549    896073.44947  21527942.066    21527948.536
  22126488.567    -2836976.48049  -2192232.63647  22126488.471    22126496.807
  23470911.551    -2189770.57349  -1693377.81545  23470911.426    23470920.472
  20758703.854       68029.01849     48677.86248  20758703.648    20758709.566
  22708807.896     1850652.41849   1433425.68346  22708807.539    22708816.906
  20103540.557    -1849058.76949  -1437580.26448  20103540.099    20103547.472
  22012613.945    -3397900.11949  -2623977.07146  22012613.705    22012622.095
 03  6  9 19 38  0.0000000  0  9G31G23G21G 3G 9G18G17G15G14
  23576738.433    -3008027.09649  -2327199.29645  23576737.984    23576747.331
  20979698.514    -1473741.19549  -1022817.35147  20979698.187    20979705.650
  21539345.466     1218443.09449    942766.63247  21539345.131    21539351.515
  22121214.363    -2864692.72049  -2213829.70547  22121214.262    22121222.556
  23462840.978    -2232181.19749  -1726424.99445  23462840.913    23462849.982
  20764942.212      100811.72749     74222.82848  20764942.000    20764947.912
  22723007.977     1925273.78749   1491572.12046  22723007.590    22723017.032
  20101902.875    -1857664.68149  -1444286.17348  20101902.433    20101909.823
  21995198.375    -3489419.33249  -2695290.63747  21995198.122    21995206.520
 03  6  9 19 38 30.0000000  0  9G31G23G21G 3G 9G18G17G15G14
  23563169.037    -3079334.10849  -2382763.14845  23563168.687    23563177.953
  20979191.981    -1476402.96149  -1024891.45047  20979191.658    20979199.131
  21550812.309     1278701.37749    989721.09647  21550811.943    21550818.265
  22116044.918    -2891858.33449  -2234997.71647  22116044.831    22116053.106
  23454859.639    -2274122.85849  -1759106.73145  23454859.619    23454868.719
  20771224.407      133824.63949     99947.16848  20771224.181    20771230.091
  22737260.793     2000172.38249   1549934.58046  22737260.412    22737269.867
  20100338.924    -1865883.38949  -1450690.37048  20100338.465    20100345.877
  21977847.778    -3580597.27449  -2766338.29247  21977847.503    21977855.833
 03  6  9 19 39  0.0000000  0  9G31G23G21G 3G 9G18G17G15G14
  23549682.468    -3150206.39749  -2437988.24845  23549682.084    23549691.401
  20978727.082    -1478846.12349  -1026795.20347  20978726.760    20978734.208
  21562342.889     1339295.08749   1036936.93347  21562342.531    21562348.855
  22110980.412    -2918472.62249  -2255736.12147  22110980.317    22110988.549
  23446968.016    -2315593.70449  -1791421.62345  23446967.952    23446976.944
  20777550.055      167066.10449    125849.60448  20777549.832    20777555.755
  22751566.135     2075346.97749   1608512.10246  22751565.758    22751575.157
  20098848.863    -1873713.65249  -1456791.87748  20098848.427    20098855.792
  21960562.489    -3671431.86449  -2837118.39347  21960562.219    21960570.519
 03  6  9 19 39 30.0000000  0  9G31G23G21G 3G 9G18G17G15G14
  23536278.961    -3220641.78649  -2492872.91145  23536278.593    23536288.049
  20978303.607    -1481071.63249  -1028529.36347  20978303.263    20978310.702
  21573937.237     1400223.71149   1084413.73547  21573936.904    21573943.268
  22106020.918    -2944534.85249  -2276044.35647  22106020.820    22106029.042
  23439166.424    -2356591.11349  -1823367.60545  23439166.383    23439175.232
  20783919.045      200535.25949    151929.45948  20783918.832    20783924.781
  22765924.025     2150797.49349   1667304.61246  22765923.579    22765932.987
  20097433.015    -1881154.17149  -1462589.68848  20097432.567    20097439.940
  21943342.896    -3761920.91049  -2907629.24447  21943342.670    21943350.951
 03  6  9 19 40  0.0000000  0  9G31G23G21G 3G 9G18G17G15G14
  23522959.086    -3290637.58649  -2547415.05245  23522958.805    23522968.304
  20977921.475    -1483079.81749  -1030094.17847  20977921.117    20977928.557
  21585595.270     1461486.70449   1132151.08747  21585594.914    21585601.254
  22101166.703    -2970043.97349  -2295921.59447  22101166.630    22101174.834
  23431455.582    -2397111.85749  -1854942.16645  23431455.481    23431464.389
  20790331.185      234231.30449    178186.11248  20790330.973    20790336.926
  22780334.348     2226524.12849   1726312.27546  22780333.892    22780343.326
  20096091.611    -1888203.48049  -1468082.65948  20096091.155    20096098.506
  21926189.724    -3852061.59849  -2977868.65347  21926189.465    21926197.634
 03  6  9 19 40 30.0000000  0  9G31G23G21G 3G 9G18G17G15G14
  23509723.204    -3360192.20349  -2601613.40445  23509722.978    23509732.406
  20977580.384    -1484872.18749  -1031490.82347  20977580.033    20977587.468
  21597316.913     1523084.31349   1180149.18447  21597316.569    21597322.928
  22096417.813    -2994999.83949  -2315367.72447  22096417.728    22096425.894
  23423835.836    -2437154.15449  -1886143.90945  23423835.706    23423844.464
  20796786.287      268152.85649    204618.48348  20796786.075    20796792.019
  22794797.096     2302525.42349   1785533.98346  22794796.641    22794806.039
  20094824.718    -1894861.12049  -1473270.43048  20094824.263    20094831.612
  21909103.070    -3941852.48049  -3047835.48747  21909102.814    21909110.882
 03  6  9 19 41  0.0000000  0  9G31G23G21G 3G 9G18G17G15G14
  23496571.828    -3429303.52149  -2655466.33445  23496571.602    23496580.853
  20977280.147    -1486450.05349  -1032720.32147  20977279.791    20977287.225
  21609102.119     1585015.71149   1228407.36547  21609101.760    21609108.179
  22091774.345    -3019401.69049  -2334382.15947  22091774.233    22091782.353
  23416307.420    -2476715.87049  -1916971.18845  23416307.338    23416316.052
  20803284.049      302298.71049    231225.63847  20803283.826    20803289.779
  22809311.986     2378801.41049   1844969.71846  22809311.532    22809320.990
  20093632.617    -1901125.81349  -1478152.00848  20093632.168    20093639.480
  21892083.324    -4031291.30349  -3117527.98547  21892083.087    21892091.149
 03  6  9 19 41 30.0000000  0  9G31G23G21G 3G 9G18G17G15G14
  23483505.216    -3497969.05949  -2708971.89945  23483504.968    23483514.207
  20977020.613    -1487813.97849  -1033783.11447  20977020.281    20977027.707
  21620950.865     1647281.16349   1276925.85347  21620950.557    21620956.961
  22087236.387    -3043248.55449  -2352964.13447  22087236.305    22087244.506
  23408871.025    -2515794.20149  -1947421.78445  23408870.966    23408879.671
  20809824.346      336667.98749    258006.88947  20809824.118    20809830.041
  22823879.083     2455352.00449   1904619.44746  22823878.678    22823888.210
  20092515.537    -1906996.20249  -1482726.33748  20092515.091    20092522.398
  21875131.006    -4120375.60749  -3186944.23047  21875130.822    21875138.869
 03  6  9 19 42  0.0000000  0  9G31G23G21G 3G 9G18G17G15G14
  23470523.852    -3566186.90349  -2762128.61145  23470523.555    23470532.666
  20976801.634    -1488964.95249  -1034679.97247  20976801.293    20976808.714
  21632863.186     1709880.40149   1325704.43247  21632862.851    21632869.263
  22082804.121    -3066540.05149  -2371113.35647  22082804.043    22082812.332
  23401527.055    -2554386.70649  -1977493.82745  23401527.010    23401535.704
  20816406.879      371259.46149    284961.27747  20816406.652    20816412.580
  22838498.254     2532175.96749   1964482.19045  22838497.857    22838507.469
  20091473.745    -1912471.09449  -1486992.49048  20091473.302    20091480.583
  21858246.602    -4209103.48749  -3256082.74847  21858246.401    21858254.433
 03  6  9 19 42 30.0000000  0  9G31G23G21G 3G 9G18G17G15G14
  23457628.079    -3633954.86749  -2814934.77145  23457627.762    23457636.800
  20976622.901    -1489904.17549  -1035411.82947  20976622.556    20976629.963
  21644838.810     1772812.38949   1374742.29247  21644838.470    21644844.908
  22078477.629    -3089275.75149  -2388829.49347  22078477.548    22078485.867
  23394275.961    -2592491.27649  -2007185.66345  23394275.890    23394284.578
  20823031.456      406071.99649    312087.92147  20823031.255    20823037.203
  22853169.288     2609272.91749   2024557.64045  22853168.911    22853178.641
  20090507.388    -1917549.37849  -1490949.59748  20090506.941    20090514.242
  21841430.393    -4297472.81149  -3324941.87247  21841430.193    21841438.205
 03  6  9 19 43  0.0000000  0  9G31G23G21G 3G 9G18G17G15G14
  23444818.263    -3701270.48149  -2867388.46345  23444818.070    23444826.973
  20976484.405    -1490632.01349  -1035978.96847  20976484.062    20976491.472
  21656877.838     1836077.54749   1424039.76947  21656877.525    21656883.965
  22074257.226    -3111454.32549  -2406111.49747  22074257.149    22074265.478
  23387118.244    -2630105.19349  -2036495.15145  23387118.195    23387126.859
  20829698.061      441105.26649    339386.56547  20829697.870    20829703.848
  22867892.394     2686642.96349   2084845.90145  22867892.018    22867901.752
  20089616.796    -1922229.28849  -1494596.28048  20089616.368    20089623.692
  21824682.964    -4385480.90249  -3393519.52147  21824682.767    21824690.753
 03  6  9 19 43 30.0000000  0  9G31G23G21G 3G 9G18G17G15G14
  23432094.898    -3768131.61749  -2919488.00245  23432094.669    23432103.706
  20976385.876    -1491149.63349  -1036382.30247  20976385.540    20976392.976
  21668980.207     1899675.62049   1473596.65747  21668979.897    21668986.339
  22070142.931    -3133075.32649  -2422959.03947  22070142.878    22070151.153
  23380054.335    -2667226.16049  -2065420.54645  23380054.295    23380063.049
  20836406.436      476358.08649    366856.28547  20836406.246    20836412.274
  22882667.326     2764285.45649   2145346.45145  22882667.009    22882676.716
  20088802.235    -1926509.98149  -1497931.88648  20088801.792    20088809.156
  21808004.652    -4473125.66949  -3461814.05147  21808004.473    21808012.404
 03  6  9 19 44  0.0000000  0  9G31G23G21G 3G 9G18G17G15G14
  23419458.466    -3834536.48549  -2971232.02245  23419458.306    23419467.180
  20976327.177    -1491458.00949  -1036622.59047  20976326.881    20976334.273
  21681145.800     1963605.91949   1523412.41547  21681145.485    21681151.938
  22066134.773    -3154138.39649  -2439371.82347  22066134.713    22066142.961
  23373084.687    -2703851.98849  -2093960.10645  23373084.650    23373093.379
  20843156.362      511829.19649    394496.09947  20843156.193    20843162.233
  22897494.122     2842200.13449   2206059.08545  22897493.774    22897503.455
  20088063.843    -1930390.27349  -1500955.48848  20088063.413    20088070.789
  21791395.867    -4560405.18949  -3529823.97747  21791395.691    21791403.551
 03  6  9 19 44 30.0000000  0  9G31G23G21G 3G 9G18G17G15G14
  23406909.205    -3900482.78349  -3022618.70445  23406909.094    23406918.006
  20976308.192    -1491557.89749  -1036700.42047  20976307.874    20976315.246
  21693374.625     2027868.34949   1573486.98247  21693374.289    21693380.759
  22062232.886    -3174642.83349  -2455349.31347  22062232.814    22062241.094
  23366209.691    -2739980.22449  -2122111.94945  23366209.630    23366218.425
  20849947.689      547517.63449    422305.25647  20849947.502    20849953.545
  22912372.471     2920386.38749   2266983.34545  22912372.165    22912381.929
  20087401.838    -1933869.19749  -1503666.33748  20087401.391    20087408.770
  21774857.010    -4647317.21249  -3597547.54447  21774856.811    21774864.700
 03  6  9 19 45  0.0000000  0  9G31G23G21G 3G 9G18G17G15G14
  23394447.728    -3965968.25749  -3073646.30645  23394447.521    23394456.492
  20976328.717    -1491450.05049  -1036616.38247  20976328.400    20976335.780
  21705666.529     2092462.53149   1623820.06247  21705666.190    21705672.661
  22058437.444    -3194587.91149  -2470890.94347  22058437.392    22058445.661
  23359429.744    -2775608.57849  -2149874.27245  23359429.754    23359438.584
  20856780.197      583422.61349    450283.14947  20856779.992    20856786.064
  22927302.444     2998843.60749   2328118.73145  22927302.109    22927312.047
  20086816.490    -1936945.25049  -1506063.26448  20086816.037    20086823.425
  21758388.415    -4733859.65449  -3664983.11747  21758388.241    21758396.134
 03  6  9 19 45 30.0000000  0  9G31G23G21G 3G 9G18G17G15G14
  23382074.206    -4030990.97849  -3124313.32245  23382074.047    23382083.011
  20976388.598    -1491135.49149  -1036371.27047  20976388.279    20976395.633
  21718021.545     2157388.43849   1674411.62647  21718021.207    21718027.748
  22054748.508    -3213973.34149  -2485996.47847  22054748.455    22054756.751
  23352745.244    -2810734.90749  -2177245.40145  23352745.261    23352754.225
  20863653.692      619542.94149    478428.84747  20863653.493    20863659.552
  22942283.914     3077571.15649   2389464.77946  22942283.618    22942293.451
  20086307.971    -1939617.39249  -1508145.45648  20086307.549    20086314.956
  21741990.677    -4820030.26149  -3732128.95847  21741990.503    21741998.359
 03  6  9 19 46  0.0000000  0  9G31G23G21G 3G 9G18G17G15G14
  23369789.170    -4095549.07749  -3174618.30645  23369789.042    23369797.995
  20976487.553    -1490615.39949  -1035966.00147  20976487.230    20976494.596
  21730439.500     2222645.31449   1725261.07947  21730439.200    21730445.800
  22051166.190    -3232798.67749  -2500665.57247  22051166.155    22051174.426
  23346156.949    -2845357.02549  -2204223.65145  23346156.942    23346165.772
  20870567.961      655877.57249    506741.53247  20870567.757    20870573.812
  22957316.747     3156568.66349   2451021.17246  22957316.411    22957326.380
  20085876.536    -1941884.64149  -1509912.14648  20085876.087    20085883.488
  21725664.038    -4905827.06649  -3798983.52147  21725663.846    21725671.672
 03  6  9 19 46 30.0000000  0  9G31G23G21G 3G 9G18G17G15G14
  23357592.964    -4159640.51849  -3224559.64645  23357592.795    23357601.810
  20976625.448    -1489890.79249  -1035401.36847  20976625.125    20976632.489
  21742920.428     2288232.68449   1776368.06647  21742920.110    21742926.725
  22047690.524    -3251063.69949  -2514898.07147  22047690.471    22047698.713
  23339664.954    -2879472.78349  -2230807.32945  23339664.916    23339673.584
  20877522.786      692425.35849    535220.31647  20877522.592    20877528.623
  22972400.841     3235835.46449   2512787.41145  22972400.528    22972410.455
  20085522.350    -1943745.89049  -1511362.47148  20085521.903    20085529.321
  21709408.835    -4991248.21649  -3865545.36047  21709408.649    21709416.499
 03  6  9 19 47  0.0000000  0  9G31G23G21G 3G 9G18G17G15G14
  23345486.014    -4223263.05149  -3274135.62645  23345485.757    23345494.844
  20976802.152    -1488962.27849  -1034677.84947  20976801.832    20976809.202
  21755464.230     2354150.35249   1827732.42847  21755463.895    21755470.502
  22044321.565    -3268767.80849  -2528693.49247  22044321.504    22044329.746
  23333269.828    -2913079.55649  -2256994.40045  23333269.804    23333278.458
  20884517.997      729185.34549    563864.45447  20884517.809    20884523.830
  22987536.144     3315371.54949   2574763.48345  22987535.860    22987545.785
  20085245.710    -1945199.66149  -1512495.28348  20085245.254    20085252.681
  21693225.644    -5076291.22849  -3931812.55147  21693225.443    21693233.267
 03  6  9 19 47 30.0000000  0  9G31G23G21G 3G 9G18G17G15G14
  23333468.631    -4286414.92049  -3323344.83645  23333468.396    23333477.419
  20977017.444    -1487831.05749  -1033796.37747  20977017.113    20977024.494
  21768070.684     2420397.27149   1879353.35547  21768070.318    21768076.907
  22041059.357    -3285910.85849  -2542051.73247  22041059.312    22041067.581
  23326971.834    -2946175.65149  -2282783.53345  23326971.804    23326980.448
  20891553.434      766156.65349    592673.25247  20891553.239    20891559.265
  23002722.524     3395175.89349   2636948.55545  23002722.267    23002732.140
  20085046.694    -1946245.32349  -1513310.09148  20085046.252    20085053.700
  21677114.711    -5160954.58649  -3997783.91647  21677114.506    21677122.259
 03  6  9 19 48  0.0000000  0  9G31G23G21G 3G 9G18G17G15G14
  23321541.239    -4349093.95649  -3372185.61445  23321541.053    23321549.994
  20977271.167    -1486497.73249  -1032757.42447  20977270.828    20977278.220
  21780739.833     2486973.98949   1931231.24947  21780739.478    21780746.057
  22037904.056    -3302492.06249  -2554972.16247  22037904.036    22037912.342
  23320771.566    -2978758.35749  -2308172.63245  23320771.536    23320780.143
  20898628.861      803338.39249    621646.01647  20898628.660    20898634.724
  23017959.846     3475247.96749   2699342.24745  23017959.568    23017969.469
  20084925.614    -1946881.44949  -1513805.77748  20084925.186    20084932.655
  21661076.444    -5245235.88649  -4063457.57247  21661076.239    21661083.988
 03  6  9 19 48 30.0000000  0  9G31G23G21G 3G 9G18G17G15G14
  23309704.197    -4411298.23249  -3420656.44945  23309703.948    23309712.863
  20977563.115    -1484963.36749  -1031561.81247  20977562.786    20977570.192
  21793471.593     2553879.80149   1983365.58747  21793471.254    21793477.850
  22034855.739    -3318511.17749  -2567454.60947  22034855.677    22034863.979
  23314669.303    -3010825.87449  -2333160.28345  23314669.370    23314677.804
  20905744.159      840729.51249    650781.94347  20905743.985    20905750.031
  23033247.943     3555587.02149   2761943.98945  23033247.684    23033257.599
  20084882.655    -1947107.10649  -1513981.62248  20084882.225    20084889.722
  21645111.259    -5329133.15049  -4128831.98047  21645111.072    21645118.807
 03  6  9 19 49  0.0000000  0  9G31G23G21G 3G 9G18G17G15G14
  23297957.792    -4473025.82149  -3468755.85445  23297957.590    23297966.453
  20977893.176    -1483228.93949  -1030210.30747  20977892.847    20977900.264
  21806265.899     2621114.23049   2035755.99147  21806265.586    21806272.238
  22031914.455    -3333967.94149  -2579498.85947  22031914.413    22031922.708
  23308665.613    -3042376.00349  -2357744.77445  23308665.586    23308674.002
  20912899.105      878328.85849    680080.11847  20912898.921    20912904.946
  23048586.863     3636193.02049   2824753.73145  23048586.565    23048596.486
  20084918.043    -1946921.27449  -1513836.82348  20084917.611    20084925.128
  21629219.558    -5412644.37849  -4193905.58147  21629219.363    21629227.077
 03  6  9 19 49 30.0000000  0  9G31G23G21G 3G 9G18G17G15G14
  23286302.507    -4534274.66549  -3516482.19945  23286302.379    23286311.125
  20978261.153    -1481295.18049  -1028703.48047  20978260.822    20978268.251
  21819122.658     2688676.69349   2088401.99347  21819122.356    21819129.022
  22029080.255    -3348861.86549  -2591104.53247  22029080.195    22029088.482
  23302760.629    -3073406.74249  -2381924.54845  23302760.644    23302769.106
  20920093.561      916135.73049    709540.00547  20920093.371    20920099.386
  23063976.356     3717065.20049   2887770.89345  23063976.051    23063986.056
  20085031.927    -1946322.73249  -1513370.43248  20085031.512    20085039.036
  21613401.722    -5495767.39449  -4258676.67747  21613401.524    21613409.267
 03  6  9 19 50  0.0000000  0  9G31G23G21G 3G 9G18G17G15G14
  23274738.717    -4595042.58149  -3563833.79245  23274738.534    23274747.409
  20978666.908    -1479162.81349  -1027041.89647  20978666.601    20978674.015
  21832041.839     2756567.21149   2141303.63847  21832041.542    21832048.234
  22026353.242    -3363192.37149  -2602271.19047  22026353.203    22026361.450
  23296954.948    -3103915.72549  -2405697.75745  23296954.964    23296963.412
  20927327.319      954149.39249    739161.02547  20927327.133    20927333.163
  23079416.420     3798203.05449   2950995.04845  23079416.132    23079426.263
  20085224.627    -1945310.16749  -1512581.43048  20085224.219    20085231.732
  21597658.182    -5578500.03149  -4323143.59247  21597657.993    21597665.757
 03  6  9 19 50 30.0000000  0  9G31G23G21G 3G 9G18G17G15G14
  23263266.744    -4655327.90749  -3610809.35745  23263266.575    23263275.505
  20979110.280    -1476833.00549  -1025226.46047  20979109.954    20979117.388
  21845023.360     2824785.11249   2194460.37947  21845023.035    21845029.750
  22023733.388    -3376959.65649  -2612998.97247  22023733.386    22023741.624
  23291248.870    -3133900.95349  -2429062.85045  23291248.904    23291257.500
  20934600.240      992368.76749    768942.34147  20934600.058    20934606.113
  23094906.886     3879605.83549   3014425.65145  23094906.629    23094916.680
  20085496.278    -1943882.71549  -1511469.13748  20085495.861    20085503.389
  21581989.240    -5660840.47949  -4387304.90347  21581989.050    21581996.797
 03  6  9 19 51  0.0000000  0  9G31G23G21G 3G 9G18G17G15G14
  23251886.968    -4715128.78349  -3657407.40945  23251886.784    23251895.773
  20979591.020    -1474306.67849  -1023257.88947  20979590.712    20979598.126
  21858067.007     2893329.72949   2247871.69547  21858066.745    21858073.451
  22021220.857    -3390163.28549  -2623287.53347  22021220.856    22021229.104
  23285642.824    -3163360.67449  -2452018.45045  23285642.885    23285651.466
  20941912.067     1030792.79849    798883.12747  20941911.896    20941917.992
  23110447.758     3961273.04749   3078062.31045  23110447.540    23110457.529
  20085847.088    -1942039.40649  -1510032.79748  20085846.688    20085854.181
  21566395.281    -5742786.90849  -4451159.19047  21566395.096    21566402.825
 03  6  9 19 51 30.0000000  0  9G31G23G21G 3G 9G18G17G15G14
  23240599.826    -4774443.12049  -3703626.36145  23240599.637    23240608.677
  20980109.035    -1471584.60249  -1021136.79247  20980108.733    20980116.119
  21871172.824     2962200.93849   2301537.50147  21871172.562    21871179.261
  22018815.573    -3402803.11649  -2633136.77347  22018815.581    22018823.856
  23280137.260    -3192292.67449  -2474562.84145  23280137.337    23280145.955
  20949262.603     1069420.30149    828982.46347  20949262.467    20949268.577
  23126038.714     4043203.86549   3141904.36645  23126038.457    23126048.553
  20086277.253    -1939778.94149  -1508271.40948  20086276.840    20086284.301
  21550876.707    -5824337.08349  -4514704.71047  21550876.529    21550884.263
 03  6  9 19 52  0.0000000  0  9G31G23G21G 3G 9G18G17G15G14
  23229405.507    -4833269.30949  -3749464.92146  23229405.377    23229414.509
  20980664.087    -1468667.83649  -1018863.98547  20980663.789    20980671.152
  21884340.657     3031398.01849   2355457.23847  21884340.396    21884347.069
  22016517.699    -3414878.94949  -2642546.53847  22016517.692    22016525.962
  23274732.459    -3220694.97549  -2496694.49345  23274732.588    23274741.210
  20956651.708     1108250.24349    859239.55147  20956651.572    20956657.681
  23141679.833     4125398.12849   3205951.72045  23141679.568    23141689.675
  20086786.936    -1937100.54049  -1506184.35048  20086786.527    20086793.989
  21535433.914    -5905489.26349  -4577940.10047  21535433.749    21535441.433
 03  6  9 19 52 30.0000000  0  9G31G23G21G 3G 9G18G17G15G14
  23218304.579    -4891605.28649  -3794921.50546  23218304.403    23218313.563
  20981256.079    -1465557.13549  -1016440.06747  20981255.769    20981263.094
  21897570.447     3100920.69949   2409630.68747  21897570.178    21897576.867
  22014327.130    -3426390.76449  -2651516.81247  22014327.099    22014335.377
  23269428.857    -3248565.77249  -2518411.95545  23269428.899    23269437.549
  20964079.234     1147281.93149    889653.83547  20964079.090    20964085.177
  23157370.980     4207854.82649   3270203.56145  23157370.656    23157380.795
  20087376.364    -1934003.21249  -1503770.85748  20087375.969    20087383.381
  21520067.309    -5986241.33449  -4640863.72447  21520067.118    21520074.737
 03  6  9 19 53  0.0000000  0  9G31G23G21G 3G 9G18G17G15G14
  23207297.243    -4949449.45949  -3839994.86446  23207297.102    23207306.121
  20981884.708    -1462253.50349  -1013865.80747  20981884.394    20981891.728
  21910862.021     3170768.27449   2464057.30246  21910861.726    21910868.440
  22012243.876    -3437338.39149  -2660047.45447  22012243.861    22012252.151
  23264226.763    -3275903.12549  -2539713.76645  23264226.791    23264235.357
  20971544.970     1186514.34249    920224.53147  20971544.802    20971550.890
  23173111.864     4290573.08849   3334659.23345  23173111.518    23173121.706
  20088045.683    -1930486.07049  -1501030.23648  20088045.286    20088052.672
  21504777.056    -6066591.73149  -4703474.35347  21504776.863    21504784.498
 03  6  9 19 53 30.0000000  0  9G31G23G21G 3G 9G18G17G15G14
  23196383.845    -5006799.88149  -3884683.47346  23196383.638    23196392.718
  20982549.928    -1458757.69949  -1011141.80847  20982549.613    20982556.977
  21924215.293     3240940.06249   2518736.55746  21924215.022    21924221.771
  22010268.066    -3447721.67249  -2668138.34547  22010268.038    22010276.342
  23259126.566    -3302704.83449  -2560598.18345  23259126.512    23259135.173
  20979048.693     1225946.61349    950950.95847  20979048.537    20979054.621
  23188902.492     4373552.36049   3399318.30045  23188902.136    23188912.232
  20088795.135    -1926547.88649  -1497961.53048  20088794.727    20088802.119
  21489563.667    -6146538.33749  -4765770.33647  21489563.485    21489571.124
 03  6  9 19 54  0.0000000  0  9G31G23G21G 3G 9G18G17G15G14
  23185564.677    -5063654.72749  -3928985.92546  23185564.498    23185573.535
  20983251.498    -1455070.76249  -1008268.86847  20983251.188    20983258.569
  21937630.233     3311435.98149   2573668.37946  21937629.945    21937636.753
  22008399.585    -3457540.47249  -2675789.37947  22008399.572    22008407.946
  23254128.598    -3328969.24549  -2581063.92545  23254128.582    23254137.205
  20986590.240     1265577.77249    981832.36547  20986590.096    20986596.201
  23204742.690     4456792.24549   3464180.41045  23204742.381    23204752.391
  20089624.813    -1922187.82549  -1494564.08948  20089624.412    20089631.819
  21474427.437    -6226079.44149  -4827750.34147  21474427.244    21474434.868
 03  6  9 19 54 30.0000000  0  9G31G23G21G 3G 9G18G17G15G14
  23174840.204    -5120012.03749  -3972900.68346  23174839.992    23174849.057
  20983989.361    -1451193.44549  -1005247.58647  20983989.057    20983996.421
  21951106.753     3382255.18949   2628852.10846  21951106.455    21951113.305
  22006638.606    -3466794.50049  -2683000.33747  22006638.581    22006646.955
  23249233.232    -3354694.20649  -2601109.33545  23249233.181    23249241.844
  20994169.521     1305407.04649   1012868.14747  20994169.369    20994175.493
  23220632.194     4540291.93049   3529244.96445  23220631.901    23220642.002
  20090535.059    -1917404.52749  -1490836.85648  20090534.662    20090542.098
  21459368.814    -6305212.78849  -4889412.62447  21459368.628    21459376.219
 03  6  9 19 55  0.0000000  0  9G31G23G21G 3G 9G18G17G15G14
  23164210.874    -5175870.02249  -4016426.35246  23164210.581    23164219.644
  20984763.316    -1447126.38249  -1002078.44847  20984763.021    20984770.382
  21964644.717     3453397.41649   2684287.54246  21964644.403    21964651.307
  22004985.133    -3475483.77449  -2689771.23347  22004985.076    22004993.432
  23244440.855    -3379877.79549  -2620732.88045  23244440.878    23244449.535
  21001786.342     1345433.46549   1044057.54947  21001786.176    21001792.292
  23236571.093     4624050.92849   3594511.60545  23236570.867    23236580.913
  20091526.020    -1912197.13349  -1486779.15848  20091525.606    20091533.067
  21444388.167    -6383936.49949  -4950755.70847  21444387.969    21444395.516
 03  6  9 19 55 30.0000000  0  9G31G23G21G 3G 9G18G17G15G14
  23153676.705    -5231227.11849  -4059561.73246  23153676.423    23153685.486
  20985573.180    -1442870.64149   -998762.28447  20985572.870    20985580.226
  21978244.042     3524861.84249   2739974.03846  21978243.738    21978250.640
  22003439.072    -3483608.36849  -2696102.11047  22003439.036    22003447.370
  23239751.871    -3404518.33449  -2639933.27345  23239751.885    23239760.557
  21009440.495     1385656.20749   1075399.93047  21009440.327    21009446.431
  23252559.228     4708068.55749   3659979.75245  23252558.929    23252569.159
  20092597.809    -1906564.84449  -1482390.36748  20092597.394    20092604.883
  21429485.794    -6462248.75149  -5011778.17047  21429485.596    21429493.130
 03  6  9 19 56  0.0000000  0  9G31G23G21G 3G 9G18G17G15G14
  23143238.128    -5286081.63649  -4102305.49346  23143237.880    23143246.980
  20986418.740    -1438427.13049   -995299.81147  20986418.435    20986425.792
  21991904.543     3596647.96549   2795911.20346  21991904.251    21991911.189
  22002000.558    -3491168.21349  -2701992.92747  22002000.512    22002008.833
  23235166.643    -3428613.93049  -2658709.04546  23235166.659    23235175.307
  21017131.782     1426074.23749   1106894.48247  21017131.613    21017137.724
  23268596.376     4792343.82849   3725648.65745  23268596.136    23268606.403
  20093750.637    -1900506.61149  -1477669.68148  20093750.246    20093757.737
  21414662.018    -6540147.76549  -5072478.63047  21414661.828    21414669.367
 03  6  9 19 56 30.0000000  0  9G31G23G21G 3G 9G18G17G15G14
  23132895.568    -5340431.92749  -4144656.34046  23132895.360    23132904.435
  20987299.804    -1433796.86449   -991691.81147  20987299.515    20987306.885
  22005626.101     3668755.00449   2852098.44246  22005625.812    22005632.822
  22000669.390    -3498163.59349  -2707443.89947  22000669.343    22000677.662
  23230685.412    -3452163.04149  -2677058.97146  23230685.401    23230694.115
  21024859.989     1466686.34349   1138540.26747  21024859.852    21024865.961
  23284682.359     4876875.72949   3791517.51345  23284682.100    23284692.543
  20094984.669    -1894021.68549  -1472616.50348  20094984.272    20094991.791
  21399917.155    -6617631.88149  -5132855.79047  21399916.966    21399924.554
 03  6  9 19 57  0.0000000  0  9G31G23G21G 3G 9G18G17G15G14
  23122649.385    -5394276.05249  -4186612.79146  23122649.123    23122658.149
  20988216.298    -1428980.48449   -987938.78847  20988216.040    20988223.440
  22019408.656     3741182.82849   2908535.62946  22019408.381    22019415.487
  21999445.726    -3504594.18349  -2712454.77547  21999445.681    21999453.998
  23226308.575    -3475163.68149  -2694981.53246  23226308.591    23226317.294
  21032625.068     1507492.11349   1170336.95747  21032624.937    21032631.096
  23300817.166     4961664.17549   3857586.29845  23300816.940    23300827.402
  20096300.102    -1887109.03549  -1467230.03648  20096299.721    20096307.257
  21385251.608    -6694699.22049  -5192908.18947  21385251.448    21385259.061
 03  6  9 19 57 30.0000000  0  9G31G23G21G 3G 9G18G17G15G14
  23112499.813    -5447612.56449  -4228173.68546  23112499.579    23112508.472
  20989168.027    -1423979.00149   -984041.52947  20989167.772    20989175.217
  22033252.053     3813930.36549   2965221.94146  22033251.817    22033258.965
  21998329.451    -3510460.35149  -2717025.84747  21998329.413    21998337.765
  23222036.382    -3497614.46049  -2712475.62546  23222036.399    23222045.024
  21040426.782     1548490.54149   1202283.76947  21040426.676    21040432.894
  23317000.581     5046708.28149   3923854.29045  23317000.296    23317010.784
  20097697.090    -1879767.77349  -1461509.58548  20097696.714    20097704.275
  21370665.807    -6771347.95149  -5252634.41047  21370665.656    21370673.257
 03  6  9 19 58  0.0000000  0  9G31G23G21G 3G 9G18G17G15G14
  23102447.148    -5500439.71849  -4269337.68646  23102446.949    23102455.854
  20990154.848    -1418793.19249   -980000.63847  20990154.609    20990162.075
  22047156.238     3886997.20649   3022157.05646  22047156.021    22047163.198
  21997320.503    -3515762.12449  -2721157.13147  21997320.512    21997328.941
  23217868.998    -3519513.68649  -2729539.93046  23217869.064    23217877.724
  21048264.947     1589680.48049   1234379.81047  21048264.849    21048271.135
  23333232.513     5132007.06049   3990320.72945  23333232.229    23333242.743
  20099175.802    -1871996.96449  -1455454.41848  20099175.440    20099183.023
  21356159.958    -6847576.32749  -5312033.07347  21356159.828    21356167.393
 03  6  9 19 58 30.0000000  0  9G31G23G21G 3G 9G18G17G15G14
  23092491.678    -5552755.57049  -4310103.26746  23092491.461    23092500.574
  20991176.626    -1413423.57649   -975816.52047  20991176.401    20991183.876
  22061121.183     3960383.24249   3079340.89146  22061120.964    22061128.140
  21996419.026    -3520499.39349  -2724848.54247  21996419.056    21996427.550
  23213807.113    -3540858.99549  -2746172.62246  23213807.166    23213815.909
  21056139.470     1631061.48749   1266624.72847  21056139.388    21056145.712
  23349512.832     5217560.23949   4056985.38245  23349512.609    23349523.191
  20100736.503    -1863795.38949  -1449063.59548  20100736.150    20100743.757
  21341734.525    -6923382.17449  -5371102.49847  21341734.385    21341741.956
 03  6  9 19 59  0.0000000  0  9G31G23G21G 3G 9G18G17G15G14
  23082633.772    -5604558.61149  -4350469.25846  23082633.596    23082642.726
  20992233.234    -1407871.13749   -971489.94647  20992233.009    20992240.511
  22075146.591     4034087.33749   3136772.57546  22075146.374    22075153.591
  21995624.872    -3524672.59849  -2728100.42747  21995624.926    21995633.464
  23209850.842    -3561649.16549  -2762372.74546  23209850.845    23209859.654
  21064050.158     1672632.49149   1299017.70647  21064050.081    21064056.429
  23365841.463     5303367.12949   4123847.71445  23365841.234    23365851.939
  20102379.337    -1855162.38249  -1442336.58948  20102378.993    20102386.579
  21327389.719    -6998764.18049  -5429841.65447  21327389.596    21327397.190
 03  6  9 19 59 30.0000000  0  9G31G23G21G 3G 9G18G17G15G14
  23072873.827    -5655847.24949  -4390434.42646  23072873.712    23072882.903
  20993324.411    -1402136.65349   -967021.52047  20993324.184    20993331.758
  22089232.477     4108108.98349   3194451.69946  22089232.273    22089239.491
  21994938.140    -3528281.58849  -2730912.66247  21994938.211    21994946.759
  23206000.561    -3581882.35449  -2778138.85346  23206000.540    23206009.385
  21071996.851     1714392.54849   1331557.98847  21071996.800    21072003.129
  23382218.101     5389426.65349   4190906.92345  23382217.827    23382228.630
  20104104.451    -1846096.83049  -1435272.53748  20104104.098    20104111.739
  21313125.995    -7073720.25649  -5488248.92147  21313125.870    21313133.515
 03  6  9 20  0  0.0000000  0  9G31G23G21G 3G 9G18G17G15G14
  23063212.125    -5706619.94549  -4429997.55746  23063212.000    23063221.238
  20994450.066    -1396221.21249   -962412.08347  20994449.855    20994457.454
  22103378.656     4182447.42149   3252377.66846  22103378.459    22103385.742
  21994358.642    -3531326.82649  -2733285.60147  21994358.692    21994367.343
  23202256.591    -3601557.02349  -2793469.77246  23202256.572    23202265.340
  21079979.364     1756340.83049   1364244.94047  21079979.304    21079985.671
  23398642.558     5475737.74549   4258162.15545  23398642.287    23398653.278
  20105911.959    -1836598.23549  -1427871.04948  20105911.637    20105919.297
  21298943.587    -7148248.91949  -5546323.14347  21298943.498    21298951.118
 03  6  9 20  0 30.0000000  0  9G31G23G21G 3G 9G18G17G15G14
  23053648.913    -5756874.98149  -4469157.31246  23053648.801    23053658.024
  20995610.098    -1390125.26149   -957661.99447  20995609.882    20995617.497
  22117585.091     4257102.18049   3310550.12246  22117584.884    22117592.201
  21993886.347    -3533808.38249  -2735219.31947  21993886.419    21993895.116
  23198619.177    -3620671.58749  -2808364.22246  23198619.150    23198627.994
  21087997.518     1798476.53649   1397077.93947  21087997.463    21088003.866
  23415114.832     5562299.74749   4325612.88645  23415114.633    23415125.688
  20107802.123    -1826665.27049  -1420131.09348  20107801.799    20107809.513
  21284842.914    -7222348.30649  -5604062.86147  21284842.830    21284850.465
 03  6  9 20  1  0.0000000  0  9G31G23G21G 3G 9G18G17G15G14
  23044184.357    -5806611.58249  -4507913.09246  23044184.193    23044193.494
  20996804.158    -1383850.36549   -952772.46647  20996803.945    20996811.543
  22131851.442     4332071.87849   3368967.97846  22131851.248    22131858.521
  21993521.220    -3535727.15449  -2736714.50047  21993521.312    21993530.024
  23195088.499    -3639224.96149  -2822821.40146  23195088.544    23195097.311
  21096051.046     1840798.19149   1430055.83247  21096051.018    21096057.450
  23431634.763     5649111.74049   4393258.42045  23431634.527    23431645.652
  20109774.971    -1816297.94949  -1412052.67448  20109774.663    20109782.383
  21270824.106    -7296017.29749  -5661467.20947  21270824.035    21270831.653
 03  6  9 20  1 30.0000000  0  9G31G23G21G 3G 9G18G17G15G14
  23034818.949    -5855827.13749  -4546262.87646  23034818.856    23034828.009
  20998032.284    -1377396.58749   -947743.55347  20998032.085    20998039.650
  22146177.802     4407357.11949   3427631.71446  22146177.630    22146184.902
  21993263.367    -3537082.45649  -2737770.61647  21993263.450    21993272.124
  23191665.159    -3657214.74849  -2836839.40546  23191665.204    23191673.911
  21104139.990     1883305.88349   1463178.68647  21104139.968    21104146.417
  23448202.276     5736173.90349   4461098.90645  23448202.047    23448213.179
  20111830.804    -1805494.42349  -1403634.35548  20111830.509    20111838.242
  21256887.704    -7369253.31849  -5718534.17747  21256887.623    21256895.204
 03  6  9 20  2  0.0000000  0  9G31G23G21G 3G 9G18G17G15G14
  23025552.907    -5904520.69049  -4584205.89946  23025552.772    23025561.927
  20999294.174    -1370765.27049   -942576.29847  20999293.981    20999301.571
  22160563.993     4482956.50749   3486540.24546  22160563.821    22160571.138
  21993112.617    -3537875.21949  -2738388.38047  21993112.715    21993121.330
  23188349.203    -3674639.96549  -2850417.48946  23188349.310    23188357.951
  21112264.125     1925998.56049   1496445.68647  21112264.114    21112270.563
  23464817.165     5823484.87949   4529133.27145  23464816.865    23464828.150
  20113969.698    -1794254.45649  -1394875.95248  20113969.399    20113977.147
  21243033.967    -7442055.07849  -5775262.76247  21243033.884    21243041.473
 03  6  9 20  2 30.0000000  0  9G31G23G21G 3G 9G18G17G15G14
  23016386.447    -5952690.56949  -4621740.86746  23016386.318    23016395.404
  21000589.818    -1363956.99149   -937271.15347  21000589.624    21000597.188
  22175009.789     4558869.33349   3545693.00946  22175009.620    22175016.910
  21993068.883    -3538105.33049  -2738567.72847  21993068.955    21993077.536
  23185141.048    -3691498.99949  -2863554.38145  23185141.151    23185149.747
  21120423.273     1968875.16849   1529856.00747  21120423.235    21120429.680
  23481479.125     5911043.31149   4597360.45245  23481478.870    23481490.071
  20116191.799    -1782577.34149  -1385776.91348  20116191.490    20116199.266
  21229263.136    -7514420.99449  -5831651.73247  21229263.057    21229270.638
 03  6  9 20  3  0.0000000  0  9G31G23G21G 3G 9G18G17G15G14
  23007319.968    -6000335.13249  -4658866.48846  23007319.854    23007328.963
  21001918.954    -1356972.29449   -931828.53647  21001918.744    21001926.299
  22189515.179     4635095.21249   3605089.70246  22189515.018    22189522.342
  21993132.083    -3537772.97649  -2738308.79147  21993132.171    21993140.787
  23182040.934    -3707790.14849  -2876248.77545  23182041.097    23182049.698
  21128617.279     2011934.93949   1563409.05047  21128617.263    21128623.677
  23498188.184     5998849.08849   4665780.37545  23498187.933    23498199.146
  20118497.290    -1770461.89349  -1376336.31648  20118497.004    20118504.737
  21215575.674    -7586348.90149  -5887699.39647  21215575.613    21215583.171
 03  6  9 20  3 30.0000000  0  9G31G23G21G 3G 9G18G17G15G14
  22998353.669    -6047452.86249  -4695581.58746  22998353.601    22998362.759
  21003281.504    -1349812.06049   -926249.13547  21003281.291    21003288.851
  22204079.950     4711633.30349   3664729.67346  22204079.805    22204087.155
  21993302.286    -3536878.60549  -2737611.91447  21993302.364    21993311.016
  23179049.196    -3723511.77449  -2888499.37046  23179049.318    23179057.957
  21136846.059     2055177.42549   1597104.46747  21136846.026    21136852.458
  23514944.124     6086901.39149   4734392.38445  23514944.002    23514955.065
  20120886.432    -1757907.11549  -1366553.38348  20120886.140    20120893.832
  21201971.799    -7657837.44449  -5943404.70147  21201971.721    21201979.277
 03  6  9 20  4  0.0000000  0  9G31G23G21G 3G 9G18G17G15G14
  22989487.909    -6094042.78649  -4731885.42846  22989487.829    22989496.978
  21004677.210    -1342477.41849   -920533.83047  21004677.015    21004684.572
  22218703.930     4788482.59349   3724612.13746  22218703.781    22218711.150
  21993579.278    -3535422.90149  -2736477.63847  21993579.382    21993588.077
  23176166.013    -3738662.94849  -2900305.46046  23176166.164    23176174.784
  21145109.385     2098601.28449   1630941.22447  21145109.335    21145115.800
  23531746.869     6175199.20649   4803195.70745  23531746.791    23531757.746
  20123359.243    -1744912.78149  -1356427.93748  20123358.938    20123366.598
  21188451.774    -7728885.43649  -5998766.71947  21188451.710    21188459.273
 03  6  9 20  4 30.0000000  0  9G31G23G21G 3G 9G18G17G15G14
  22980722.939    -6140103.02849  -4767776.51746  22980722.837    22980731.985
  21006106.069    -1334968.79749   -914682.96547  21006105.855    21006113.378
  22233387.163     4865642.92749   3784736.96946  22233386.996    22233394.360
  21993963.099    -3533406.00249  -2734906.07347  21993963.176    21993971.915
  23173391.737    -3753242.00449  -2911665.75746  23173391.904    23173400.532
  21153407.064     2142205.88749   1664918.81247  21153407.021    21153413.483
  23548595.968     6263741.43249   4872189.47445  23548595.857    23548606.903
  20125915.912    -1731477.60649  -1345958.98648  20125915.599    20125923.211
  21175015.992    -7799490.74749  -6053783.79847  21175015.912    21175023.464
 03  6  9 20  5  0.0000000  0  9G31G23G21G 3G 9G18G17G15G14
  22972058.836    -6185633.12749  -4803254.51946  22972058.744    22972067.891
  21007567.725    -1327287.91549   -908697.86747  21007567.484    21007575.002
  22248129.217     4943112.40649   3845102.69846  22248129.010    22248136.329
  21994453.475    -3530829.36949  -2732898.34247  21994453.517    21994462.273
  23170726.367    -3767248.51949  -2922579.90246  23170726.490    23170735.194
  21161738.910     2185989.78049   1699036.11547  21161738.853    21161745.320
  23565491.335     6352526.42049   4941372.40145  23565491.210    23565502.273
  20128556.365    -1717601.96449  -1335146.80848  20128556.051    20128563.625
  21161664.559    -7869652.82749  -6108455.49347  21161664.465    21161672.006
 03  6  9 20  5 30.0000000  0  9G31G23G21G 3G 9G18G17G15G14
  22963496.103    -6230630.71449  -4838317.57446  22963496.032    22963505.121
  21009062.270    -1319434.41549   -902578.25847  21009062.009    21009069.501
  22262930.213     5020891.46749   3905709.66946  22262930.004    22262937.318
  21995050.508    -3527692.25249  -2730453.88047  21995050.563    21995059.288
  23168170.479    -3780680.01049  -2933045.98846  23168170.569    23168179.212
  21170104.883     2229952.99149   1733293.14147  21170104.821    21170111.238
  23582433.020     6441554.74849   5010744.94945  23582432.832    23582443.919
  20131281.052    -1703283.88849  -1323989.88248  20131280.724    20131288.283
  21148398.013    -7939368.99149  -6162779.72347  21148397.909    21148405.433
 03  6  9 20  6  0.0000000  0  9G31G23G21G 3G 9G18G17G15G14
  22955034.860    -6275094.72549  -4872964.84946  22955034.750    22955043.927
  21010589.407    -1311409.31649   -896324.93947  21010589.122    21010596.618
  22277789.827     5098978.90049   3966556.93246  22277789.627    22277796.926
  21995754.075    -3523995.40349  -2727573.26147  21995754.126    21995762.817
  23165724.198    -3793535.48849  -2943063.22346  23165724.253    23165732.831
  21178504.750     2274094.48749   1767689.08047  21178504.696    21178511.126
  23599420.773     6530825.13449   5080306.09845  23599420.621    23599431.623
  20134089.951    -1688523.05649  -1312487.95048  20134089.600    20134097.161
  21135216.561    -8008637.96749  -6216755.49947  21135216.454    21135223.956
 03  6  9 20  6 30.0000000  0  9G31G23G21G 3G 9G18G17G15G14
  22946675.419    -6319023.79749  -4907195.29946  22946675.297    22946684.537
  21012149.003    -1303213.46449   -889938.56247  21012148.732    21012156.229
  22292707.977     5177373.93849   4027643.86746  22292707.749    22292715.102
  21996564.044    -3519739.40649  -2724256.93447  21996564.105    21996572.749
  23163387.821    -3805813.69349  -2952630.65646  23163387.850    23163396.305
  21186938.414     2318413.37849   1802223.25847  21186938.348    21186944.756
  23616454.347     6620336.43549   5150054.97845  23616454.149    23616465.091
  20136983.239    -1673318.61949  -1300640.34848  20136982.897    20136990.457
  21122120.506    -8077458.19449  -6270381.60247  21122120.390    21122127.813
 03  6  9 20  7  0.0000000  0  9G31G23G21G 3G 9G18G17G15G14
  22938418.101    -6362416.63849  -4941007.90446  22938417.914    22938427.130
  21013740.946    -1294847.71249   -883419.80047  21013740.690    21013748.170
  22307684.613     5256076.16649   4088970.18446  22307684.361    22307691.701
  21997480.300    -3514924.87949  -2720505.39447  21997480.341    21997488.959
  23161161.475    -3817513.30749  -2961747.23746  23161161.481    23161169.862
  21195405.727     2362909.11149   1836895.23547  21195405.626    21195412.012
  23633533.672     6710087.92249   5219991.03545  23633533.485    23633544.436
  20139961.079    -1657670.00049  -1288446.62948  20139960.735    20139968.315
  21109110.143    -8145828.22649  -6323656.90647  21109110.007    21109117.350
 03  6  9 20  7 30.0000000  0  9G31G23G21G 3G 9G18G17G15G14
  22930263.049    -6405271.75849  -4974401.49746  22930262.809    22930272.092
  21015365.170    -1286312.59049   -876769.06047  21015364.906    21015372.370
  22322719.470     5335084.44349   4150534.97546  22322719.203    22322726.582
  21998502.738    -3509552.18649  -2716318.93047  21998502.753    21998511.373
  23159045.466    -3828633.08649  -2970411.99546  23159045.536    23159053.871
  21203906.526     2407580.96049   1871704.44947  21203906.421    21203912.811
  23650658.498     6800078.88449   5290113.67745  23650658.280    23650669.488
  20143023.606    -1641576.48649  -1275906.24148  20143023.235    20143030.823
  21096185.700    -8213746.51949  -6376580.20147  21096185.555    21096192.846
 03  6  9 20  8  0.0000000  0  9G31G23G21G 3G 9G18G17G15G14
  22922210.515    -6447588.06849  -5007375.25146  22922210.304    22922219.600
  21017021.455    -1277608.95549   -869987.01147  21017021.169    21017028.603
  22337812.406     5414398.10949   4212337.74746  22337812.155    22337819.522
  21999631.291    -3503621.94149  -2711698.00047  21999631.332    21999639.929
  23157040.074    -3839171.94649  -2978624.08546  23157040.145    23157048.323
  21212440.632     2452427.90649   1906650.09747  21212440.513    21212446.898
  23667828.689     6890308.34449   5360422.16445  23667828.313    23667839.800
  20146170.917    -1625037.33649  -1263018.60748  20146170.546    20146178.122
  21083347.471    -8281211.54749  -6429150.30447  21083347.342    21083354.582
 03  6  9 20  8 30.0000000  0  9G31G23G21G 3G 9G18G17G15G14
  22914260.845    -6489364.24249  -5039928.11046  22914260.647    22914269.815
  21018709.583    -1268737.77049   -863074.39947  21018709.290    21018716.707
  22352963.267     5494016.15649   4274377.68646  22352963.026    22352970.383
  22000865.845    -3497134.65849  -2706643.01547  22000865.857    22000874.423
  23155145.290    -3849128.61649  -2986382.53846  23155145.396    23155153.531
  21221007.936     2497449.13449   1941731.54947  21221007.812    21221014.210
  23685044.099     6980775.51249   5430915.88045  23685043.735    23685055.251
  20149403.205    -1608051.74049  -1249783.09248  20149402.829    20149410.415
  21070595.792    -8348221.87549  -6481366.08947  21070595.660    21070602.899
 03  6  9 20  9  0.0000000  0  9G31G23G21G 3G 9G18G17G15G14
  22906414.180    -6530598.88649  -5072059.01246  22906413.989    22906423.084
  21020429.510    -1259699.49349   -856031.59547  21020429.250    21020436.646
  22368172.034     5573938.27249   4336654.55746  22368171.787    22368179.134
  22002206.215    -3490090.95749  -2701154.46747  22002206.240    22002214.817
  23153361.732    -3858501.56049  -2993686.14046  23153361.812    23153369.946
  21229608.321     2542644.37649   1976948.59647  21229608.188    21229614.568
  23702304.476     7071479.29649   5501593.94845  23702304.185    23702315.831
  20152720.569    -1590618.95949  -1236199.12948  20152720.192    20152727.764
  21057930.937    -8414775.87149  -6533226.30447  21057930.818    21057938.055
 03  6  9 20  9 30.0000000  0  9G31G23G21G 3G 9G18G17G15G14
  22898670.750    -6571291.02649  -5103767.18346  22898670.540    22898679.588
  21022181.046    -1250495.14349   -848859.38047  21022180.767    21022188.176
  22383438.404     5654163.08249   4399167.29846  22383438.128    22383445.501
  22003652.318    -3482491.72549  -2695233.02947  22003652.348    22003660.948
  23151689.261    -3867290.07749  -3000534.33146  23151689.319    23151697.577
  21238241.638     2588012.36849   2012300.25347  21238241.471    21238247.814
  23719609.744     7162418.55549   5572455.50345  23719609.555    23719621.207
  20156123.069    -1572738.84349  -1222266.58948  20156122.667    20156130.242
  21045353.200    -8480872.44249  -6584730.08047  21045353.045    21045360.275
 03  6  9 20 10  0.0000000  0  9G31G23G21G 3G 9G18G17G15G14
  22891030.858    -6611439.40449  -5135051.64246  22891030.620    22891039.622
  21023964.023    -1241125.32149   -841558.22747  21023963.763    21023971.201
  22398762.230     5734689.98749   4461915.43946  22398761.920    22398769.390
  22005204.011    -3474337.56749  -2688879.18547  22005204.034    22005212.679
  23150128.248    -3875493.07649  -3006926.27346  23150128.370    23150136.584
  21246907.668     2633552.50349   2047786.05147  21246907.492    21246913.842
  23736959.687     7253592.15049   5643499.67545  23736959.504    23736971.190
  20159610.815    -1554410.59849  -1207984.86048  20159610.432    20159617.971
  21032862.746    -8546509.95549  -6635876.14647  21032862.612    21032869.834
 03  6  9 20 10 30.0000000  0  9G31G23G21G 3G 9G18G17G15G14
  22883494.590    -6651042.86349  -5165911.48446  22883494.366    22883503.294
  21025778.401    -1231590.85049   -834128.77347  21025778.147    21025785.588
  22414143.316     5815517.83249   4524898.05746  22414143.062    22414150.580
  22006861.147    -3465629.34449  -2682093.59947  22006861.177    22006869.812
  23148678.888    -3883109.46849  -3012861.11146  23148678.974    23148687.293
  21255606.262     2679263.93349   2083405.33047  21255606.130    21255612.453
  23754354.099     7344999.65949   5714726.10145  23754353.913    23754365.676
  20163183.975    -1535633.65049  -1193353.49148  20163183.578    20163191.113
  21020459.862    -8611687.33249  -6686663.66247  21020459.719    21020466.921
 03  6  9 20 11  0.0000000  0  9G31G23G21G 3G 9G18G17G15G14
  22876062.164    -6690100.46749  -5196345.97546  22876061.932    22876070.893
  21027623.954    -1221892.50449   -826571.62547  21027623.679    21027631.126
  22429581.590     5896646.01749   4588114.73446  22429581.313    22429588.867
  22008623.689    -3456367.54249  -2674876.65047  22008623.677    22008632.311
  23147341.361    -3890138.20449  -3018338.04746  23147341.479    23147349.783
  21264337.324     2725145.80549   2119157.41247  21264337.186    21264343.499
  23771792.828     7436639.56449   5786133.62045  23771792.600    23771804.450
  20166842.635    -1516407.26349  -1178371.91148  20166842.246    20166849.764
  21008144.880    -8676402.87849  -6737091.31247  21008144.734    21008151.907
 03  6  9 20 11 30.0000000  0  9G31G23G21G 3G 9G18G17G15G14
  22868733.800    -6728610.93149  -5226354.13146  22868733.565    22868742.552
  21029500.564    -1212030.96549   -818887.31247  21029500.270    21029507.716
  22445076.796     5978073.53449   4651564.62846  22445076.527    22445084.149
  22010491.362    -3446552.95949  -2667228.96647  22010491.374    22010500.016
  23146115.865    -3896578.14049  -3023356.17146  23146115.977    23146124.245
  21273100.761     2771197.74249   2155042.01647  21273100.619    21273106.938
  23789275.586     7528511.01249   5857721.56045  23789275.357    23789287.071
  20170586.971    -1496730.84549  -1163039.65448  20170586.574    20170594.086
  20995918.058    -8740655.19349  -6787158.00147  20995917.889    20995925.049
 03  6  9 20 12  0.0000000  0  9G31G23G21G 3G 9G18G17G15G14
  22861509.870    -6766572.75549  -5255934.77446  22861509.666    22861518.643
  21031408.171    -1202006.50349   -811076.04747  21031407.879    21031415.328
  22460628.839     6059799.93749   4715247.41846  22460628.580    22460636.247
  22012464.099    -3436186.18549  -2659151.00447  22012464.118    22012472.756
  23145002.699    -3902428.05849  -3027914.53646  23145002.778    23145010.987
  21281896.417     2817419.00349   2191058.56247  21281896.280    21281902.577
  23806802.315     7620613.74749   5929489.72945  23806802.064    23806813.806
  20174417.127    -1476603.42049  -1147355.96548  20174416.742    20174424.242
  20983779.626    -8804442.83149  -6836862.61047  20983779.462    20983786.604
 03  6  9 20 12 30.0000000  0  9G31G23G21G 3G 9G18G17G15G14
  22854390.479    -6803985.30249  -5285087.41846  22854390.245    22854399.339
  21033346.534    -1191820.30149   -803138.75547  21033346.237    21033353.721
  22476237.580     6141823.97849   4779162.13246  22476237.344    22476245.024
  22014541.780    -3425268.24549  -2650643.56647  22014541.780    22014550.394
  23144001.863    -3907687.42949  -3032012.74846  23144001.951    23144010.203
  21290724.077     2863808.53349   2227206.22847  21290723.928    21290730.238
  23824372.874     7712946.40749   6001437.05445  23824372.610    23824384.339
  20178333.101    -1456024.95649  -1131320.82048  20178332.711    20178340.221
  20971729.832    -8867764.69049  -6886204.27247  20971729.674    20971736.794
 03  6  9 20 13  0.0000000  0  9G31G23G21G 3G 9G18G17G15G14
  22847375.887    -6840847.37049  -5313811.10746  22847375.671    22847384.768
  21035315.580    -1181472.90349   -795075.85147  21035315.284    21035322.779
  22491902.844     6224144.76849   4843308.09746  22491902.590    22491910.255
  22016724.184    -3413799.87849  -2641707.22247  22016724.159    22016732.791
  23143113.670    -3912355.09749  -3035649.88446  23143113.736    23143122.031
  21299583.650     2910365.90549   2263484.67647  21299583.505    21299589.838
  23841986.912     7805507.65849   6073562.51845  23841986.566    23841998.364
  20182335.099    -1434994.58949  -1114933.54348  20182334.700    20182342.223
  20959768.921    -8930619.45049  -6935181.96247  20959768.754    20959775.860
 03  6  9 20 13 30.0000000  0  9G31G23G21G 3G 9G18G17G15G14
  22840466.269    -6877157.96849  -5342105.08746  22840466.065    22840475.078
  21037315.160    -1170965.04049   -786887.91147  21037314.860    21037322.374
  22507624.322     6306761.32949   4907684.53046  22507624.056    22507631.707
  22019011.100    -3401782.09149  -2632342.75747  22019011.086    22019019.770
  23142338.208    -3916430.13849  -3038825.24046  23142338.243    23142346.514
  21308475.043     2957090.35149   2299893.31847  21308474.880    21308481.258
  23859644.256     7898296.56049   6145865.36145  23859643.992    23859655.727
  20186423.146    -1413511.84249  -1098193.75748  20186422.730    20186430.258
  20947897.195    -8993005.69049  -6983794.57247  20947897.043    20947904.109
 03  6  9 20 14  0.0000000  0  9G31G23G21G 3G 9G18G17G15G14
  22833661.791    -6912915.96549  -5369968.45946  22833661.615    22833670.529
  21039345.191    -1160297.16149   -778575.28247  21039344.885    21039352.413
  22523402.062     6389672.94549   4972290.88046  22523401.763    22523409.332
  22021402.513    -3389215.27749  -2622550.47547  22021402.500    22021411.191
  23141675.626    -3919911.79249  -3041538.21446  23141675.661    23141684.025
  21317398.046     3003981.09549   2336431.53947  21317397.892    21317404.284
  23877344.748     7991312.21349   6218344.88945  23877344.348    23877356.075
  20190597.362    -1391576.30449  -1081101.14748  20190596.941    20190604.484
  20936114.881    -9054922.02849  -7032041.01847  20936114.700    20936121.773
 03  6  9 20 14 30.0000000  0  9G31G23G21G 3G 9G18G17G15G14
  22826962.747    -6948120.21749  -5397400.33946  22826962.463    22826971.446
  21041405.498    -1149470.10349   -770138.62047  21041405.198    21041412.719
  22539235.759     6472878.92249   5037126.59146  22539235.471    22539243.023
  22023898.236    -3376100.42349  -2612331.15747  22023898.212    22023906.889
  23141126.214    -3922798.78149  -3043787.81846  23141126.261    23141134.596
  21326352.646     3051037.63849   2373098.95247  21326352.483    21326358.909
  23895088.222     8084553.98849   6291000.59945  23895087.864    23895099.521
  20194857.884    -1369187.19649  -1063655.11148  20194857.471    20194865.035
  20924422.233    -9116367.09449  -7079920.24447  20924422.064    20924429.112
 03  6  9 20 15  0.0000000  0  9G31G23G21G 3G 9G18G17G15G14
  22820368.996    -6982770.17049  -5424400.29946  22820368.748    22820377.773
  21043495.927    -1138484.86449   -761578.69747  21043495.621    21043503.128
  22555125.162     6556377.92349   5102190.64846  22555124.892    22555132.462
  22026497.973    -3362438.83749  -2601685.81147  22026497.973    22026506.647
  23140690.023    -3925090.75849  -3045573.76346  23140690.094    23140698.438
  21335338.609     3098259.00449   2409894.80047  21335338.432    21335344.839
  23912874.392     8178020.02749   6363831.08845  23912873.992    23912885.649
  20199204.720    -1346344.48349  -1045855.61448  20199204.312    20199211.880
  20912819.399    -9177340.15749  -7127431.67247  20912819.227    20912826.283
 03  6  9 20 15 30.0000000  0  9G31G23G21G 3G 9G18G17G15G14
  22813881.048    -7016864.48949  -5450967.31246  22813880.839    22813889.859
  21045616.419    -1127341.63449   -752895.66947  21045616.103    21045623.591
  22571070.186     6640169.21149   5167482.43646  22571069.933    22571077.540
  22029201.612    -3348231.19049  -2590614.97047  22029201.601    22029210.328
  23140367.371    -3926786.37449  -3046895.01346  23140367.427    23140375.753
  21344355.837     3145644.67249   2446818.67747  21344355.670    21344362.056
  23930703.088     8271709.69949   6436835.81945  23930702.700    23930714.500
  20203638.069    -1323047.24249  -1027701.94248  20203637.643    20203645.239
  20901306.715    -9237839.49449  -7174573.96447  20901306.547    20901313.601
 03  6  9 20 16  0.0000000  0  9G31G23G21G 3G 9G18G17G15G14
  22807499.012    -7050402.44049  -5477100.78746  22807498.787    22807507.806
  21047766.851    -1116041.25249   -744090.18247  21047766.534    21047773.961
  22587070.701     6724251.76949   5233001.18846  22587070.426    22587077.998
  22032009.085    -3333478.36149  -2579119.31847  22032009.048    22032017.789
  23140158.315    -3927885.03749  -3047751.11846  23140158.342    23140166.704
  21353404.185     3193193.81249   2483869.92747  21353403.996    21353410.363
  23948574.137     8365622.18549   6510014.15545  23948573.737    23948585.672
  20208158.037    -1299294.87049  -1009193.62648  20208157.604    20208165.212
  20889884.382    -9297864.07249  -7221346.32147  20889884.204    20889891.245
 03  6  9 20 16 30.0000000  0  9G31G23G21G 3G 9G18G17G15G14
  22801222.939    -7083383.17449  -5502800.07546  22801222.702    22801231.744
  21049946.986    -1104584.57649   -735162.91147  21049946.675    21049954.074
  22603126.410     6808624.60149   5298746.13846  22603126.131    22603133.725
  22034920.038    -3318181.48749  -2567199.73847  22034920.002    22034928.789
  23140062.944    -3928386.24649  -3048141.67346  23140062.908    23140071.333
  21362483.474     3240905.94749   2521048.18547  21362483.321    21362489.654
  23966487.327     8459756.00049   6583364.95545  23966486.867    23966499.014
  20212764.579    -1275087.35149   -990330.65748  20212764.155    20212771.754
  20878552.619    -9357412.74149  -7267747.84047  20878552.439    20878559.463
 03  6  9 20 17  0.0000000  0  9G31G23G21G 3G 9G18G17G15G14
  22795053.190    -7115805.76449  -5528064.43846  22795052.913    22795061.927
  21052156.749    -1092972.18749   -726114.29847  21052156.435    21052163.840
  22619237.121     6893286.66249   5364716.44946  22619236.818    22619244.494
  22037934.283    -3302341.51249  -2554856.94947  22037934.275    22037943.083
  23140081.485    -3928289.26449  -3048066.10046  23140081.465    23140089.808
  21371593.661     3288780.14649   2558352.73647  21371593.494    21371599.831
  23984442.476     8554110.59049   6656887.80745  23984442.155    23984454.116
  20217457.827    -1250424.08949   -971112.54748  20217457.415    20217465.018
  20867311.643    -9416484.37349  -7313777.64047  20867311.461    20867318.488
 03  6  9 20 17 30.0000000  0  9G31G23G21G 3G 9G18G17G15G14
  22788989.768    -7147669.30749  -5552893.18046  22788989.481    22788998.544
  21054396.043    -1081204.82949   -716944.93847  21054395.735    21054403.117
  22635402.652     6978236.84749   5430911.27646  22635402.367    22635410.119
  22041051.684    -3285959.69349  -2542091.95647  22041051.667    22041060.536
  23140213.948    -3927593.30549  -3047523.77346  23140213.914    23140222.300
  21380734.557     3336815.78149   2595783.08047  21380734.405    21380740.700
  24002439.387     8648684.55049   6730581.56945  24002439.007    24002451.275
  20222237.905    -1225304.84749   -951539.13248  20222237.486    20222245.068
  20856161.682    -9475077.73249  -7359434.76347  20856161.510    20856168.496
 03  6  9 20 18  0.0000000  0  9G31G23G21G 3G 9G18G17G15G14
  22783032.912    -7178972.70149  -5577285.44246  22783032.635    22783041.657
  21056664.742    -1069282.61449   -707654.90547  21056664.435    21056671.828
  22651622.994     7063474.74549   5497330.28346  22651622.678    22651630.439
  22044272.056    -3269036.68949  -2528905.25947  22044272.038    22044280.919
  23140460.600    -3926297.43949  -3046514.00346  23140460.553    23140468.867
  21389906.138     3385012.54349   2633338.97747  21389905.966    21389912.275
  24020477.778     8743477.04849   6804445.61445  24020477.549    24020489.998
  20227104.923    -1199728.64449   -931609.64348  20227104.487    20227112.062
  20845102.989    -9533191.54449  -7404718.21147  20845102.806    20845109.751
 03  6  9 20 18 30.0000000  0  9G31G23G21G 3G 9G18G17G15G14
  22777182.793    -7209715.32249  -5601240.74446  22777182.555    22777191.515
  21058962.778    -1057206.28549   -698244.78747  21058962.494    21058969.908
  22667897.877     7148999.15549   5563972.56146  22667897.531    22667905.274
  22047595.270    -3251573.50049  -2515297.64047  22047595.247    22047604.061
  23140821.408    -3924401.17949  -3045036.38946  23140821.403    23140829.674
  21399108.289     3433369.96349   2671020.05447  21399108.106    21399114.439
  24038557.604     8838486.84349   6878478.98345  24038557.432    24038570.048
  20232058.964    -1173695.33949   -911323.97048  20232058.497    20232066.052
  20834135.742    -9590824.57849  -7449627.02947  20834135.558    20834142.497
 03  6  9 20 19  0.0000000  0  9G31G23G21G 3G 9G18G17G15G14
  22771439.531    -7239896.53549  -5624758.56946  22771439.271    22771448.277
  21061289.963    -1044976.82349   -688715.33947  21061289.693    21061297.120
  22684226.978     7234808.78049   5630837.09646  22684226.687    22684234.446
  22051021.021    -3233571.49149  -2501270.15347  22051020.976    22051029.826
  23141296.533    -3921903.97949  -3043090.51646  23141296.584    23141304.924
  21408340.741     3481886.81949   2708825.37147  21408340.584    21408346.925
  24056678.601     8933712.55449   6952680.60745  24056678.308    24056691.009
  20237099.971    -1147204.66049   -890681.90048  20237099.518    20237107.055
  20823260.172    -9647975.97749  -7494160.54447  20823259.987    20823266.888
 03  6  9 20 19 30.0000000  0  9G31G23G21G 3G 9G18G17G15G14
  22765803.204    -7269515.38549  -5647838.20846  22765802.943    22765811.996
  21063646.215    -1032594.82149   -679067.02747  21063645.941    21063653.378
  22700610.260     7320902.94049   5697923.35146  22700609.954    22700617.797
  22054549.022    -3215031.84149  -2486823.73047  22054548.983    22054557.855
  23141886.188    -3918805.30049  -3040675.96146  23141886.176    23141894.486
  21417603.435     3530562.41949   2746754.38747  21417603.272    21417609.672
  24074840.579     9029153.42849   7027049.90645  24074840.164    24074853.065
  20242228.103    -1120256.04849   -869682.99548  20242227.677    20242235.249
  20812476.474    -9704644.56249  -7538317.83647  20812476.283    20812483.167
 03  6  9 20 20  0.0000000  0  9G31G23G21G 3G 9G18G17G15G14
  22760273.986    -7298571.38449  -5670479.25246  22760273.760    22760282.909
  21066031.305    -1020060.90049   -669300.34247  21066031.030    21066038.503
  22717047.389     7407280.21849   5765230.18446  22717047.075    22717054.967
  22058179.138    -3195955.61649  -2471959.19747  22058179.130    22058188.002
  23142590.306    -3915104.65849  -3037792.33945  23142590.268    23142598.680
  21426896.192     3579396.26249   2784806.70647  21426896.019    21426902.455
  24093043.304     9124808.18749   7101585.84945  24093043.012    24093055.979
  20247443.443    -1092849.20349   -848327.03048  20247443.017    20247450.646
  20801784.826    -9760829.38349  -7582098.17447  20801784.654    20801791.522
 03  6  9 20 20 30.0000000  0  9G31G23G21G 3G 9G18G17G15G14
  22754852.104    -7327063.63949  -5692681.00946  22754851.894    22754861.017
  21068445.225    -1007375.67149   -659415.74947  21068444.959    21068452.441
  22733538.245     7493939.90949   5832757.09846  22733538.019    22733545.819
  22061911.188    -3176344.02349  -2456677.48747  22061911.187    22061920.063
  23143409.176    -3910801.59049  -3034439.28445  23143409.112    23143417.475
  21436218.956     3628387.72449   2822981.85147  21436218.775    21436225.233
  24111286.534     9220675.69049   7176287.59045  24111286.183    24111299.163
  20252746.014    -1064983.93349   -826613.84448  20252745.586    20252753.254
  20791185.418    -9816529.34649  -7625500.69947  20791185.232    20791192.151
 03  6  9 20 21  0.0000000  0  9G31G23G21G 3G 9G18G17G15G14
  22749537.579    -7354991.32449  -5714442.85546  22749537.393    22749546.547
  21070887.871     -994539.49449   -649413.54547  21070887.608    21070895.111
  22750082.655     7580880.82349   5900503.15046  22750082.435    22750090.283
  22065744.911    -3156198.01249  -2440979.35447  22065744.922    22065753.797
  23144342.781    -3905895.33549  -3030616.23545  23144342.755    23144351.165
  21445571.683     3677536.64949   2861279.69447  21445571.540    21445577.991
  24129569.927     9316754.89249   7251154.25645  24129569.735    24129582.572
  20258135.934    -1036659.66149   -804543.00648  20258135.525    20258143.224
  20780678.495    -9871743.22549  -7668524.46147  20780678.336    20780685.285
 03  6  9 20 21 30.0000000  0  9G31G23G21G 3G 9G18G17G15G14
  22744330.674    -7382353.93649  -5735764.37846  22744330.448    22744339.602
  21073359.069     -981553.28649   -639294.43047  21073358.807    21073366.324
  22766680.291     7668101.72349   5968467.37146  22766680.085    22766688.023
  22069680.017    -3135518.96949  -2424865.87347  22069680.038    22069688.949
  23145391.203    -3900385.61949  -3026322.94445  23145391.158    23145399.565
  21454954.181     3726841.99249   2899699.42447  21454954.064    21454960.498
  24147893.531     9413044.57249   7326184.94245  24147893.470    24147906.249
  20263613.248    -1007876.21449   -782114.35748  20263612.863    20263620.579
  20770264.173    -9926470.41049  -7711168.98247  20770264.056    20770271.064
 03  6  9 20 22  0.0000000  0  9G31G23G21G 3G 9G18G17G15G14
  22739231.424    -7409150.67349  -5756644.96546  22739231.218    22739240.328
  21075858.754     -968417.39549   -629058.68047  21075858.517    21075865.984
  22783331.110     7755601.98349   6036649.26146  22783330.908    22783338.935
  22073716.368    -3114307.87449  -2408337.80647  22073716.404    22073725.330
  23146554.708    -3894271.59349  -3021558.76546  23146554.624    23146562.996
  21464366.357     3776303.20249   2938240.60247  21464366.228    21464372.670
  24166256.956     9509544.05149   7401379.09145  24166256.998    24166269.789
  20269177.999     -978633.24049   -759327.64048  20269177.630    20269185.348
  20759942.816    -9980709.38749  -7753433.08147  20759942.681    20759949.697
 03  6  9 20 22 30.0000000  0  9G31G23G21G 3G 9G18G17G15G14
  22734239.939    -7435381.28249  -5777084.41846  22734239.733    22734248.844
  21078386.745     -955132.84949   -618707.08747  21078386.487    21078393.948
  22800034.892     7843380.18549   6105047.73146  22800034.654    22800042.781
  22077853.674    -3092566.51449  -2391396.55147  22077853.660    22077862.591
  23147833.112    -3887553.45249  -3016323.84346  23147833.118    23147841.445
  21473808.038     3825919.23449   2976902.42747  21473807.892    21473814.316
  24184659.982     9606251.51549   7476735.28745  24184659.988    24184672.823
  20274830.203     -948930.78849   -736182.88648  20274829.807    20274837.541
  20749714.499   -10034459.55749  -7795316.29147  20749714.372    20749721.321
 03  6  9 20 23  0.0000000  0  9G31G23G21G 3G 9G18G17G15G14
  22729356.363    -7461044.97449  -5797082.11546  22729356.164    22729365.185
  21080942.958     -941700.01549   -608239.94647  21080942.697    21080950.131
  22816791.309     7931435.38749   6173662.03546  22816791.014    22816799.264
  22082091.627    -3070295.81549  -2374042.81147  22082091.626    22082100.599
  23149226.672    -3880230.63649  -3010617.75846  23149226.683    23149235.011
  21483279.093     3875689.80449   3015684.66947  21483278.945    21483285.356
  24203102.335     9703165.53949   7552252.45945  24203102.071    24203115.087
  20280569.928     -918768.40149   -712679.73948  20280569.554    20280577.277
  20739579.392   -10087719.91049  -7836817.82548  20739579.238    20739586.164
 03  6  9 20 23 30.0000000  0  9G31G23G21G 3G 9G18G17G15G14
  22724580.773    -7486140.84149  -5816637.36046  22724580.590    22724589.642
  21083527.343     -928119.07449   -597657.40347  21083527.068    21083534.490
  22833600.207     8019766.52849   6242491.35346  22833599.937    22833608.231
  22086430.176    -3047496.74249  -2356277.36647  22086430.162    22086439.167
  23150735.425    -3872302.28149  -3004439.82446  23150735.349    23150743.710
  21492779.508     3925614.65149   3054587.12247  21492779.368    21492785.763
  24221584.039     9800286.04049   7627930.50745  24221583.736    24221596.787
  20286397.320     -888145.44049   -688817.71448  20286396.940    20286404.631
  20729537.715   -10140489.11449  -7877936.64748  20729537.560    20729544.455
 03  6  9 20 24  0.0000000  0  9G31G23G21G 3G 9G18G17G15G14
  22719913.266    -7510668.65049  -5835749.95446  22719913.091    22719922.170
  21086139.756     -914390.98849   -586960.20047  21086139.489    21086146.878
  22850461.422     8108372.27349   6311534.67446  22850461.175    22850469.413
  22090868.953    -3024171.04949  -2338101.57347  22090868.940    22090877.954
  23152359.347    -3863768.50349  -2997790.13346  23152359.265    23152367.724
  21502309.100     3975692.89649   3093609.10747  21502308.961    21502315.340
  24240104.695     9897611.40749   7703768.15745  24240104.484    24240117.483
  20292312.360     -857061.97349   -664596.84548  20292311.965    20292319.651
  20719589.649   -10192766.62149  -7918672.32748  20719589.487    20719596.342
 03  6  9 20 24 30.0000000  0  9G31G23G21G 3G 9G18G17G15G14
  22715354.032    -7534627.76049  -5854419.41646  22715353.908    22715362.929
  21088780.047     -900516.19849   -576148.68147  21088779.762    21088787.157
  22867374.777     8197251.87749   6380791.36646  22867374.495    22867382.792
  22095407.725    -3000319.93449  -2319516.35147  22095407.688    22095416.668
  23154098.505    -3854628.83649  -2990668.32245  23154098.391    23154106.983
  21511867.825     4025924.30549   3132750.44847  21511867.674    21511874.039
  24258664.171     9995140.56849   7779764.63945  24258663.886    24258676.843
  20298315.059     -825517.63849   -640016.86748  20298314.659    20298322.324
  20709735.321   -10244551.37649  -7959024.04948  20709735.149    20709741.976
 03  6  9 20 25  0.0000000  0  8G31G23G21G 3G 9G18G15G14
  22710903.444    -7558015.92849  -5872643.99246  22710903.299    22710912.396
  21091448.557     -886493.43849   -565221.86647  21091448.264    21091455.618
  22884340.285     8286405.87549   6450261.87246  22884340.041    22884348.374
  22100046.592    -2975943.06949  -2300521.46947  22100046.556    22100055.462
  23155953.395    -3844881.02149  -2983072.63045  23155953.297    23155962.051
  21521455.854     4076309.64049   3172011.72247  21521455.706    21521462.040
  20304405.798     -793510.72849   -615076.44948  20304405.383    20304413.055
  20699975.296   -10295840.76449  -7998989.77648  20699975.125    20699981.901
 03  6  9 20 25 30.0000000  0  8G31G23G21G 3G 9G18G15G14
  22706562.120    -7580829.81649  -5890421.08446  22706561.984    22706571.068
  21094145.592     -872320.52349   -554178.04447  21094145.297    21094152.647
  22901358.333     8375835.88749   6519947.43346  22901358.099    22901366.525
  22104785.819    -2951038.92849  -2281115.71347  22104785.775    22104794.643
  23157924.623    -3834522.12649  -2975000.79246  23157924.552    23157933.223
  21531073.632     4126851.42849   3211394.90547  21531073.468    21531079.812
  20310585.142     -761038.04449   -589773.08248  20310584.735    20310592.422
  20690310.187   -10346631.20449  -8038566.71348  20690310.016    20690316.736
 03  6  9 20 26  0.0000000  0  8G31G23G21G 3G 9G18G15G14
  22702328.743    -7603076.69549  -5907756.35146  22702328.555    22702337.591
  21096869.650     -858005.58149   -543023.55347  21096869.351    21096876.695
  22918427.239     8465532.98849   6589841.12146  22918427.023    22918435.474
  22109623.528    -2925616.70849  -2261306.27247  22109623.496    22109632.381
  23160010.702    -3823559.64049  -2966458.61146  23160010.688    23160019.284
  21540719.563     4177541.17449   3250893.38447  21540719.390    21540725.758
  20316851.720     -728106.97349   -564112.53348  20316851.317    20316859.014
  20680738.761   -10396929.32849  -8077760.02848  20680738.593    20680745.272
 03  6  9 20 26 30.0000000  0  8G31G23G21G 3G 9G18G15G14
  22698203.466    -7624755.31249  -5924648.81646  22698203.311    22698212.304
  21099620.785     -843548.34049   -531758.17747  21099620.507    21099627.827
  22935547.011     8555496.94349   6659942.74946  22935546.791    22935555.204
  22114559.770    -2899676.78449  -2241093.41747  22114559.789    22114568.698
  23162211.852    -3811992.77049  -2957445.48146  23162211.884    23162220.336
  21550393.735     4228379.42149   3290507.57847  21550393.583    21550399.974
  20323205.735     -694716.33349   -538093.88648  20323205.348    20323213.078
  20671261.323   -10446733.44749  -8116568.40248  20671261.154    20671267.810
 03  6  9 20 27  0.0000000  0  8G31G23G21G 3G 9G18G15G14
  22694186.731    -7645863.71249  -5941096.94746  22694186.551    22694195.508
  21102399.135     -828948.04949   -520381.33347  21102398.833    21102406.187
  22952717.602     8645728.23049   6730252.69446  22952717.344    22952725.782
  22119594.554    -2873219.23349  -2220477.22447  22119594.533    22119603.498
  23164528.423    -3799819.64749  -2947959.93946  23164528.421    23164536.810
  21560096.333     4279366.96349   3330238.10947  21560096.186    21560102.594
  20329647.474     -660864.89249   -511716.17148  20329647.078    20329654.828
  20661878.319   -10496041.47949  -8154990.21348  20661878.139    20661884.802
 03  6  9 20 27 30.0000000  0  8G31G23G21G 3G 9G18G15G14
  22690278.619    -7666401.07449  -5957100.12046  22690278.427    22690287.412
  21105204.694     -814204.73349   -508893.04047  21105204.401    21105211.740
  22969938.887     8736226.37349   6800770.58846  22969938.662    22969947.108
  22124727.584    -2846245.06549  -2199458.46047  22124727.570    22124736.586
  23166960.424    -3787039.69649  -2938001.55246  23166960.447    23166968.695
  21569827.348     4330503.66749   3370084.87047  21569827.219    21569833.622
  20336177.067     -626551.89049   -484978.78948  20336176.658    20336184.419
  20652589.923   -10544852.15749  -8193024.47448  20652589.740    20652596.390
 03  6  9 20 28  0.0000000  0  8G31G23G21G 3G 9G18G15G14
  22686479.270    -7686366.95049  -5972657.96246  22686479.107    22686488.064
  21108037.373     -799318.79049   -497293.60647  21108037.090    21108044.466
  22987210.794     8826990.03249   6871495.37246  22987210.525    22987219.061
  22129958.758    -2818755.55349  -2178038.13447  22129958.728    22129967.739
  23169507.960    -3773652.89449  -2927570.28446  23169507.943    23169516.188
  21579586.715     4381789.19849   3410047.60447  21579586.573    21579592.988
  20342794.544     -591776.90049   -457881.42148  20342794.127    20342801.884
  20643396.338   -10593164.46749  -8230670.39548  20643396.154    20643402.812
 03  6  9 20 28 30.0000000  0  8G31G23G21G 3G 9G18G15G14
  22682788.819    -7705760.82049  -5987770.09846  22682788.582    22682797.581
  21110897.111     -784290.61149   -485583.34647  21110896.830    21110904.216
  23004532.894     8918017.86849   6942425.99946  23004532.603    23004541.279
  22135287.680    -2790752.13549  -2156217.36947  22135287.649    22135296.702
  23172170.956    -3759658.94549  -2916665.91446  23172170.900    23172179.111
  21589374.309     4433223.14349   3450125.97447  21589374.147    21589380.580
  20349499.986     -556539.85949   -430424.01848  20349499.564    20349507.305
  20634297.842   -10640977.34749  -8267927.15248  20634297.663    20634304.306
 03  6  9 20 29  0.0000000  0  8G31G23G21G 3G 9G18G15G14
  22679207.267    -7724582.12449  -6002436.06946  22679207.051    22679216.039
  21113783.902     -769120.41149   -473762.41847  21113783.612    21113790.991
  23021905.169     9009309.32249   7013562.03746  23021904.927    23021913.544
  22140714.132    -2762236.20349  -2133997.24247  22140714.102    22140723.194
  23174949.535    -3745057.39649  -2905288.10346  23174949.536    23174957.748
  21599190.059     4484805.09149   3490319.67947  21599189.892    21599196.336
  20356293.430     -520840.38349   -402606.27548  20356292.992    20356300.700
  20625294.507   -10688290.17149  -8304794.25448  20625294.316    20625300.983
 03  6  9 20 29 30.0000000  0  8G31G23G21G 3G 9G18G15G14
  22675734.727    -7742830.70749  -6016655.76246  22675734.466    22675743.464
  21116697.667     -753808.63049   -461831.16547  21116697.345    21116704.747
  23039327.413     9100863.01649   7084902.41846  23039327.155    23039335.775
  22146237.828    -2733209.45549  -2111379.06847  22146237.788    22146246.889
  23177843.681    -3729848.23449  -2893436.81546  23177843.653    23177851.969
  21609033.831     4536534.35749   3530628.18047  21609033.667    21609040.085
  20363174.880     -484678.36349   -374428.09848  20363174.428    20363182.116
  20616386.443   -10735102.17149  -8341271.10048  20616386.243    20616392.901
 03  6  9 20 30  0.0000000  0  8G31G23G21G 3G 9G18G15G14
  22672371.138    -7760506.61949  -6030429.22046  22672370.894    22672379.886
  21119638.151     -738356.15349   -449790.27647  21119637.829    21119645.237
  23056799.322     9192677.48649   7156446.00846  23056799.011    23056807.552
  22151858.416    -2703673.52149  -2088364.13847  22151858.357    22151867.461
  23180853.378    -3714031.83949  -2881112.35546  23180853.409    23180861.782
  21618905.544     4588410.35749   3571051.01747  21618905.363    21618911.799
  20370144.284     -448054.00949   -345889.67048  20370143.843    20370151.515
  20607573.771   -10781413.03849  -8377357.45748  20607573.554    20607580.213
 03  6  9 20 30 30.0000000  0  8G31G23G21G 3G 9G18G15G14
  22669116.617    -7777609.40249  -6043756.08246  22669116.377    22669125.377
  21122605.385     -722763.26049   -437639.97247  21122605.045    21122612.473
  23074320.633     9284751.75549   7228192.03746  23074320.270    23074328.916
  22157575.595    -2673629.80949  -2064953.53447  22157575.530    22157584.669
  23183978.724    -3697608.43149  -2868314.90246  23183978.725    23183987.052
  21628805.126     4640432.87649   3611588.03147  21628804.930    21628811.403
  20377201.673     -410967.24249   -316990.91548  20377201.237    20377208.906
  20598856.609   -10827221.73449  -8413052.50648  20598856.399    20598863.041
 03  6  9 20 31  0.0000000  0  8G31G23G21G 3G 9G18G15G14
  22665971.202    -7794138.91949  -6056636.25546  22665970.895    22665979.955
  21125599.208     -707030.64449   -425380.79947  21125598.882    21125606.316
  23091891.058     9377084.40949   7300139.39546  23091890.697    23091899.300
  22163389.042    -2643080.10349  -2041148.65247  22163388.995    22163398.146
  23187219.512    -3680577.75149  -2855044.24945  23187219.492    23187227.902
  21638732.463     4692601.14649   3652238.60947  21638732.257    21638738.768
  20384347.025     -373418.29649   -287732.02848  20384346.580    20384354.231
  20590235.133   -10872527.73449  -8448355.85448  20590234.927    20590241.539
 03  6  9 20 31 30.0000000  0  8G31G23G21G 3G 9G18G15G14
  22662934.928    -7810094.62549  -6069069.30246  22662934.637    22662943.728
  21128619.579     -691158.38549   -413012.81447  21128619.261    21128626.706
  23109510.532     9469674.50449   7372287.35346  23109510.159    23109518.796
  22169298.527    -2612025.66149  -2016950.47747  22169298.494    22169307.657
  23190575.975    -3662939.42649  -2841300.12045  23190575.998    23190584.294
  21648687.453     4744914.88149   3693002.53447  21648687.255    21648693.765
  20391580.477     -335406.47749   -258112.45248  20391580.033    20391587.696
  20581709.511   -10917330.14149  -8483266.78748  20581709.299    20581715.891
 03  6  9 20 32  0.0000000  0  8G31G23G21G 3G 9G18G15G14
  22660007.826    -7825476.75149  -6081055.40346  22660007.563    22660016.601
  21131666.464     -675147.04049   -400536.45147  21131666.112    21131673.555
  23127178.717     9562520.50449   7444634.70746  23127178.377    23127186.900
  22175303.747    -2580468.47649  -1992360.55047  22175303.696    22175312.859
  23194047.966    -3644694.17349  -2827083.06545  23194047.915    23194056.179
  21658670.060     4797373.48949   3733879.35047  21658669.855    21658676.352
  20398901.915     -296932.30549   -228132.61048  20398901.464    20398909.131
  20573279.790   -10961628.47249  -8517784.93448  20573279.585    20573286.177
 03  6  9 20 32 30.0000000  0  8G31G23G21G 3G 9G18G15G14
  22657189.967    -7840285.09549  -6092594.39446  22657189.674    22657198.651
  21134739.685     -658997.31449   -387952.25747  21134739.344    21134746.783
  23144895.361     9655621.36749   7517180.67046  23144895.042    23144903.472
  22181404.366    -2548409.92449  -1967379.94447  22181404.293    22181413.460
  23197635.321    -3625842.10049  -2812393.14445  23197635.292    23197643.582
  21668680.058     4849976.38049   3774868.58947  21668679.855    21668686.375
  20406311.327     -257995.68249   -197792.41448  20406310.875    20406318.543
  20564946.137   -11005422.25549  -8551909.92448  20564945.924    20564952.487
 03  6  9 20 33  0.0000000  0  8G31G23G21G 3G 9G18G15G14
  22654481.293    -7854519.47149  -6103686.14246  22654481.019    22654489.906
  21137839.166     -642709.63349   -375260.56647  21137838.829    21137846.255
  23162660.238     9748975.90949   7589924.30545  23162659.914    23162668.490
  22187599.976    -2515851.93249  -1942010.17047  22187599.934    22187609.107
  23201338.270    -3606383.44149  -2797230.58245  23201338.277    23201346.414
  21678717.425     4902723.12449   3815969.92047  21678717.216    21678723.738
  20413808.774     -218596.62249   -167091.88748  20413808.305    20413815.969
  20556708.553   -11048710.97249  -8585641.35848  20556708.327    20556714.882
 03  6  9 20 33 30.0000000  0  8G31G23G21G 3G 9G18G15G14
  22651881.812    -7868179.68549  -6114330.47746  22651881.589    22651890.484
  21140964.820     -626284.20449   -362461.53947  21140964.465    21140971.911
  23180473.070     9842582.61249   7662864.42445  23180472.733    23180481.380
  22193890.402    -2482795.96549  -1916252.36047  22193890.379    22193899.559
  23205156.677    -3586317.98049  -2781595.17045  23205156.704    23205164.793
  21688782.083     4955613.15249   3857182.90247  21688781.889    21688788.391
  20421394.171     -178735.12749   -136031.01248  20421393.723    20421401.379
  20548567.238   -11091493.71149  -8618978.52548  20548567.033    20548573.575
 03  6  9 20 34  0.0000000  0  8G31G23G21G 3G 9G18G15G14
  22649391.587    -7881266.01349  -6124527.64446  22649391.332    22649400.254
  21144116.578     -609721.82449   -349555.79747  21144116.213    21144123.663
  23198333.695     9936440.26849   7736000.09745  23198333.317    23198342.176
  22200275.218    -2449244.12849  -1890108.15747  22200275.149    22200284.352
  23209090.372    -3565646.23749  -2765487.33245  23209090.421    23209098.527
  21698873.959     5008645.97449   3898507.16347  21698873.752    21698880.227
  20429067.583     -138411.40649   -104609.96148  20429067.121    20429074.759
  20540522.269   -11133770.19249  -8651921.20148  20540522.043    20540528.576
 03  6  9 20 34 30.0000000  0  8G31G23G21G 3G 9G18G15G14
  22647010.616    -7893778.16849  -6134277.38946  22647010.391    22647019.254
  21147294.333     -593022.74849   -336543.54247  21147293.973    21147301.412
  23216241.876    10030547.84649   7809330.48945  23216241.520    23216250.436
  22206754.091    -2415197.87549  -1863578.70447  22206754.044    22206763.231
  23213139.435    -3544368.65749  -2748907.41445  23213139.498    23213147.551
  21708992.924     5061821.27849   3939942.43847  21708992.717    21708999.162
  20436828.898      -97625.51649    -72828.78648  20436828.428    20436836.072
  20532573.735   -11175540.01349  -8684469.07548  20532573.505    20532580.040
 03  6  9 20 35  0.0000000  0  8G31G23G21G 3G 9G18G15G14
  22644738.964    -7905716.37449  -6143579.92646  22644738.663    22644747.540
  21150497.968     -576187.74049   -323425.36647  21150497.605    21150505.001
  23234197.305    10124903.61849   7882854.29145  23234196.930    23234205.895
  22213326.651    -2380659.31649  -1836665.62647  22213326.594    22213335.747
  23217303.625    -3522485.57949  -2731855.67545  23217303.595    23217311.781
  21719138.855     5115138.24349   3981488.10347  21719138.643    21719145.114
  20444678.169      -56377.47649    -40687.49248  20444677.714    20444685.341
  20524721.750   -11216802.66149  -8716621.75848  20524721.511    20524728.016
 03  6  9 20 35 30.0000000  0  8G31G23G21G 3G 9G18G15G14
  22642576.424    -7917080.46949  -6152435.09046  22642576.121    22642585.079
  21153727.439     -559216.80549   -310201.26947  21153727.060    21153734.446
  23252199.797    10219506.69849   7956570.81445  23252199.467    23252208.464
  22219992.598    -2345629.93049  -1809370.09547  22219992.539    22220001.742
  23221583.091    -3499996.97549  -2714332.10845  23221583.013    23221591.244
  21729311.679     5168596.85549   4023144.13847  21729311.451    21729317.987
  20452615.375      -14667.26649     -8186.06448  20452614.909    20452622.573
  20516966.362   -11257557.46449  -8748378.71548  20516966.090    20516972.593
 03  6  9 20 36  0.0000000  0  8G31G23G21G 3G 9G18G15G14
  22640523.189    -7927870.46249  -6160842.91546  22640522.882    22640531.901
  21156982.673     -542110.45349   -296871.66247  21156982.306    21156989.652
  23270249.100    10314355.61449   8030478.91045  23270248.772    23270257.798
  22226751.601    -2310111.60049  -1781693.56747  22226751.550    22226760.718
  23225977.634    -3476903.32649  -2696337.07645  23225977.481    23225985.840
  21739511.341     5222196.46049   4064910.03947  21739511.140    21739517.665
  20460640.497       27504.92049     24675.34648  20460640.034    20460647.718
  20509307.672   -11297804.00349  -8779739.62748  20509307.412    20509313.881
 03  6  9 20 36 30.0000000  0  8G31G23G21G 3G 9G18G15G14
  22638579.168    -7938086.30849  -6168803.34746  22638578.848    22638587.962
  21160263.608     -524868.99849   -283436.77347  21160263.255    21160270.583
  23288344.883    10409449.00249   8104577.46345  23288344.584    23288353.632
  22233603.311    -2274106.21549  -1753637.51147  22233603.226    22233612.390
  23230487.263    -3453204.78649  -2677870.68845  23230487.168    23230495.523
  21749737.777     5275936.83249   4106785.63047  21749737.590    21749744.124
  20468753.536       70139.11949     57896.76648  20468753.077    20468760.772
  20501745.807   -11337541.83049  -8810704.13848  20501745.547    20501752.003
 03  6  9 20 37  0.0000000  0  8G31G23G21G 3G 9G18G15G14
  22636744.455    -7947728.21149  -6176316.54846  22636744.147    22636753.231
  21163570.212     -507492.81749   -269896.90447  21163569.855    21163577.156
  23306487.014    10504785.66649   8178865.58545  23306486.734    23306495.845
  22240547.287    -2237615.79949  -1725203.51247  22240547.179    22240556.376
  23235111.983    -3428901.92949  -2658933.42445  23235111.916    23235120.282
  21759990.974     5329817.43349   4148770.48747  21759990.752    21759997.298
  20476954.439      113235.00649     91477.94048  20476953.990    20476961.686
  20494280.819   -11376770.40749  -8841271.83348  20494280.555    20494287.024
 03  6  9 20 37 30.0000000  0  8G31G23G21G 3G 9G18G15G14
  22635018.861    -7956796.15249  -6183382.50846  22635018.583    22635027.755
  21166902.399     -489982.16249   -256252.25347  21166902.049    21166909.307
  23324675.184    10600364.63349   8253342.51845  23324674.853    23324684.074
  22247583.221    -2200641.74849  -1696392.65247  22247583.129    22247592.398
  23239851.613    -3403994.84649  -2639525.32445  23239851.536    23239859.957
  21770270.779     5383838.01049   4190864.41547  21770270.545    21770277.146
  20485243.195      156792.66149    125418.94148  20485242.742    20485250.464
  20486912.858   -11415489.22049  -8871442.31048  20486912.596    20486919.053
 03  6  9 20 38  0.0000000  0  8G31G23G21G 3G 9G18G15G14
  22633402.476    -7965290.52249  -6190001.53746  22633402.192    22633411.388
  21170260.007     -472337.84049   -242503.43747  21170259.664    21170266.926
  23342909.183    10696184.05449   8328006.80445  23342908.850    23342918.091
  22254710.803    -2163186.26449  -1667206.65646  22254710.754    22254720.006
  23244706.204    -3378484.52249  -2619647.17745  23244706.115    23244714.368
  21780577.017     5437997.82749   4233066.84347  21780576.800    21780583.438
  20493619.760      200811.68449    159719.44347  20493619.303    20493627.051
  20479641.874   -11453698.26849  -8901215.56548  20479641.609    20479648.067
 03  6  9 20 38 30.0000000  0  8G31G23G21G 3G 9G18G15G14
  22631895.164    -7973211.51049  -6196173.77646  22631894.906    22631904.069
  21173643.003     -454560.14449   -228650.70347  21173642.672    21173649.950
  23361188.687    10792242.72249   8402857.53145  23361188.346    23361197.531
  22261929.671    -2125251.24949  -1637646.99546  22261929.607    22261938.834
  23249675.432    -3352371.23449  -2599299.17045  23249675.325    23249683.555
  21790909.667     5492296.18249   4275377.21947  21790909.467    21790916.110
  20502084.075      245291.87349    194379.29347  20502083.623    20502091.403
  20472467.967   -11491397.16449  -8930591.30448  20472467.716    20472474.169
 03  6  9 20 39  0.0000000  0  8G31G23G21G 3G 9G18G15G14
  22630496.976    -7980559.17049  -6201899.26346  22630496.723    22630505.812
  21177051.324     -436649.33649   -214694.24147  21177051.003    21177058.276
  23379513.501    10888539.17549   8477893.57545  23379513.110    23379522.264
  22269239.452    -2086838.34349  -1607714.95846  22269239.396    22269248.642
  23254759.278    -3325655.39849  -2578481.66545  23254759.205    23254767.450
  21801268.713     5546733.11749   4317795.57947  21801268.516    21801275.131
  20510636.081      290232.91849    229398.24947  20510635.622    20510643.434
  20465391.251   -11528585.41049  -8959569.13448  20465390.985    20465397.471
 03  6  9 20 39 30.0000000  0  8G31G23G21G 3G 9G18G15G14
  22629207.895    -7987333.53349  -6207178.02046  22629207.635    22629216.696
  21180484.923     -418605.78849   -200634.34647  21180484.586    21180491.883
  23397883.228    10985071.97749   8553113.73745  23397882.782    23397892.027
  22276639.823    -2047949.65749  -1577412.18347  22276639.723    22276649.042
  23259957.772    -3298337.57649  -2557195.07445  23259957.706    23259965.810
  21811654.026     5601308.04649   4360321.47047  21811653.806    21811660.395
  20519275.801      335634.76649    264776.28147  20519275.351    20519283.141
  20458411.820   -11565262.55849  -8988148.70848  20458411.576    20458418.059
 03  6  9 20 40  0.0000000  0  8G31G23G21G 3G 9G18G15G14
  22628027.803    -7993535.10849  -6212010.45546  22628027.552    22628036.644
  21183943.707     -400429.92949   -186471.33847  21183943.361    21183950.677
  23416297.668    11081840.01549   8628517.22445  23416297.314    23416306.530
  22284130.339    -2008587.05749  -1546740.11847  22284130.228    22284139.641
  23265270.608    -3270418.54149  -2535439.99345  23265270.469    23265278.587
  21822065.482     5656020.70949   4402954.68247  21822065.288    21822071.854
  20528003.118      381496.89049    300512.96547  20528002.669    20528010.458
  20451529.661   -11601428.46049  -9016329.90548  20451529.391    20451535.873
 03  6  9 20 40 30.0000000  0  8G31G23G21G 3G 9G18G15G14
  22626956.757    -7999163.80349  -6216396.49646  22626956.474    22626965.589
  21187427.646     -382121.80949   -172205.27747  21187427.289    21187434.629
  23434756.692    11178842.05149   8704103.05945  23434756.306    23434765.525
  22291710.707    -1968752.32749  -1515700.16947  22291710.619    22291720.067
  23270697.825    -3241898.44049  -2513216.54845  23270697.741    23270705.844
  21832503.146     5710870.96749   4445695.11447  21832502.953    21832509.524
  20536818.061      427819.62949    336608.56447  20536817.597    20536825.389
  20444744.906   -11637082.53149  -9044112.27448  20444744.648    20444751.122
 03  6  9 20 41  0.0000000  0  8G31G23G21G 3G 9G18G15G14
  22625994.529    -8004220.29649  -6220336.66846  22625994.260    22626003.390
  21190936.596     -363682.11949   -157836.69147  21190936.250    21190943.597
  23453260.024    11276076.59449   8779870.04945  23453259.626    23453268.856
  22299380.525    -1928447.69549  -1484294.05347  22299380.440    22299389.914
  23276239.214    -3212778.01249  -2490525.32245  23276239.155    23276247.278
  21842966.848     5765858.04049   4488542.15147  21842966.659    21842973.224
  20545720.548      474602.22949    373062.49147  20545720.074    20545727.871
  20438057.502   -11672224.91949  -9071495.93048  20438057.267    20438063.707
 03  6  9 20 41 30.0000000  0  8G31G23G21G 3G 9G18G15G14
  22625141.196    -8008705.05349  -6223831.32846  22625140.901    22625150.046
  21194470.497     -345111.41549   -143366.02247  21194470.144    21194477.523
  23471807.317    11373542.21649   8855817.11545  23471806.906    23471816.140
  22307139.354    -1887675.30649  -1452523.45847  22307139.248    22307148.752
  23281894.680    -3183058.23349  -2467367.07145  23281894.680    23281902.756
  21853456.551     5820981.32349   4531495.33147  21853456.327    21853462.868
  20554710.466      521844.31149    409874.46447  20554710.000    20554717.789
  20431467.523   -11706855.45249  -9098480.73448  20431467.270    20431473.690
 03  6  9 20 42  0.0000000  0  8G31G23G21G 3G 9G18G15G14
  22624396.588    -8012618.25549  -6226880.62246  22624396.317    22624405.425
  21198029.298     -326409.84149   -128793.37647  21198028.950    21198036.347
  23490398.161    11471237.01149   8931942.73945  23490397.765    23490407.013
  22314986.762    -1846437.21249  -1420389.97846  22314986.646    22314996.222
  23287664.147    -3152739.58349  -2443742.16345  23287664.126    23287672.351
  21863972.036     5876240.48949   4574554.38547  21863971.817    21863978.362
  20563787.744      569545.61349    447044.28047  20563787.276    20563795.083
  20424974.984   -11740973.86049  -9125066.47848  20424974.754    20424981.154
 03  6  9 20 42 30.0000000  0  8G31G23G21G 3G 9G18G15G14
  22623760.761    -8015959.89049  -6229484.54446  22623760.476    22623769.598
  21201612.984     -307577.41649   -114118.76647  21201612.629    21201620.054
  23509032.497    11569160.28049   9008246.39645  23509032.066    23509041.399
  22322922.453    -1804735.13749  -1387894.95746  22322922.332    22322931.967
  23293547.485    -3121822.54449  -2419650.96045  23293547.483    23293555.739
  21874513.341     5931635.42549   4617719.23547  21874513.150    21874519.672
  20572952.430      617706.20349    484571.97247  20572951.952    20572959.777
  20418580.045   -11774579.42149  -9151252.60148  20418579.811    20418586.209
 03  6  9 20 43  0.0000000  0  8G31G23G21G 3G 9G18G15G14
  22623233.555    -8018730.73349  -6231643.68546  22623233.192    22623242.301
  21205221.453     -288614.72649    -99342.65647  21205221.091    21205228.551
  23527709.937    11667310.41949   9084726.83445  23527709.475    23527718.966
  22330945.979    -1762571.26749  -1355040.09546  22330945.878    22330955.585
  23299544.513    -3090308.12749  -2395094.28045  23299544.491    23299552.797
  21885080.512     5987165.76349   4660989.59547  21885080.294    21885086.792
  20582204.346      666325.43649    522457.04647  20582203.887    20582211.748
  20412282.651   -11807672.40849  -9177039.31648  20412282.411    20412288.819
 03  6  9 20 43 30.0000000  0  8G31G23G21G 3G 9G18G15G14
  22622814.867    -8020930.95449  -6233358.20146  22622814.551    22622823.712
  21208854.682     -269522.02649    -84465.24347  21208854.336    21208861.827
  23546430.315    11765686.10849   9161383.00645  23546429.855    23546439.456
  22339056.998    -1719947.79749  -1321827.09946  22339056.923    22339066.669
  23305655.002    -3058196.98249  -2370072.62845  23305655.010    23305663.438
  21895673.319     6042831.08549   4704365.13847  21895673.121    21895679.568
  20591543.516      715402.88449    560699.17647  20591543.051    20591550.963
  20406082.807   -11840252.46749  -9202426.34648  20406082.573    20406088.975
 03  6  9 20 44  0.0000000  0  8G31G23G21G 3G 9G18G15G14
  22622504.773    -8022560.95449  -6234628.38346  22622504.426    22622513.562
  21212512.615     -250299.39049    -69486.57547  21212512.263    21212519.788
  23565193.338    11864286.10349   9238213.94745  23565192.967    23565202.651
  22347255.158    -1676866.56149  -1288257.41046  22347255.077    22347264.889
  23311879.041    -3025489.49749  -2344586.28545  23311879.122    23311887.460
  21906291.770     6098631.13949   4747845.65947  21906291.560    21906297.982
  20600969.800      764938.37649    599298.22147  20600969.346    20600977.287
  20399980.691   -11872319.38449  -9227413.52548  20399980.457    20399986.858
 03  6  9 20 44 30.0000000  0  8G31G23G21G 3G 9G18G15G14
  22622302.972    -8023621.41049  -6235454.77046  22622302.666    22622311.736
  21216195.177     -230947.55149    -54407.23347  21216194.804    21216202.358
  23583998.782    11963108.59849   9315218.28645  23583998.507    23584008.246
  22355540.022    -1633329.72649  -1254332.70046  22355539.952    22355549.758
  23318216.345    -2992187.05449  -2318636.35045  23318216.345    23318224.672
  21916935.787     6154565.58949   4791430.91047  21916935.581    21916941.977
  20610483.219      814931.35049    638253.74747  20610482.750    20610490.693
  20393976.207   -11903873.07849  -9252000.79248  20393975.964    20393982.357
 03  6  9 20 45  0.0000000  0  8G31G23G21G 3G 9G18G15G14
  22622209.543    -8024112.89049  -6235837.79346  22622209.171    22622218.250
  21219902.266     -211466.64149    -39227.31247  21219901.888    21219909.457
  23602846.235    12062151.95549   9392394.73245  23602845.979    23602855.721
  22363911.236    -1589339.45249  -1220054.66746  22363911.156    22363920.949
  23324666.633    -2958290.40349  -2292223.39445  23324666.659    23324674.955
  21927605.231     6210633.63949   4835120.27747  21927605.005    21927611.325
  20620083.591      865381.35049    677565.39247  20620083.123    20620091.052
  20388069.380   -11934913.63049  -9276188.20048  20388069.144    20388075.492
 03  6  9 20 45 30.0000000  0  8G31G23G21G 3G 9G18G15G14
  22622224.339    -8024035.52049  -6235777.55346  22622223.960    22622233.033
  21223633.915     -191856.68249    -23946.83547  21223633.544    21223641.095
  23621735.607    12161415.25849   9469742.53345  23621735.273    23621745.032
  22372368.318    -1544897.67649  -1185424.82346  22372368.232    22372378.052
  23331229.943    -2923800.01949  -2265347.79745  23331229.935    23331238.220
  21938300.128     6266835.44049   4878913.85347  21938299.901    21938306.223
  20629770.966      916288.55249    717233.30147  20629770.507    20629778.388
  20382260.235   -11965440.74549  -9299975.53348  20382260.015    20382266.346
 03  6  9 20 46  0.0000000  0  8G31G23G21G 3G 9G18G15G14
  22622346.934    -8023391.38649  -6235275.68946  22622346.595    22622355.641
  21227389.792     -172119.36349     -8567.12147  21227389.444    21227396.982
  23640666.278    12260895.70549   9547259.57045  23640665.917    23640675.745
  22380910.634    -1500007.81649  -1150445.81946  22380910.568    22380920.444
  23337905.764    -2888718.21649  -2238011.35445  23337905.804    23337914.164
  21949020.091     6323169.18749   4922810.24747  21949019.870    21949026.238
  20639544.926      967650.93549    757255.89947  20639544.461    20639552.346
  20376548.642   -11995455.51249  -9323363.63848  20376548.389    20376554.713
 03  6  9 20 46 30.0000000  0  8G31G23G21G 3G 9G18G15G14
  22622577.547    -8022179.31549  -6234331.27246  22622577.285    22622586.379
  21231170.165     -152253.47149      6912.78747  21231169.817    21231177.335
  23659638.246    12360593.35249   9624945.83745  23659637.862    23659647.761
  22389538.105    -1454670.61349  -1115118.24046  22389538.025    22389547.948
  23344694.253    -2853044.34049  -2210213.56345  23344694.335    23344702.711
  21959765.469     6379636.37249   4966810.62047  21959765.231    21959771.633
  20649405.742     1019469.52549    797633.97347  20649405.264    20649413.143
  20370934.773   -12024956.44449  -9346351.34748  20370934.526    20370940.855
 03  6  9 20 47  0.0000000  0  8G31G23G21G 3G 9G18G15G14
  22622916.240    -8020400.00749  -6232944.84746  22622915.971    22622925.069
  21234974.965     -132259.29149     22492.65447  21234974.603    21234982.116
  23678651.230    12460506.63649   9702800.12745  23678650.930    23678660.753
  22398250.238    -1408888.51449  -1079443.98446  22398250.184    22398260.067
  23351595.314    -2816779.43049  -2181955.22145  23351595.367    23351603.726
  21970536.147     6436236.44849   5010914.54247  21970535.924    21970542.333
  20659353.272     1071743.99849    838367.28447  20659352.798    20659360.683
  20365418.657   -12053943.59249  -9368938.70748  20365418.414    20365424.729
 03  6  9 20 47 30.0000000  0  8G31G23G21G 3G 9G18G15G14
  22623362.619    -8018054.51949  -6231117.24746  22623362.362    22623371.416
  21238804.049     -112137.40049     38172.03847  21238803.692    21238811.164
  23697704.890    12560633.64849   9780820.96845  23697704.651    23697714.491
  22407046.684    -1362663.86949  -1043424.89846  22407046.614    22407056.419
  23358608.522    -2779924.93149  -2153237.45545  23358608.552    23358616.994
  21981331.888     6492968.30849   5055121.15647  21981331.671    21981338.088
  20669387.378     1124473.28949    879455.00247  20669386.891    20669394.782
  20360000.250   -12082417.34449  -9391126.02248  20360000.005    20360006.328
 03  6  9 20 48  0.0000000  0  8G31G23G21G 3G 9G18G15G14
  22623916.667    -8015143.25249  -6228848.78246  22623916.399    22623925.491
  21242657.469      -91887.65249     53951.06047  21242657.114    21242664.569
  23716799.046    12660973.19149   9859007.40545  23716798.732    23716808.693
  22415926.943    -1315998.55849  -1007062.43946  22415926.846    22415936.628
  23365733.769    -2742481.62449  -2124060.88745  23365733.739    23365742.249
  21992152.813     6549832.23249   5099430.67747  21992152.579    21992158.988
  20679507.939     1177657.10349    920896.90747  20679507.465    20679515.353
  20354679.587   -12110377.53349  -9412913.15748  20354679.349    20354685.679
 03  6  9 20 48 30.0000000  0  8G31G23G21G 3G 9G18G15G14
  22624578.177    -8011667.03749  -6226140.08346  22624577.891    22624587.033
  21246535.049      -71510.77649     69829.13447  21246534.680    21246542.146
  23735933.311    12761523.50349   9937358.09845  23735932.975    23735943.081
  22424890.446    -1268895.32349   -970358.74246  22424890.391    22424900.175
  23372970.838    -2704450.69549  -2094426.42545  23372970.799    23372979.276
  22002998.684     6606827.60549   5143842.63047  22002998.441    22003004.883
  20689714.813     1231294.62749    962692.33647  20689714.339    20689722.270
  20349456.591   -12137824.24949  -9434300.18148  20349456.365    20349462.728
 03  6  9 20 49  0.0000000  0  8G31G23G21G 3G 9G18G15G14
  22625346.998    -8007626.51249  -6222991.68046  22625346.758    22625356.027
  21250436.771      -51006.85049     85806.21347  21250436.439    21250443.904
  23755107.388    12862283.37549  10015872.07845  23755107.111    23755117.266
  22433936.924    -1221356.09549   -933315.31046  22433936.878    22433946.751
  23380319.592    -2665832.78649  -2064334.56945  23380319.571    23380328.170
  22013869.405     6663953.98949   5188356.66747  22013869.175    22013875.694
  20700007.968     1285385.45449   1004840.97647  20700007.523    20700015.524
  20344331.336   -12164757.50549  -9455287.10948  20344331.143    20344337.494
 03  6  9 20 49 30.0000000  0  8G31G23G21G 3G 9G18G15G14
  22626223.091    -8003022.31049  -6219404.04746  22626222.902    22626232.295
  21254362.649      -30376.00049    101882.18947  21254362.331    21254369.871
  23774321.049    12963251.33449  10094548.19345  23774320.760    23774331.079
  22443065.877    -1173383.02549   -895933.82046  22443065.889    22443075.848
  23387779.799    -2626628.95549  -2033786.16545  23387779.817    23387788.569
  22024765.073     6721211.44649   5232972.84147  22024764.912    22024771.476
  20710387.304     1339929.32849   1047342.65447  20710386.887    20710394.942
  20339303.757   -12191177.23049  -9475873.88348  20339303.573    20339309.978
 03  6  9 20 50  0.0000000  0  8G31G23G21G 3G 9G18G15G14
  22627206.424    -7997854.83449  -6215377.49446  22627206.221    22627215.704
  21258312.684       -9618.25449    118057.04247  21258312.387    21258320.009
  23793573.984    13064425.95649  10173385.32145  23793573.701    23793584.317
  22452277.007    -1124978.34349   -858216.00946  22452277.022    22452287.128
  23395351.306    -2586840.03949  -2002781.84845  23395351.286    23395360.250
  22035685.715     6778600.02249   5277691.18447  22035685.543    22035692.246
  20720852.781     1394925.74349   1090196.96647  20720852.382    20720860.483
  20334373.927   -12217083.28749  -9496060.39348  20334373.756    20334380.200
 03  6  9 20 50 30.0000000  0  8G31G23G21G 3G 9G18G15G14
  22628296.799    -7992125.20649  -6210912.90146  22628296.596    22628306.048
  21262286.756       11265.78249    134330.30847  21262286.475    21262294.165
  23812866.007    13165805.41949  10252382.05145  23812865.765    23812876.457
  22461569.830    -1076144.54949   -820163.81746  22461569.888    22461580.030
  23403033.914    -2546467.41349  -1971322.69345  23403033.987    23403042.970
  22046631.168     6836118.97549   5322511.11646  22046631.015    22046637.800
  20731404.266     1450373.99949   1133403.36447  20731403.878    20731412.054
  20329541.738   -12242476.20949  -9515847.05848  20329541.601    20329548.055
 03  6  9 20 51  0.0000000  0  8G31G23G21G 3G 9G18G15G14
  22629493.876    -7985834.69649  -6206011.25246  22629493.677    22629503.154
  21266284.715       32275.53049    150701.53147  21266284.458    21266292.209
  23832196.726    13267387.98049  10331537.05245  23832196.424    23832207.278
  22470943.770    -1026884.32949   -781779.35246  22470943.829    22470954.039
  23410827.380    -2505512.80949  -1939410.02645  23410827.391    23410836.423
  22057601.199     6893767.30249   5367431.86946  22057601.091    22057607.961
  20742041.485     1506272.95249   1176960.95047  20742041.114    20742049.316
  20324807.150   -12267356.45549  -9535234.23848  20324807.039    20324813.520
 03  6  9 20 51 30.0000000  0  8G31G23G21G 3G 9G18G15G14
  22630797.550    -7978984.14649  -6200673.21346  22630797.315    22630806.815
  21270306.638       53410.86349    167170.61747  21270306.393    21270314.166
  23851565.728    13369172.16649  10410849.15045  23851565.484    23851576.358
  22480398.418     -977200.12149   -743064.50746  22480398.524    22480408.805
  23418731.325    -2463977.35049  -1907044.78045  23418731.410    23418740.298
  22068595.982     6951545.14149   5412453.52646  22068595.879    22068602.736
  20752764.350     1562622.10949   1220869.34347  20752764.010    20752772.208
  20320170.103   -12291724.28349  -9554222.13148  20320169.989    20320176.446
 03  6  9 20 52  0.0000000  0  8G31G23G21G 3G 9G18G15G14
  22632207.784    -7971573.66249  -6194898.85746  22632207.549    22632216.985
  21274352.589       74672.13949    183737.83247  21274352.342    21274360.065
  23870972.944    13471156.80749  10490317.47745  23870972.699    23870983.585
  22489933.542     -927093.51149   -704020.52146  22489933.612    22489943.918
  23426745.683    -2421861.63049  -1874227.37145  23426745.801    23426754.637
  22079615.503     7009452.84049   5457576.37846  22079615.371    22079622.238
  20763572.953     1619421.47749   1265128.55047  20763572.608    20763580.787
  20315630.659   -12315579.15149  -9572810.31748  20315630.532    20315636.987
 03  6  9 20 52 30.0000000  0  8G31G23G21G 3G 9G18G15G14
  22633724.295    -7963604.56449  -6188689.22046  22633724.039    22633733.503
  21278422.374       96058.69649    200402.67247  21278422.115    21278429.798
  23890418.045    13573340.04849  10569940.56245  23890417.787    23890428.631
  22499548.470     -876567.15049   -664649.45346  22499548.506    22499558.859
  23434870.201    -2379167.22349  -1840959.03845  23434870.287    23434879.174
  22090659.570     7067489.64549   5502799.82646  22090659.435    22090666.293
  20774467.001     1676669.81949   1309737.61247  20774466.626    20774474.808
  20311188.779   -12338921.43049  -9590999.07848  20311188.657    20311195.059
 03  6  9 20 53  0.0000000  0  8G31G23G21G 3G 9G18G15G14
  22635347.026    -7955077.28349  -6182044.63446  22635346.756    22635356.258
  21282516.073      117570.92349    217165.44747  21282515.811    21282523.473
  23909900.569    13675720.63349  10649717.38545  23909900.370    23909911.123
  22509242.915     -825623.24249   -624953.02646  22509242.935    22509253.270
  23443104.681    -2335894.96249  -1807240.42145  23443104.806    23443113.621
  22101728.193     7125655.49749   5548123.83746  22101728.042    22101734.896
  20785446.457     1734367.13149   1354696.51647  20785446.055    20785454.267
  20306844.392   -12361751.32749  -9608788.58148  20306844.264    20306850.628
 03  6  9 20 53 30.0000000  0  8G31G23G21G 3G 9G18G15G14
  22637075.668    -7945993.27549  -6174966.22846  22637075.409    22637084.913
  21286633.507      139207.97849    234025.48247  21286633.211    21286640.861
  23929420.401    13778296.77949  10729646.62745  23929420.127    23929430.904
  22519016.261     -774264.53049   -584933.37446  22519016.249    22519026.580
  23451448.797    -2292046.61449  -1773072.91145  23451448.900    23451457.675
  22112821.251     7183949.65649   5593547.82346  22112821.083    22112827.895
  20796511.117     1792512.19649   1400004.31347  20796510.725    20796518.961
  20302597.471   -12384069.26249  -9626179.15348  20302597.324    20302603.665
 03  6  9 20 54  0.0000000  0  8G31G23G21G 3G 9G18G15G14
  22638910.161    -7936353.22349  -6167454.55446  22638909.878    22638919.419
  21290774.687      160970.01449    250982.90247  21290774.424    21290782.001
  23948977.139    13881066.93349  10809727.01745  23948976.838    23948987.594
  22528868.163     -722493.03249   -544592.07846  22528868.109    22528878.487
  23459902.295    -2247623.34449  -1738457.40945  23459902.387    23459911.199
  22123938.723     7242372.11749   5639071.79646  22123938.576    22123945.354
  20807660.884     1851104.53949   1445660.64247  20807660.506    20807668.754
  20298447.905   -12405875.39449  -9643170.92148  20298447.747    20298454.059
 03  6  9 20 54 30.0000000  0  8G31G23G21G 3G 9G18G15G14
  22640850.298    -7926157.98349  -6159510.26246  22640849.986    22640859.578
  21294939.672      182857.00349    268037.70047  21294939.380    21294946.933
  23968570.567    13984029.79449  10889957.56845  23968570.263    23968580.990
  22538798.056     -670311.29849   -503931.11246  22538798.005    22538808.489
  23468465.003    -2202626.34449  -1703394.85745  23468465.099    23468473.937
  22135080.527     7300922.55349   5684695.48246  22135080.383    22135087.151
  20818895.684     1910143.47249   1491664.95847  20818895.288    20818903.503
  20294395.747   -12427169.79949  -9659763.93948  20294395.562    20294401.870
 03  6  9 20 55  0.0000000  0  8G31G23G21G 3G 9G18G15G14
  22642895.812    -7915408.76249  -6151134.30546  22642895.530    22642905.176
  21299128.339      204868.50849    285189.51447  21299128.050    21299135.603
  23988200.193    14087183.42049  10970336.76745  23988199.964    23988210.738
  22548805.554     -617721.83949   -462952.44946  22548805.527    22548816.071
  23477136.548    -2157057.10649  -1667886.40745  23477136.636    23477145.534
  22146246.685     7359600.76449   5730418.72646  22146246.523    22146253.296
  20830215.289     1969628.05049   1538016.52847  20830214.882    20830223.118
  20290440.802   -12447953.05549  -9675958.66748  20290440.640    20290446.939
 03  6  9 20 55 30.0000000  0  8G31G23G21G 3G 9G18G15G14
  22645046.623    -7904106.06849  -6142327.07046  22645046.380    22645056.087
  21303340.711      227004.85349    302438.60347  21303340.424    21303348.010
  24007865.893    14190526.73049  11050863.72045  24007865.700    24007876.567
  22558890.205     -564726.74349   -421657.70946  22558890.235    22558900.804
  23485916.872    -2110916.46249  -1631932.70045  23485916.988    23485925.925
  22157437.144     7418406.93149   5776241.67846  22157437.005    22157443.810
  20841619.535     2029557.92249   1584715.07347  20841619.137    20841627.429
  20286583.164   -12468224.76949  -9691754.79448  20286583.021    20286589.330
 03  6  9 20 56  0.0000000  0  8G31G23G21G 3G 9G18G15G14
  22647302.580    -7892251.41549  -6133089.74046  22647302.329    22647312.022
  21307576.793      249265.50649    319784.55547  21307576.512    21307584.139
  24027567.406    14294057.98149  11131537.12445  24027567.171    24027578.346
  22569051.611     -511328.83149   -380049.07946  22569051.641    22569062.227
  23494805.555    -2064206.18949  -1595535.15245  23494805.635    23494814.708
  22168651.783     7477340.04249   5822163.54846  22168651.642    22168658.477
  20853108.327     2089931.99749   1631759.75347  20853107.964    20853116.315
  20282822.698   -12487985.94749  -9707153.09648  20282822.574    20282828.923
 03  6  9 20 56 30.0000000  0  8G31G23G21G 3G 9G18G15G14
  22649663.317    -7879845.89149  -6123423.15946  22649663.094    22649672.762
  21311836.424      271650.24149    337227.19647  21311836.153    21311843.827
  24047304.377    14397775.41949  11212355.63445  24047304.107    24047315.413
  22579289.166     -457530.53049   -338128.46346  22579289.213    22579299.828
  23503802.334    -2016927.81349  -1558694.90145  23503802.456    23503811.535
  22179890.590     7536400.24049   5868184.44046  22179890.451    22179897.293
  20864681.524     2150749.46649   1679149.93847  20864681.172    20864689.559
  20279159.326   -12507236.95549  -9722153.86248  20279159.210    20279165.601
 03  6  9 20 57  0.0000000  0  8G31G23G21G 3G 9G18G15G14
  22652128.611    -7866890.41149  -6113328.03746  22652128.448    22652138.107
  21316119.698      294159.22749    354766.66247  21316119.448    21316127.152
  24067076.543    14501677.48949  11293318.05045  24067076.269    24067087.478
  22589602.505     -403334.26749   -295897.74246  22589602.543    22589613.194
  23512906.953    -1969082.49649  -1521412.87545  23512907.103    23512916.198
  22191153.509     7595587.22249   5914304.13746  22191153.414    22191160.228
  20876338.978     2212009.67049   1726885.11447  20876338.621    20876347.039
  20275593.014   -12525977.72449  -9736757.03548  20275592.909    20275599.322
 03  6  9 20 57 30.0000000  0  8G31G23G21G 3G 9G18G15G14
  22654698.554    -7853386.02749  -6102805.20446  22654698.339    22654708.009
  21320426.602      316792.23249    372402.76147  21320426.366    21320434.061
  24086883.544    14605762.55949  11374423.07945  24086883.287    24086894.446
  22599991.090     -348742.52949   -253358.85346  22599991.112    22600001.747
  23522119.252    -1920671.91549  -1483690.39145  23522119.366    23522128.365
  22202440.545     7654900.83249   5960522.50346  22202440.470    22202447.285
  20888080.540     2273711.82749   1774964.66347  20888080.173    20888088.614
  20272123.749   -12544208.84849  -9750963.08648  20272123.641    20272130.032
 03  6  9 20 58  0.0000000  0  8G31G23G21G 3G 9G18G15G14
  22657372.573    -7839334.10449  -6091855.71546  22657372.397    22657382.024
  21324757.033      339548.85449    390135.19347  21324756.798    21324764.448
  24106725.048    14710028.93249  11455669.35245  24106724.681    24106735.727
  22610454.479     -293757.91749   -210513.84546  22610454.518    22610465.091
  23531438.818    -1871697.56949  -1445528.61145  23531438.894    23531447.811
  22213751.609     7714340.56749   6006839.15446  22213751.520    22213758.332
  20899906.008     2335855.00449   1823387.87347  20899905.656    20899914.099
  20268751.334   -12561931.04849  -9764772.57248  20268751.225    20268757.578
 03  6  9 20 58 30.0000000  0  8G31G23G21G 3G 9G18G15G14
  22660150.669    -7824735.59049  -6080480.31646  22660150.484    22660160.035
  21329111.064      362429.16949    407964.00147  21329110.804    21329118.421
  24126600.670    14814475.32249  11537055.87545  24126600.362    24126611.533
  22620992.149     -238382.76749   -167364.50746  22620992.183    22621002.762
  23540865.459    -1822160.78449  -1406928.55645  23540865.557    23540874.422
  22225086.694     7773906.47649   6053254.11246  22225086.583    22225093.321
  20911815.357     2398438.61449   1872154.27547  20911814.982    20911823.389
  20265475.785   -12579144.30349  -9778185.48248  20265475.653    20265481.951
 03  6  9 20 59  0.0000000  0  9G25G31G23G21G 3G 9G18G15G14
  24527808.421    -5853173.30549  -4201771.00345  24527808.612    24527827.232
  22663031.922    -7809594.88849  -6068682.43846  22663031.719    22663041.219
  21333487.963      385429.81849    425886.57647  21333487.684    21333495.263
  24146509.665    14919096.35749  11618578.48145  24146509.259    24146520.553
  22631603.039     -182622.80549   -123915.32246  22631603.047    22631613.663
  23550398.208    -1772066.45749  -1367894.06645  23550398.258    23550407.040
  22236445.079     7833594.99949   6099764.62346  22236444.969    22236451.702
  20923807.768     2461458.52349   1921260.65047  20923807.379    20923815.745
  20262296.338   -12595852.50849  -9791204.84248  20262296.174    20262302.457
 03  6  9 20 59 30.0000000  0  9G25G31G23G21G 3G 9G18G15G14
  24508566.588    -5954288.88849  -4280561.98845  24508566.683    24508585.244
  22666016.745    -7793910.21049  -6056460.66246  22666016.473    22666026.011
  21337888.334      408553.74249    443905.20647  21337888.057    21337895.633
  24166452.219    15023893.77149  11700238.54845  24166451.773    24166463.271
  22642287.281     -126477.60649    -80165.93746  22642287.270    22642297.868
  23560037.338    -1721412.90249  -1328423.81245  23560037.455    23560046.124
  22247827.306     7893408.81949   6146372.76646  22247827.169    22247833.913
  20935883.550     2524916.80149   1970708.59947  20935883.149    20935891.485
  20259213.522   -12612052.81149  -9803828.43248  20259213.348    20259219.597
 03  6  9 21  0  0.0000000  0  9G25G31G23G21G 3G 9G18G15G14
  24489317.286    -6055443.42549  -4359383.38945  24489317.328    24489335.729
  22669105.193    -7777680.76349  -6043814.40146  22669104.906    22669114.414
  21342312.533      431803.00449    462021.51347  21342312.245    21342319.808
  24186428.297    15128868.19149  11782036.51245  24186427.954    24186439.462
  22653044.765      -69947.42649    -36116.57246  22653044.763    22653055.318
  23569782.995    -1670199.71849  -1288517.47045  23569783.049    23569791.581
  22259233.797     7953350.05749   6193080.19246  22259233.663    22259240.378
  20948042.988     2588814.81849   2020499.20447  20948042.572    20948050.898
  20256227.602   -12627743.90849  -9816055.23648  20256227.436    20256233.637
 03  6  9 21  0 30.0000000  0  9G25G31G23G21G 3G 9G18G15G14
  24470061.011    -6156635.18749  -4438233.76445  24470061.010    24470079.101
  22672296.930    -7760908.59449  -6030745.23746  22672296.626    22672306.130
  21346760.432      455176.58649    480234.68847  21346760.115    21346767.669
  24206437.649    15234016.90949  11863970.31845  24206437.312    24206448.709
  22663874.805      -13035.79449      8230.02546  22663874.766    22663885.324
  23579634.617    -1618429.38249  -1248176.98345  23579634.638    23579643.122
  22270664.266     8013417.41649   6239885.89446  22270664.090    22270670.860
  20960285.716     2653150.50849   2070630.86647  20960285.276    20960293.627
  20253338.362   -12642927.07049  -9827886.24848  20253338.186    20253344.342
 03  6  9 21  1  0.0000000  0  9G25G31G23G21G 3G 9G18G15G14
  24450797.840    -6257862.56749  -4517111.91645  24450797.826    24450815.882
  22675591.565    -7743595.35449  -6017254.46246  22675591.235    22675600.771
  21351231.887      478674.06849    498544.40847  21351231.570    21351239.074
  24226479.786    15339337.85949  11946038.31445  24226479.496    24226490.800
  22674776.888       44254.30449     52871.54246  22674776.829    22674787.379
  23589591.915    -1566103.66749  -1207403.72145  23589591.965    23589600.367
  22282118.662     8073610.46249   6286789.53946  22282118.460    22282125.220
  20972611.561     2717922.86549   2121102.79147  20972611.113    20972619.449
  20250545.636   -12657602.98849  -9839322.00648  20250545.429    20250551.554
 03  6  9 21  1 30.0000000  0  9G25G31G23G21G 3G 9G18G15G14
  24431528.432    -6359122.71649  -4596015.58045  24431528.446    24431546.317
  22678988.877    -7725742.55749  -6003343.24346  22678988.533    22678998.159
  21355726.826      502294.95849    516950.29047  21355726.488    21355733.963
  24246554.290    15444829.06149  12028238.98545  24246553.959    24246565.518
  22685750.415      101919.87949     97805.63946  22685750.342    22685760.900
  23599654.367    -1513224.70149  -1166199.38045  23599654.449    23599662.929
  22293596.917     8133928.77049   6333790.79646  22293596.714    22293603.447
  20985020.274     2783130.69549   2171914.04247  20985019.823    20985028.116
  20247849.225   -12671772.66349  -9850363.29048  20247849.026    20247855.113
 03  6  9 21  2  0.0000000  0  9G25G31G23G21G 3G 9G18G15G14
  24412253.334    -6460412.98349  -4674942.77245  24412253.389    24412271.119
  22682488.578    -7707351.32849  -5989012.46846  22682488.290    22682497.973
  21360245.275      526039.54349    535452.55947  21360244.930    21360252.405
  24266660.874    15550489.20549  12110571.26945  24266660.580    24266672.375
  22696794.935      159958.87949    143030.71746  22696794.846    22696805.441
  23609821.858    -1459794.00249  -1124565.10245  23609821.871    23609830.521
  22305098.958     8194372.33849   6380889.65646  22305098.761    22305105.484
  20997511.707     2848773.22549   2223064.01447  20997511.235    20997519.532
  20245249.166   -12685436.28249  -9861010.24248  20245248.936    20245255.013
 03  6  9 21  2 30.0000000  0  9G25G31G23G21G 3G 9G18G15G14
  24392972.909    -6561731.12749  -4753891.61945  24392972.947    24392990.523
  22686090.437    -7688423.52249  -5974263.59246  22686090.167    22686099.944
  21364787.156      549907.28849    554050.79547  21364786.806    21364794.299
  24286799.160    15656316.21849  12193033.58445  24286798.848    24286810.895
  22707909.909      218367.94149    188544.15246  22707909.821    22707920.440
  23620094.067    -1405813.48449  -1082502.38345  23620093.999    23620102.838
  22316624.703     8254940.36149   6428085.48346  22316624.473    22316631.206
  21010085.592     2914849.05549   2274551.61847  21010085.111    21010093.402
  20242745.117   -12698595.02249  -9871263.78548  20242744.879    20242750.952
 03  6  9 21  3  0.0000000  0  9G25G31G23G21G 3G 9G18G15G14
  24373687.736    -6663074.31849  -4832860.03745  24373687.657    24373705.138
  22689794.268    -7668960.19749  -5959097.42446  22689793.982    22689803.718
  21369352.484      573898.24149    572745.03447  21369352.135    21369359.634
  24306969.007    15762308.60249  12275624.74045  24306968.625    24306980.860
  22719094.800      277144.69749    234344.09946  22719094.718    22719105.404
  23630470.530    -1351284.70449  -1040012.48345  23630470.496    23630479.383
  22328174.118     8315632.83049   6475378.28746  22328173.877    22328180.669
  21022741.740     2981357.30649   2326376.18047  21022741.259    21022749.524
  20240337.123   -12711249.13349  -9881124.11448  20240336.876    20240342.939
 03  6  9 21  3 30.0000000  0  9G25G31G23G21G 3G 9G18G15G14
  24354398.106    -6764440.79449  -4911846.57445  24354398.162    24354415.237
  22693599.653    -7648963.25049  -5943515.44846  22693599.328    22693609.069
  21373941.249      598012.06949    591535.02447  21373940.889    21373948.371
  24327169.980    15868464.11449  12358343.01645  24327169.530    24327181.882
  22730349.102      336286.15749    280428.23046  22730349.037    22730359.754
  23640951.015    -1296210.01949   -997097.19145  23640950.991    23640959.862
  22339747.122     8376449.15349   6522767.59946  22339746.895    22339753.674
  21035479.935     3048296.57549   2378536.60047  21035479.440    21035487.716
  20238024.938   -12723399.68049  -9890592.05748  20238024.697    20238030.748
 03  6  9 21  4  0.0000000  0  9G25G31G23G21G 3G 9G18G15G14
  24335104.650    -6865827.56049  -4990848.96945  24335104.688    24335121.387
  22697506.322    -7628434.16449  -5927518.81346  22697505.974    22697515.722
  21378553.340      622248.64349    610420.66447  21378552.956    21378560.453
  24347401.668    15974781.16749  12441187.18145  24347401.234    24347413.675
  22741672.381      395789.66449    326794.48046  22741672.297    22741683.072
  23651534.991    -1240591.09249   -953757.79145  23651534.983    23651543.911
  22351343.664     8437389.03649   6570253.19146  22351343.407    22351350.186
  21048299.940     3115665.92249   2431032.14647  21048299.455    21048307.713
  20235808.449   -12735047.30449  -9899668.11048  20235808.212    20235814.246
 03  6  9 21  4 30.0000000  0  9G25G31G23G21G 3G 9G18G15G14
  24315807.679    -6967232.59349  -5069865.58844  24315807.557    24315824.117
  22701513.896    -7607374.51749  -5911108.76646  22701513.539    22701523.248
  21383188.683      646607.52449    629401.60247  21383188.287    21383195.775
  24367663.691    16081257.75949  12524155.64045  24367663.357    24367675.537
  22753064.008      455652.35749    373440.61146  22753063.921    22753074.662
  23662222.278    -1184430.10849   -909996.02845  23662222.184    23662231.103
  22362963.589     8498452.09349   6617834.76046  22362963.373    22362970.105
  21061201.540     3183464.09249   2483861.83447  21061201.044    21061209.296
  20233687.476   -12746193.06649  -9908353.10248  20233687.220    20233693.254
 03  6  9 21  5  0.0000000  0  9G25G31G23G21G 3G 9G18G15G14
  24296507.869    -7068652.21549  -5148893.54844  24296507.889    24296524.161
  22705622.179    -7585784.95349  -5894285.78746  22705621.895    22705631.642
  21387847.473      671089.52149    648478.47247  21387847.082    21387854.585
  24387956.106    16187893.17749  12607247.85045  24387955.579    24387967.993
  22764523.624      515872.27149    420365.09246  22764523.488    22764534.229
  23673012.334    -1127727.93349   -865812.55445  23673012.275    23673021.238
  22374607.113     8559638.94049   6665512.79446  22374606.902    22374613.618
  21074184.724     3251690.86249   2537025.50147  21074184.216    21074192.503
  20231662.060   -12756836.68249  -9916646.81348  20231661.812    20231667.822
 03  6  9 21  5 30.0000000  0  9G25G31G23G21G 3G 9G18G15G14
  24277205.810    -7170083.83249  -5227930.83845  24277205.751    24277222.167
  22709831.092    -7563667.04349  -5877051.11946  22709830.831    22709840.590
  21392529.669      695694.62249    667651.26747  21392529.290    21392536.773
  24408278.335    16294685.59349  12690462.40645  24408277.760    24408290.053
  22776050.623      576446.72349    467565.83746  22776050.468    22776061.267
  23683905.028    -1070486.38749   -821208.79945  23683904.973    23683913.984
  22386274.161     8620949.40649   6713287.15546  22386273.935    22386280.658
  21087249.245     3320345.06349   2590522.22847  21087248.721    21087257.032
  20229732.095   -12766978.70149  -9924549.66648  20229731.828    20229737.838
 03  6  9 21  6  0.0000000  0  9G25G31G23G21G 3G 9G18G15G14
  24257901.919    -7271525.34949  -5306975.86245  24257901.974    24257918.478
  22714140.312    -7541022.27149  -5859405.90546  22714140.038    22714149.852
  21397235.295      720422.82849    686919.99447  21397234.902    21397242.396
  24428630.086    16401633.03849  12773797.73145  24428629.571    24428641.926
  22787644.603      637373.10649    515040.81346  22787644.442    22787655.324
  23694900.112    -1012707.44949   -776186.28445  23694899.992    23694908.977
  22397964.700     8682383.29449   6761157.69046  22397964.452    22397971.169
  21100394.817     3389425.56549   2644351.13547  21100394.321    21100402.618
  20227897.389   -12776620.06449  -9932062.39848  20227897.138    20227903.152
 03  6  9 21  6 30.0000000  0  9G25G31G23G21G 3G 9G18G15G14
  24238596.482    -7372974.60949  -5386026.91545  24238596.579    24238613.110
  22718549.398    -7517852.53349  -5841351.62846  22718549.126    22718558.998
  21401964.273      745273.68849    706284.29647  21401963.879    21401971.380
  24449011.022    16508733.95949  12857252.67445  24449010.512    24449022.844
  22799304.930      698648.23349    562787.52946  22799304.799    22799315.709
  23705996.862     -954393.03649   -730746.51545  23705996.770    23706005.829
  22409678.611     8743939.98849   6809123.92246  22409678.343    22409685.016
  21113621.258     3458930.82549   2698511.02647  21113620.745    21113629.077
  20226157.745   -12785761.81849  -9939185.82348  20226157.522    20226163.528
 03  6  9 21  7  0.0000000  0  9G25G31G23G21G 3G 9G18G15G14
  24219290.204    -7474428.25649  -5465081.36145  24219290.225    24219306.870
  22723058.292    -7494158.77449  -5822889.02546  22723058.004    22723067.832
  21406716.696      770247.79849    725744.63247  21406716.289    21406723.809
  24469420.783    16615986.86849  12940826.01945  24469420.402    24469432.711
  22811031.240      760269.99449    610804.34746  22811031.122    22811042.059
  23717195.167     -895544.40349   -684890.49045  23717195.117    23717204.200
  22421415.924     8805619.83349   6857186.11246  22421415.677    22421422.349
  21126928.425     3528860.44749   2753001.59847  21126927.922    21126936.300
  20224513.186   -12794403.93249  -9945919.92048  20224512.971    20224518.972
 03  6  9 21  7 30.0000000  0  9G25G31G23G21G 3G 9G18G15G14
  24199983.606    -7575883.74949  -5544137.25845  24199983.711    24200000.216
  22727666.475    -7469942.99849  -5804019.64846  22727666.224    22727676.014
  21411492.469      795344.83649    745300.76147  21411492.092    21411499.636
  24489859.107    16723389.45549  13024515.97845  24489858.733    24489871.229
  22822822.937      822235.45049    659088.98846  22822822.819    22822833.829
  23728494.836     -836164.04949   -638620.13345  23728494.875    23728503.961
  22433176.606     8867422.45249   6905343.96946  22433176.385    22433183.017
  21140316.086     3599212.96249   2807821.68847  21140315.584    21140324.017
  20222963.447   -12802547.72949  -9952265.71748  20222963.224    20222969.224
 03  6  9 21  8  0.0000000  0  9G25G31G23G21G 3G 9G18G15G14
  24180677.153    -7677338.74749  -5623192.75845  24180677.276    24180693.703
  22732373.730    -7445206.88549  -5784744.83146  22732373.405    22732383.228
  21416291.656      820564.77249    764952.65147  21416291.280    21416298.839
  24510325.590    16830940.13049  13108321.34145  24510325.284    24510337.771
  22834679.485      884541.66649    707639.14446  22834679.391    22834690.468
  23739895.381     -776253.96049   -591937.00345  23739895.352    23739904.368
  22444960.543     8929347.61649   6953597.31546  22444960.317    22444967.030
  21153783.963     3669987.15849   2862970.35947  21153783.480    21153791.918
  20221508.397   -12810194.00749  -9958223.84148  20221508.171    20221514.158
 03  6  9 21  8 30.0000000  0  9G25G31G23G21G 3G 9G18G15G14
  24161371.339    -7778790.29849  -5702245.58045  24161371.431    24161387.868
  22737179.601    -7419951.61949  -5765065.46546  22737179.338    22737189.200
  21421114.314      845907.87949    784700.52147  21421113.941    21421121.498
  24530820.018    16938637.63249  13192241.10545  24530819.666    24530832.318
  22846600.480      947186.38049    756453.05446  22846600.388    22846611.549
  23751396.458     -715815.70049   -544842.30445  23751396.461    23751405.334
  22456767.788     8991395.42849   7001946.22246  22456767.593    22456774.409
  21167331.957     3741182.28349   2918447.02047  21167331.481    21167339.965
  20220147.940   -12817343.17649  -9963794.60648  20220147.723    20220153.730
 03  6  9 21  9  0.0000000  0  8G25G31G23G 3G 9G18G15G14
  24142066.662    -7880235.64649  -5781293.57045  24142066.736    24142083.211
  22742084.056    -7394178.60349  -5744982.67546  22742083.813    22742093.715
  21425960.384      871374.22549    804544.42147  21425960.007    21425967.609
  22858585.429     1010167.16149    805528.83946  22858585.380    22858596.562
  23762997.780     -654850.97049   -497337.36445  23762997.749    23763006.657
  22468598.436     9053565.74249   7050390.58846  22468598.243    22468605.077
  21180959.896     3812797.47249   2974251.00447  21180959.447    21180967.967
  20218881.961   -12823995.72149  -9968978.39448  20218881.759    20218887.804
 03  6  9 21  9 30.0000000  0  8G25G31G23G 3G 9G18G15G14
  24122763.639    -7981672.35749  -5860334.84445  24122763.579    24122780.159
  22747086.703    -7367889.79449  -5724497.95946  22747086.430    22747096.431
  21430829.860      896963.71449    824484.27447  21430829.536    21430837.177
  22870633.681     1073480.81549    854864.00946  22870633.700    22870644.920
  23774698.937     -593361.96349   -449423.91745  23774698.928    23774707.699
  22480452.314     9115858.49449   7098930.36546  22480452.157    22480459.039
  21194667.479     3884831.29449   3030381.19447  21194667.047    21194675.593
  20217710.252   -12830152.95349  -9973776.22448  20217710.051    20217716.124
 03  6  9 21 10  0.0000000  0  8G25G31G23G 3G 9G18G15G14
  24103462.702    -8083097.95149  -5939367.48445  24103462.840    24103479.163
  22752187.001    -7341087.29249  -5703612.97146  22752186.769    22752196.818
  21435722.715      922675.96349    844519.78747  21435722.398    21435730.074
  22882744.740     1137124.33649    904456.20846  22882744.755    22882756.073
  23786499.315     -531351.09549   -401103.80545  23786499.239    23786508.057
  22492329.418     9178273.18249   7147565.15546  22492329.255    22492336.202
  21208454.467     3957282.20649   3086836.38647  21208454.063    21208462.606
  20216632.577   -12835816.00549  -9978188.97848  20216632.397    20216638.477
 03  6  9 21 10 30.0000000  0  8G25G31G23G 3G 9G18G15G14
  24084164.446    -8184509.91349  -6018389.48545  24084164.560    24084180.760
  22757384.907    -7313772.55049  -5682328.83046  22757384.660    22757394.696
  21440639.015      948511.22149    864651.15247  21440638.695    21440646.356
  22894918.077     1201094.90849    954303.26546  22894918.058    22894929.441
  23798398.510     -468820.22449   -352378.53045  23798398.552    23798407.333
  22504229.695     9240809.58249   7196294.77946  22504229.536    22504236.517
  21222320.619     4030149.12049   3143615.74247  21222320.203    21222328.790
  20215648.811   -12840985.45849  -9982217.11048  20215648.638    20215654.728
 03  6  9 21 11  0.0000000  0  9G25G31G23G 3G 9G18G11G15G14
  24064868.526    -8285909.47449  -6097401.84745  24064868.609    24064884.617
  22762679.190    -7285951.33049  -5660650.03646  22762678.895    22762688.974
  21445577.936      974465.45349    884875.21847  21445577.626    21445585.296
  22907152.364     1265385.99649   1004400.05946  22907152.388    22907163.798
  23810395.616     -405775.65849   -303252.97445  23810395.666    23810404.377
  22516152.337     9303463.54849   7245116.01746  22516152.182    22516159.216
  24665176.084    -6188310.04749  -4445287.15945  24665175.915    24665185.951
  21236264.922     4103426.73049   3200715.11147  21236264.510    21236273.126
  20214758.053   -12845666.31149  -9985864.52048  20214757.884    20214763.980
 03  6  9 21 11 30.0000000  0  9G25G31G23G 3G 9G18G11G15G14
  24045576.307    -8387289.64449  -6176399.12945  24045576.305    24045592.249
  22768070.376    -7257620.65249  -5638574.28646  22768070.123    22768080.176
  21450540.389     1000543.31049    905195.60147  21450540.100    21450547.747
  22919448.020     1329999.42349   1054747.99246  22919448.046    22919459.518
  23822491.015     -342214.58649   -253724.97945  23822491.112    23822499.728
  22528098.267     9366239.68649   7294032.42046  22528098.132    22528105.129
  24646029.716    -6288924.88949  -4523688.31845  24646029.509    24646039.460
  21250288.085     4177118.53149   3258137.20947  21250287.662    21250296.247
  20213961.027   -12849854.81649  -9989128.29548  20213960.856    20213966.946
 03  6  9 21 12  0.0000000  0  9G25G31G23G 3G 9G18G11G15G14
  24026288.499    -8488646.72249  -6255378.40245  24026288.467    24026304.432
  22773558.359    -7228781.35849  -5616102.19846  22773558.124    22773568.211
  21455526.594     1026745.82449    925613.13247  21455526.308    21455533.931
  22931804.653     1394933.32149   1105345.67846  22931804.681    22931816.119
  23834684.385     -278137.96349   -203795.24445  23834684.432    23834693.300
  22540067.663     9429138.80049   7343044.67346  22540067.536    22540074.494
  24626900.662    -6389448.83249  -4602018.62445  24626900.283    24626910.346
  21264389.988     4251224.20249   3315881.81247  21264389.569    21264398.178
  20213257.702   -12853550.79549  -9992008.27048  20213257.513    20213263.608
 03  6  9 21 12 30.0000000  0  9G25G31G23G 3G 9G18G11G15G14
  24007005.415    -8589978.38249  -6334337.84945  24007005.357    24007021.508
  22779142.681    -7199435.64649  -5593235.48546  22779142.458    22779152.656
  21460536.445     1053072.81349    946127.65647  21460536.150    21460543.796
  22944221.646     1460184.58949   1156190.67246  22944221.675    22944233.114
  23846975.448     -213548.27049   -153465.68345  23846975.542    23846984.608
  22552060.197     9492160.03849   7392152.09946  22552060.064    22552067.066
  24607789.162    -6489880.13649  -4680276.69345  24607788.882    24607798.864
  21278570.286     4325742.09749   3373947.63447  21278569.882    21278578.515
  20212647.859   -12856755.43249  -9994505.37748  20212647.695    20212653.828
 03  6  9 21 13  0.0000000  0  9G25G31G23G 3G 9G18G11G15G14
  23987727.574    -8691282.51349  -6413275.84745  23987727.563    23987743.650
  22784822.966    -7169585.77549  -5569975.91646  22784822.765    22784833.030
  21465569.864     1079523.62449    966738.67547  21465569.575    21465577.243
  22956698.469     1525749.77049   1207280.26146  22956698.438    22956709.920
  23859363.578     -148448.16949   -102738.40245  23859363.576    23859372.902
  22564075.927     9555303.00549   7441354.37446  22564075.825    22564082.808
  24588695.586    -6590217.10949  -4758461.23445  24588695.401    24588705.330
  21292828.728     4400670.45349   3432333.29347  21292828.331    21292837.027
  20212131.177   -12859470.35549  -9996620.88948  20212131.033    20212137.222
 03  6  9 21 13 30.0000000  0  9G25G31G23G 3G 9G18G11G15G14
  23968455.480    -8792556.49549  -6492190.32345  23968455.424    23968471.536
  22790598.787    -7139233.97249  -5546325.23246  22790598.567    22790608.925
  21470626.806     1106098.17249    987446.11247  21470626.545    21470634.219
  22969234.404     1591625.73749   1258612.04446  22969234.390    22969245.873
  23871848.311      -82840.32649    -51615.48045  23871848.343    23871857.895
  22576114.749     9618567.29249   7490651.17846  22576114.642    22576121.656
  24569620.134    -6690458.47149  -4836571.33245  24569619.707    24569630.051
  21307164.972     4476007.86949   3491037.70347  21307164.597    21307173.340
  20211707.470   -12861696.80349  -9998355.77248  20211707.356    20211713.566
 03  6  9 21 14  0.0000000  0  9G25G31G23G 3G 9G18G11G15G14
  23949189.682    -8893797.43749  -6571079.08445  23949189.751    23949205.809
  22796469.788    -7108381.62149  -5522284.51446  22796469.612    22796479.989
  21475707.415     1132796.83549   1008250.25947  21475707.137    21475714.849
  22981828.963     1657810.00149   1310184.04046  22981828.941    22981840.481
  23884429.350      -16726.37749       -98.18745  23884429.394    23884439.023
  22588176.686     9681953.31049   7540042.84846  22588176.601    22588183.749
  24550563.377    -6790601.47949  -4914604.72045  24550563.078    24550573.424
  21321578.892     4551753.29249   3550060.04047  21321578.538    21321587.285
  20211376.551   -12863435.55149  -9999710.63248  20211376.435    20211382.670
 03  6  9 21 14 30.0000000  0  9G25G31G23G 3G 9G18G11G15G14
  23929930.621    -8995003.38249  -6649940.58545  23929930.654    23929946.635
  22802435.599    -7077031.21649  -5497855.70846  22802435.442    22802445.838
  21480811.498     1159619.00149   1029150.64047  21480811.234    21480818.958
  22994481.511     1724299.40649   1361993.81046  22994481.551    22994493.182
  23897106.276       49891.09349     51811.45245  23897106.327    23897115.950
  22600261.672     9745460.03649   7589528.57146  22600261.615    22600268.720
  24531525.610    -6890644.77949  -4992560.46945  24531525.338    24531535.746
  21336070.110     4627904.77749   3609398.78947  21336069.766    21336078.493
  20211138.194   -12864687.86649 -10000686.45248  20211138.100    20211144.341
 03  6  9 21 15  0.0000000  0  9G25G31G23G 3G 9G18G11G15G14
  23910678.853    -9096171.23949  -6728772.43145  23910678.931    23910694.759
  22808495.944    -7045184.35149  -5473040.04946  22808495.787    22808506.158
  21485939.151     1186565.01749   1050147.52947  21485938.884    21485946.611
  23007191.654     1791091.22849   1414039.22946  23007191.663    23007203.443
  23909878.694      117010.01149    104111.82345  23909878.725    23909888.303
  22612369.553     9809087.39549   7639108.29146  22612369.492    22612376.628
  24512507.360    -6990585.84949  -5070436.53545  24512507.064    24512517.490
  21350638.422     4704461.25849   3669053.12447  21350638.061    21350646.781
  20210992.294   -12865454.59449 -10001283.89548  20210992.211    20210998.400
 03  6  9 21 15 30.0000000  0  9G25G31G23G 3G 9G18G11G15G14
  23891434.732    -9197298.78649  -6807572.83045  23891434.864    23891450.502
  22814650.447    -7012843.04649  -5447839.11246  22814650.286    22814660.556
  21491090.391     1213634.84349   1071240.89047  21491090.138    21491097.829
  23019958.747     1858182.50549   1466317.97746  23019958.774    23019970.632
  23922746.057      184628.03449    156801.08545  23922746.047    23922755.476
  22624500.425     9872835.61849   7688782.18646  22624500.364    22624507.547
  24493509.006    -7090422.70049  -5148231.39445  24493508.806    24493519.121
  21365283.486     4781421.34549   3729021.94747  21365283.112    21365291.830
  20210938.634   -12865736.83349 -10001503.81548  20210938.528    20210944.679
 03  6  9 21 16  0.0000000  0  9G25G31G23G 3G 9G18G11G15G14
  23872198.752    -9298383.25749  -6886339.63445  23872198.861    23872214.482
  22820898.617    -6980009.14649  -5422254.32246  22820898.451    22820908.629
  21496265.219     1240828.71649   1092430.91847  21496264.955    21496272.633
  23032782.300     1925570.40649   1518827.89046  23032782.366    23032794.234
  23935708.069      252743.24049    209877.80145  23935708.083    23935717.433
  22636654.329     9936704.48749   7738550.09746  22636654.240    22636661.450
  24474530.891    -7190152.96849  -5225943.18245  24474530.804    24474540.986
  21380005.075     4858783.62449   3789304.17347  21380004.700    21380013.401
  20210976.961   -12865535.64749 -10001347.03948  20210976.852    20210982.938
 03  6  9 21 16 30.0000000  0  9G25G31G23G 3G 9G18G11G15G14
  23852971.555    -9399421.84749  -6965070.71145  23852971.702    23852987.255
  22827240.164    -6946684.55049  -5396287.19146  22827239.971    22827250.115
  21501463.610     1268146.58149   1113717.55247  21501463.367    21501471.011
  23045661.873     1993252.11649   1571566.72746  23045661.900    23045673.734
  23948764.227      321353.11649    263339.96045  23948764.275    23948773.505
  22648831.108    10000693.83049   7788411.88646  22648831.000    22648838.221
  24455573.271    -7289775.13349  -5303570.74945  24455573.190    24455583.515
  21394802.963     4936546.77349   3849898.75447  21394802.596    21394811.311
  20211107.037   -12864852.11549 -10000814.40948  20211106.902    20211112.974
 03  6  9 21 17  0.0000000  0  9G25G31G23G 3G 9G18G11G15G14
  23833753.618    -9500411.79649  -7043763.87845  23833753.766    23833769.268
  22833674.668    -6912871.21649  -5369939.22146  22833674.466    22833684.658
  21506685.707     1295588.60849   1135100.94247  21506685.422    21506693.086
  23058596.743     2061224.76749   1624532.27446  23058596.776    23058608.666
  23961914.136      390455.76049    317186.09745  23961914.152    23961923.292
  22661030.818    10064803.65249   7838367.55046  22661030.655    22661037.914
  24436636.726    -7389286.83649  -5381112.24845  24436636.709    24436647.049
  21409676.914     5014709.39949   3910804.62647  21409676.529    21409685.267
  20211328.758   -12863687.08449  -9999906.59048  20211328.608    20211334.661
 03  6  9 21 17 30.0000000  0  9G25G31G23G 3G 9G18G11G15G14
  23814545.413    -9601350.60049  -7122417.16845  23814545.663    23814560.948
  22840201.776    -6878571.33449  -5343212.12746  22840201.577    22840211.784
  21511931.353     1323154.78249   1156581.07347  21511931.070    21511938.758
  23071586.466     2129485.67249   1677722.42846  23071586.502    23071598.471
  23975157.271      460048.45049    371414.10345  23975157.353    23975166.306
  22673253.440    10129033.71549   7888416.92146  22673253.303    22673260.537
  24417721.618    -7488686.01349  -5458566.05745  24417721.653    24417731.869
  21424626.581     5093270.12049   3972020.68947  21424626.200    21424634.946
  20211641.825   -12862041.93149  -9998624.64948  20211641.672    20211647.689
 03  6  9 21 18  0.0000000  0  9G25G31G23G 3G 9G18G11G15G14
  23795347.543    -9702235.23549  -7201028.27545  23795347.774    23795362.975
  22846821.182    -6843786.48849  -5316107.14046  22846820.955    22846831.199
  21517200.700     1350845.55749   1178158.28947  21517200.422    21517208.164
  23084630.424     2198031.87149   1731134.87146  23084630.492    23084642.514
  23988493.305      530129.36749    426022.52745  23988493.391    23988502.233
  22685498.978    10193384.18249   7938560.09446  22685498.846    22685505.958
  24398828.412    -7587970.07649  -5535930.17045  24398828.403    24398838.666
  21439651.816     5172227.81649   4033546.08047  21439651.408    21439660.148
  20212046.126   -12859917.31649  -9996969.09448  20212045.962    20212051.985
 03  6  9 21 18 30.0000000  0  9G25G31G23G 3G 9G18G11G15G14
  23776160.360    -9803063.06949  -7279595.07445  23776160.547    23776175.742
  22853532.445    -6808518.63749  -5288625.79646  22853532.249    22853542.522
  21522493.837     1378661.09449   1199832.71747  21522493.578    21522501.259
  23097728.241     2266860.53549   1784767.42746  23097728.275    23097740.336
  24001921.815      600696.35749    481009.73245  24001921.885    24001930.889
  22697767.457    10257854.97249   7988797.04746  22697767.292    22697774.355
  24379957.488    -7687136.86649  -5613202.88845  24379957.407    24379967.708
  21454752.249     5251580.94049   4095379.60947  21454751.844    21454760.581
  20212541.448   -12857314.34049  -9994940.79548  20212541.279    20212547.322
 03  6  9 21 19  0.0000000  0  9G25G31G23G 3G 9G18G11G15G14
  23756984.507    -9903831.59249  -7358115.63745  23756984.592    23756999.868
  22860335.177    -6772770.16149  -5260769.93646  22860334.969    22860345.340
  21527810.745     1406601.26049   1221604.26647  21527810.437    21527818.121
  23110879.316     2335968.84149   1838617.87646  23110879.291    23110891.395
  24015442.186      671746.73549    536373.59545  24015442.195    24015451.462
  22710058.720    10322445.68949   8039127.44346  22710058.563    22710065.566
  24361109.204    -7786184.58449  -5690382.82745  24361109.096    24361119.498
  21469927.594     5331327.69549   4157519.86247  21469927.189    21469935.971
  20213127.532   -12854234.36249  -9992540.80148  20213127.373    20213133.411
 03  6  9 21 19 30.0000000  0  9G25G31G23G 3G 9G18G11G15G14
  23737820.447   -10004538.13549  -7436587.91345  23737820.499    23737835.756
  22867229.102    -6736542.64249  -5232540.79546  22867228.877    22867239.326
  21533151.368     1434666.55249   1243473.31047  21533151.060    21533158.725
  23124083.034     2405354.03049   1892684.08546  23124083.010    23124095.123
  24029054.231      743278.65449    592112.67945  24029054.292    24029063.555
  22722372.849    10387156.76649   8089551.62946  22722372.689    22722379.717
  24342284.108    -7885110.75749  -5767468.05445  24342284.187    24342294.419
  21485177.687     5411467.32049   4219966.24547  21485177.271    21485186.112
  20213804.253   -12850678.30649  -9989769.84048  20213804.095    20213810.089
 03  6  9 21 20  0.0000000  0  9G25G31G23G 3G 9G18G11G15G14
  23718668.622   -10105180.17949  -7515009.93445  23718668.679    23718683.877
  22874213.793    -6699838.34649  -5203940.15046  22874213.551    22874224.076
  21538515.845     1462857.00649   1265439.88747  21538515.546    21538523.214
  23137338.845     2475013.20549   1946963.79046  23137338.824    23137350.994
  24042757.466      815289.55949    648224.98645  24042757.495    24042767.043
  22734709.718    10451987.57249   8140069.09446  22734709.538    22734716.679
  24323482.466    -7983913.69549  -5844457.27245  24323482.494    24323492.622
  21500502.352     5491998.42049   4282717.67947  21500501.932    21500510.781
  20214571.349   -12846647.18149  -9986628.69848  20214571.184    20214577.162
 03  6  9 21 20 30.0000000  0  9G25G31G23G 3G 9G18G11G15G14
  23699529.676   -10205754.33249  -7593379.05645  23699529.698    23699544.915
  22881288.821    -6662659.13249  -5174969.43446  22881288.574    22881299.123
  21543904.183     1491172.92349   1287504.22747  21543903.886    21543911.542
  23150646.237     2544943.52949   2001454.77546  23150646.211    23150658.466
  24056551.324      887777.15649    704708.73745  24056551.386    24056561.025
  22747069.441    10516938.34649   8190680.05646  22747069.292    22747076.451
  24304704.730    -8082590.77949  -5921348.39745  24304704.783    24304714.726
  21515901.149     5572919.44549   4345772.94547  21515900.752    21515909.607
  20215428.615   -12842142.17749  -9983118.29348  20215428.450    20215434.430
 03  6  9 21 21  0.0000000  0  9G25G31G23G 3G 9G18G11G15G14
  23680404.132   -10306258.05249  -7671693.27445  23680404.228    23680419.294
  22888453.801    -6625007.30349  -5145630.45346  22888453.563    22888464.163
  21549316.407     1519614.33649   1309666.35747  21549316.099    21549323.766
  23164004.686     2615142.18849   2056154.85146  23164004.653    23164017.015
  24070435.435      960739.01249    761562.05345  24070435.414    24070445.333
  22759452.004    10582008.74549   8241384.22046  22759451.829    22759459.003
  24285951.367    -8181139.71849  -5998139.67545  24285951.416    24285961.317
  21531373.889     5654228.61549   4409130.66847  21531373.480    21531382.354
  20216375.816   -12837164.64349  -9979239.68748  20216375.644    20216381.625
 03  6  9 21 21 30.0000000  0  9G25G31G23G 3G 9G18G11G15G14
  23661292.560   -10406688.84449  -7749950.65845  23661292.628    23661307.615
  22895708.260    -6586885.21349  -5115925.03246  22895708.031    22895718.635
  21554752.516     1548181.14749   1331926.19647  21554752.215    21554759.898
  23177413.676     2685605.94649   2111061.49546  23177413.650    23177425.987
  24084409.535     1034172.73649    818783.08345  24084409.550    24084419.439
  22771857.276    10647198.86449   8292181.65846  22771857.121    22771864.326
  24267222.796    -8279558.76449  -6074829.74145  24267222.712    24267232.658
  21546920.107     5735924.27349   4472789.54447  21546919.688    21546928.607
  20217412.652   -12831715.86149  -9974993.87448  20217412.477    20217418.462
 03  6  9 21 22  0.0000000  0  9G25G31G23G 3G 9G18G11G15G14
  23642195.276   -10507044.36749  -7828149.39845  23642195.389    23642210.336
  22903051.805    -6548295.02949  -5085854.87446  22903051.597    22903062.193
  21560212.501     1576873.50249   1354283.86647  21560212.196    21560219.877
  23190872.548     2756331.87849   2166172.42146  23190872.482    23190884.871
  24098472.943     1108075.45849    876369.55645  24098472.844    24098482.802
  22784285.301    10712508.28249   8343072.06846  22784285.138    22784292.343
  24248519.416    -8377845.84849  -6151416.97445  24248519.330    24248529.071
  21562539.634     5818005.00149   4536748.46747  21562539.224    21562548.152
  20218538.942   -12825797.21049  -9970381.93248  20218538.767    20218544.746
 03  6  9 21 22 30.0000000  0  9G25G31G23G 3G 9G18G11G15G14
  23623112.891   -10607321.49349  -7906287.05345  23623112.920    23623127.868
  22910484.035    -6509238.67749  -5055421.46046  22910483.843    22910494.442
  21565696.428     1605691.70849   1376739.59447  21565696.119    21565703.817
  23204380.729     2827317.17849   2221485.45546  23204380.711    23204393.105
  24112625.134     1182445.21649    934319.93145  24112625.157    24112634.929
  22796736.056    10777937.33349   8394055.70246  22796735.928    22796743.120
  24229841.574    -8475998.66149  -6227899.57745  24229841.520    24229851.126
  21578232.132     5900469.28149   4601006.25747  21578231.711    21578240.665
  20219754.475   -12819409.57149  -9965404.54648  20219754.295    20219760.270
 03  6  9 21 23  0.0000000  0  9G25G31G23G 3G 9G18G11G15G14
  23604045.824   -10707518.28049  -7984362.11145  23604045.810    23604060.673
  22918004.444    -6469718.95149  -5024626.98346  22918004.246    22918014.848
  21571204.267     1634635.39649   1399293.10147  21571203.966    21571211.639
  23217937.673     2898558.19549   2276997.74946  23217937.656    23217949.983
  24126865.640     1257278.94249    992631.83345  24126865.579    24126875.281
  22809209.428    10843485.07449   8445131.81546  22809209.273    22809216.508
  24211189.509    -8574015.38149  -6304276.14345  24211189.473    24211199.055
  21593997.228     5983315.22349   4665561.44647  21593996.817    21594005.804
  20221058.846   -12812554.84049  -9960063.18848  20221058.682    20221064.676
 03  6  9 21 23 30.0000000  0  9G25G31G23G 3G 9G18G11G15G14
  23584994.763   -10807630.96249  -8062371.65545  23584994.689    23585009.452
  22925612.903    -6429736.76349  -4993472.16046  22925612.708    22925623.302
  21576736.188     1663705.83749   1421945.37347  21576735.857    21576743.532
  23231542.915     2970053.33049   2332708.03946  23231542.877    23231555.247
  24141194.269     1332575.60549   1051304.47245  24141194.199    24141203.769
  22821705.524    10909152.61149   8496301.27246  22821705.392    22821712.623
  24192564.017    -8671892.48249  -6380543.91045  24192564.066    24192573.574
  21609834.866     6066542.29449   4730413.62247  21609834.473    21609843.506
  20222452.110   -12805233.10549  -9954357.93448  20222451.958    20222457.927
 03  6  9 21 24  0.0000000  0  9G25G31G23G 3G 9G18G11G15G14
  23565960.127   -10907657.02949  -8140313.69245  23565960.106    23565974.785
  22933308.846    -6389294.84049  -4961959.09046  22933308.631    22933319.265
  21582292.188     1692902.84549   1444696.26647  21582291.860    21582299.555
  23245195.821     3041799.32149   2388613.81646  23245195.796    23245208.197
  24155610.418     1408332.17549   1110335.45645  24155610.289    24155619.703
  22834224.477    10974939.72349   8547563.89546  22834224.355    22834231.546
  24173965.429    -8769628.77149  -6456701.96745  24173965.442    24173974.881
  21625744.734     6150148.84249   4795561.48947  21625744.349    21625753.386
  20223933.945   -12797446.03249  -9948290.07848  20223933.762    20223939.738
 03  6  9 21 24 30.0000000  0  9G25G31G23G 3G 9G18G11G15G14
  23546942.522   -11007593.74249  -8218186.11345  23546942.532    23546957.098
  22941091.875    -6348395.39049  -4930089.51746  22941091.713    22941102.288
  21587872.316     1722226.56149   1467545.89847  21587871.997    21587879.685
  23258895.979     3113793.11249   2444712.67846  23258895.911    23258908.359
  24170113.587     1484546.17349   1169722.83745  24170113.488    24170122.879
  22846766.088    11040845.89649   8598919.31146  22846765.933    22846773.141
  24155394.116    -8867221.86349  -6532748.43545  24155393.949    24155403.371
  21641726.441     6234133.16149   4861003.72747  21641726.035    21641735.118
  20225504.086   -12789194.92249  -9941860.63548  20225503.905    20225509.880
 03  6  9 21 25  0.0000000  0  9G25G31G23G 3G 9G18G11G15G14
  23527942.501   -11107438.32849  -8295986.73545  23527942.545    23527956.988
  22948961.667    -6307040.32149  -4897864.91646  22948961.475    22948972.028
  21593476.687     1751677.67849   1490494.80047  21593476.348    21593484.054
  23272642.821     3186032.29249   2501002.72846  23272642.735    23272655.228
  24184703.253     1561215.67849   1229465.23845  24184703.148    24184712.626
  22859330.459    11106871.61049   8650367.86046  22859330.325    22859337.455
  24136850.514    -8964668.95849  -6608681.15145  24136850.387    24136859.699
  21657779.803     6318493.85249   4926739.24147  21657779.411    21657788.506
  20227162.394   -12780480.62349  -9935070.26948  20227162.207    20227168.170
 03  6  9 21 25 30.0000000  0  9G25G31G23G 3G 9G18G11G15G14
  23508960.464   -11207188.17049  -8373713.52545  23508960.506    23508974.890
  22956917.551    -6265232.16449  -4865287.27146  22956917.376    22956927.938
  21599105.243     1781255.92549   1513542.77047  21599104.911    21599112.621
  23286435.622     3258513.43849   2557481.34946  23286435.556    23286448.133
  24199379.034     1638337.56549   1289560.11945  24199378.968    24199388.545
  22871917.488    11173016.53349   8701909.30446  22871917.341    22871924.420
  24118334.988    -9061968.59049  -6684498.95045  24118334.785    24118344.100
  21673904.440     6403229.01649   4992766.53747  21673904.018    21673913.115
  20228908.500   -12771304.77949  -9927920.25348  20228908.308    20228914.261
 03  6  9 21 26  0.0000000  0  9G25G31G23G 3G 9G18G11G15G14
  23489997.058   -11306840.36449  -8451364.23345  23489997.084    23490011.379
  22964959.369    -6222972.89949  -4832358.10246  22964959.130    22964969.707
  21604758.064     1810961.56249   1536690.00147  21604757.767    21604765.472
  23300274.034     3331233.90349   2614146.45046  23300274.006    23300286.526
  24214140.689     1715909.76749   1350005.94745  24214140.569    24214150.195
  22884527.170    11239280.82149   8753543.77246  22884527.042    22884534.073
  24099848.040    -9159117.82949  -6760199.57245  24099847.873    24099857.167
  21690100.119     6488337.26149   5059084.56747  21690099.696    21690108.759
  20230742.228   -12761668.43749  -9920411.40648  20230742.039    20230747.981
 03  6  9 21 26 30.0000000  0  9G25G31G23G 3G 9G18G11G15G14
  23471052.743   -11406392.24549  -8528936.79045  23471052.878    23471066.967
  22973086.493    -6180265.16549  -4799079.47246  22973086.243    22973096.786
  21610435.200     1840794.88449   1559936.73147  21610434.887    21610442.561
  23314157.454     3404190.64049   2670995.65446  23314157.384    23314169.913
  24228987.414     1793929.56549   1410800.52945  24228987.341    24228996.879
  22897159.563    11305664.09749   8805270.95546  22897159.416    22897166.401
  24081390.075    -9256114.83049  -6835781.57045  24081389.910    24081399.216
  21706366.422     6573816.82849   5125691.94347  21706365.995    21706375.039
  20232663.321   -12751573.06449  -9912544.87048  20232663.109    20232669.082
 03  6  9 21 27  0.0000000  0  9G25G31G23G 3G 9G18G11G15G14
  23452127.938   -11505840.99849  -8606428.98945  23452128.080    23452142.056
  22981298.554    -6137110.98449  -4765452.96346  22981298.298    22981308.863
  21616136.681     1870756.23049   1583283.21947  21616136.360    21616144.051
  23328085.203     3477380.89949   2728026.81846  23328085.162    23328097.697
  24243918.732     1872394.48349   1471941.93545  24243918.675    24243928.289
  22909814.592    11372166.52349   8857090.98246  22909814.485    22909821.414
  24062961.518    -9352957.01749  -6911242.92545  24062961.388    24062970.677
  21722703.074     6659666.00249   5192587.30247  21722702.636    21722711.695
  20234671.475   -12741019.88949  -9904321.60348  20234671.289    20234677.263
 03  6  9 21 27 30.0000000  0  9G25G31G23G 3G 9G18G11G15G14
  23433223.370   -11605183.95349  -8683838.78445  23433223.488    23433237.421
  22989595.148    -6093512.57149  -4731480.30346  22989594.874    22989605.509
  21621862.530     1900845.81149   1606729.63047  21621862.236    21621869.926
  23342056.877     3550801.61149   2785237.55846  23342056.790    23342069.417
  24258934.371     1951302.15749   1533428.39345  24258934.480    24258944.143
  22922492.256    11438787.92649   8909003.70746  22922492.149    22922499.053
  24044562.771    -9449642.50749  -6986582.19345  24044562.745    24044572.017
  21739109.764     6745883.54249   5259769.70747  21739109.328    21739118.433
  20236766.574   -12730010.25649  -9895742.65548  20236766.378    20236772.351
 03  6  9 21 28  0.0000000  0  9G25G31G23G 3G 9G18G11G15G14
  23414339.439   -11704418.36549  -8761163.98746  23414339.521    23414353.420
  22997975.815    -6049472.36149  -4697163.38546  22997975.492    22997986.218
  21627612.899     1931063.87449   1630276.16247  21627612.575    21627620.248
  23356071.849     3624449.97649   2842625.68946  23356071.817    23356084.469
  24274033.907     2030650.08449   1595257.90245  24274034.076    24274043.632
  22935192.589    11505528.46249   8961009.26746  22935192.467    22935199.431
  24026194.376    -9546168.67449  -7061797.30145  24026194.342    24026203.705
  21755586.259     6832467.92849   5327237.96247  21755585.821    21755594.969
  20238948.227   -12718545.50149  -9886809.06248  20238948.008    20238953.990
 03  6  9 21 28 30.0000000  0  9G25G31G23G 3G 9G18G11G15G14
  23395476.672   -11803541.78449  -8838402.71646  23395476.759    23395490.591
  23006440.078    -6004992.78749  -4662504.10546  23006439.783    23006450.542
  21633387.672     1961410.49449   1653922.86447  21633387.347    21633394.983
  23370129.480     3698322.70249   2900188.65146  23370129.446    23370142.144
  24289216.693     2110435.51449   1657428.31245  24289216.845    24289226.338
  22947915.521    11572387.83949   9013107.44246  22947915.379    22947922.433
  24007856.673    -9642533.56949  -7136886.74345  24007856.607    24007866.004
  21772132.285     6919417.23649   5394990.58347  21772131.847    21772140.986
  20241216.166   -12706627.25249  -9877522.09748  20241215.968    20241221.916
 03  6  9 21 29  0.0000000  0  9G25G31G23G 3G 9G18G11G15G14
  23376635.626   -11902551.26149  -8915552.65046  23376635.663    23376649.385
  23014987.518    -5960076.11849  -4627504.23846  23014987.236    23014998.074
  21639186.984     1991886.12349   1677670.09647  21639186.653    21639194.313
  23384229.267     3772416.85549   2957924.14546  23384229.265    23384241.973
  24304482.115     2190655.74349   1719937.51045  24304482.128    24304491.944
  22960661.091    11639366.14449   9065298.26946  22960660.955    22960668.060
  23989550.065    -9738734.76749  -7211848.62445  23989550.031    23989559.558
  21788747.416     7006729.82749   5463026.27347  21788746.944    21788756.056
  20243570.223   -12694256.77149  -9867882.74548  20243570.008    20243575.953
 03  6  9 21 29 30.0000000  0  9G25G31G23G 3G 9G18G11G15G14
  23357816.779   -12001443.90149  -8992611.56146  23357816.781    23357830.442
  23023617.771    -5914724.68649  -4592165.59246  23023617.411    23023628.289
  21645010.916     2022490.94849   1701517.99847  21645010.561    21645018.241
  23398370.771     3846729.77749   3015830.11146  23398370.705    23398383.511
  24319829.838     2271308.31149   1782783.62545  24319829.942    24319839.799
  22973429.301    11706463.38249   9117581.79046  22973429.116    22973436.323
  23971275.116    -9834769.98549  -7286681.16845  23971274.972    23971284.595
  21805431.332     7094404.14449   5531343.81847  21805430.884    21805440.013
  20246010.046   -12681435.17049  -9857891.87148  20246009.829    20246015.770
 03  6  9 21 30  0.0000000  0  9G25G31G23G 3G 9G18G11G15G14
  23339020.620   -12100217.17549  -9069577.46746  23339020.653    23339034.214
  23032330.130    -5868941.06949  -4556490.17946  23032329.810    23032340.793
  21650859.416     2053225.08749   1725466.66847  21650859.072    21650866.773
  23412553.152     3921258.29349   3073904.05846  23412553.047    23412565.991
  24335259.300     2352390.50949   1845964.48945  24335259.330    24335269.348
  22986220.026    11773679.30249   9169957.77146  22986219.852    22986227.168
  23953032.063    -9930637.25449  -7361382.84145  23953031.941    23953041.530
  21822183.706     7182438.23249   5599941.71847  21822183.276    21822192.466
  20248535.413   -12668164.19049  -9847550.83048  20248535.181    20248541.126
 03  6  9 21 30 30.0000000  0  9G25G31G23G 3G 9G18G11G15G14
  23320247.575   -12198868.57649  -9146448.40646  23320247.739    23320261.163
  23041124.365    -5822727.48549  -4520479.73346  23041124.071    23041135.095
  21656732.577     2084088.87249   1749516.35847  21656732.266    21656739.957
  23426776.060     3995999.45549   3132143.71146  23426775.980    23426788.955
  24350770.119     2433900.01249   1909478.35445  24350770.152    24350780.221
  22999033.438    11841014.04749   9222426.34846  22999033.260    22999040.629
  23934821.488   -10026334.14949  -7435951.74645  23934821.328    23934830.936
  21839004.232     7270830.42849   5668818.65247  21839003.812    21839013.072
  20251146.000   -12654445.27249  -9836860.75348  20251145.784    20251151.754
 03  6  9 21 31  0.0000000  0  9G25G31G23G 3G 9G18G11G15G14
  23301498.355   -12297395.36349  -9223222.24046  23301498.489    23301511.782
  23049999.953    -5776086.73649  -4484136.43046  23049999.657    23050010.595
  21662630.495     2115082.26849   1773667.04747  21662630.163    21662637.805
  23441038.760     4070949.96549   3190546.49946  23441038.656    23441051.786
  24366361.729     2515833.87249   1973322.87845  24366361.779    24366371.887
  23011869.394    11908467.22749   9274987.21646  23011869.224    23011876.632
  23916643.649   -10121858.50649  -7510386.21845  23916643.493    23916653.200
  21855892.549     7359578.84949   5737973.15747  21855892.131    21855901.439
  20253841.553   -12640279.88249  -9825822.77248  20253841.347    20253847.358
 03  6  9 21 31 30.0000000  0  8G25G31G23G 3G18G11G15G14
  23282773.639   -12395793.33049  -9299895.69546  23282773.742    23282786.998
  23058956.661    -5729019.65249  -4447460.91646  23058956.386    23058967.298
  21668553.359     2146207.02749   1797920.09047  21668553.023    21668560.659
  23455341.141     4146108.67849   3249111.51646  23455341.045    23455354.239
  23024728.146    11976040.33949   9327641.52346  23024728.003    23024735.445
  23898499.324   -10217206.63949  -7584683.35545  23898499.124    23898508.996
  21872848.606     7448683.26749   5807405.06747  21872848.182    21872857.547
  20256622.100   -12625668.01249  -9814436.88948  20256621.902    20256627.901
 03  6  9 21 32  0.0000000  0  8G25G31G23G 3G18G11G15G14
  23264073.666   -12494060.99949  -9376467.61346  23264073.757    23264086.979
  23067993.780    -5681529.63549  -4410455.84546  23067993.510    23068004.462
  21674501.045     2177462.42849   1822274.92747  21674500.725    21674508.345
  23469682.300     4221471.26749   3307835.40646  23469682.237    23469695.419
  23037609.459    12043732.09649   9380388.29946  23037609.305    23037616.800
  23880388.812   -10312377.42349  -7658842.30345  23880388.671    23880398.544
  21889871.930     7538141.03949   5877112.31847  21889871.517    21889880.896
  20259487.144   -12610612.06249  -9802704.97048  20259486.939    20259492.912
 03  6  9 21 32 30.0000000  0  8G25G31G23G 3G18G11G15G14
  23245399.064   -12592195.42849  -9452935.70146  23245399.205    23245412.312
  23077110.799    -5633619.62049  -4373123.50946  23077110.589    23077121.518
  21680473.660     2208848.51649   1846731.60447  21680473.331    21680480.930
  23484061.703     4297034.73349   3366715.81346  23484061.631    23484074.821
  23050513.307    12111542.37949   9433227.43746  23050513.202    23050520.774
  23862312.529   -10407368.60549  -7732861.31245  23862312.435    23862322.182
  21906962.089     7627950.12649   5947093.32047  21906961.686    21906971.128
  20262436.377   -12595113.80949  -9790628.40048  20262436.187    20262442.155
 03  6  9 21 33  0.0000000  0  8G25G31G23G 3G18G11G15G14
  23226750.355   -12690194.02749  -9529297.95846  23226750.496    23226763.549
  23086307.358    -5585292.00549  -4335465.77146  23086307.142    23086318.087
  21686471.150     2240365.50649   1871290.27847  21686470.819    21686478.434
  23498478.805     4372796.04149   3425750.39246  23498478.751    23498491.873
  23063439.771    12179470.92449   9486158.71746  23063439.662    23063447.224
  23844270.770   -10502178.17249  -7806738.79945  23844270.805    23844280.480
  21924118.771     7718108.60949   6017346.56547  21924118.349    21924127.820
  20265469.456   -12579174.84349  -9778208.42148  20265469.228    20265475.222
 03  6  9 21 33 30.0000000  0  8G25G31G23G 3G18G11G15G14
  23208128.055   -12788053.84449  -9605552.09146  23208128.198    23208141.125
  23095582.983    -5536549.06149  -4297484.40546  23095582.741    23095593.715
  21692493.605     2272013.76049   1895951.22947  21692493.319    21692500.956
  23512933.125     4448752.56749   3484937.06146  23512933.025    23512946.174
  23076388.798    12247518.00349   9539182.35546  23076388.668    23076396.162
  23826264.011   -10596803.60449  -7880472.80345  23826264.101    23826273.709
  21941341.647     7808615.04349   6087870.93447  21941341.215    21941350.754
  20268586.166   -12562796.34449  -9765445.94948  20268585.960    20268591.900
 03  6  9 21 34  0.0000000  0  8G25G31G23G 3G18G11G15G14
  23189532.697   -12885772.16449  -9681695.96846  23189532.801    23189545.614
  23104937.058    -5487393.38549  -4259181.43346  23104936.855    23104947.833
  21698541.159     2303793.73949   1920714.82047  21698540.843    21698548.513
  23527423.833     4524901.08249   3544273.34646  23527423.753    23527436.958
  23089360.349    12315683.65349   9592298.37946  23089360.178    23089367.698
  23808292.871   -10691242.40749  -7954061.39045  23808292.962    23808302.481
  21958630.454     7899467.72749   6158665.09947  21958630.016    21958639.588
  20271786.246   -12545979.93149  -9752342.25348  20271786.025    20271791.957
 03  6  9 21 34 30.0000000  0  8G25G31G23G 3G18G11G15G14
  23170964.674   -12983346.75549  -9757727.85946  23170964.755    23170977.457
  23114369.208    -5437827.55649  -4220558.87346  23114368.955    23114380.024
  21704613.764     2335705.43349   1945581.04847  21704613.439    21704621.140
  23541950.532     4601238.54349   3603756.83646  23541950.497    23541963.651
  23102354.380    12383967.55149   9645506.52746  23102354.193    23102361.742
  23790357.651   -10785492.71349  -8027503.11745  23790357.718    23790367.170
  21975984.756     7990664.53649   6229727.42047  21975984.273    21975993.892
  20275069.314   -12528727.24249  -9738898.60548  20275069.102    20275075.044
 03  6  9 21 35  0.0000000  0  8G25G31G23G 3G18G11G15G14
  23152424.641   -13080774.56149  -9833645.36946  23152424.700    23152437.328
  23123878.975    -5387853.96649  -4181618.58146  23123878.781    23123889.835
  21710711.490     2367749.26049   1970550.22447  21710711.187    21710718.928
  23556512.655     4677762.22449   3663385.43145  23556512.625    23556525.809
  23115370.975    12452369.88549   9698806.95846  23115370.802    23115378.283
  23772458.743   -10879552.03249  -8100796.03345  23772458.759    23772468.129
  21993404.222     8082203.95149   6301056.69247  21993403.773    21993413.349
  20278435.151   -12511039.55749  -9725116.00248  20278434.932    20278440.906
 03  6  9 21 35 30.0000000  0  8G25G31G23G 3G18G11G15G14
  23133913.026   -13178052.67649  -9909446.31046  23133913.135    23133925.620
  23133465.968    -5337474.97549  -4142362.44546  23133465.734    23133476.806
  21716834.559     2399925.78749   1995622.77347  21716834.229    21716841.989
  23571109.592     4754469.17149   3723156.75545  23571109.570    23571122.896
  23128410.120    12520890.73549   9752199.67746  23128409.945    23128417.367
  23754596.752   -10973417.68849  -8173938.11345  23754596.675    23754605.901
  22010888.549     8174084.31349   6372651.58146  22010888.089    22010897.680
  20281883.556   -12492918.09349  -9710995.42148  20281883.344    20281889.320
 03  6  9 21 36  0.0000000  0  8G25G31G23G 3G18G11G15G14
  23115430.388   -13275178.51349  -9985128.60846  23115430.480    23115442.903
  23143129.518    -5286693.15849  -4102792.44846  23143129.315    23143140.420
  21722982.866     2432235.31149   2020798.94547  21722982.542    21722990.303
  23585740.941     4831356.18849   3783068.35345  23585740.880    23585754.262
  23141471.825    12589530.05949   9805684.69046  23141471.653    23141479.077
  23736772.053   -11067087.47849  -8246927.59845  23736771.945    23736781.011
  22028437.437     8266303.85549   6444510.75946  22028437.000    22028446.636
  20285414.182   -12474364.57049  -9696538.18348  20285413.980    20285419.961
 03  6  9 21 36 30.0000000  0  8G25G31G23G 3G18G11G15G14
  23096977.342   -13372149.12649 -10060689.93946  23096977.436    23096989.769
  23152869.341    -5235511.13049  -4062910.56446  23152869.102    23152880.280
  21729156.530     2464678.02549   2046078.91147  21729156.228    21729164.002
  23600405.995     4908420.57949   3843118.19446  23600405.918    23600419.435
  23154556.115    12658287.79149   9859261.99046  23154555.954    23154563.334
  23718985.069   -11160559.15749  -8319762.70745  23718984.938    23718993.923
  22046050.479     8358860.41749   6516632.57146  22046050.057    22046059.683
  20289026.710   -12455380.65749  -9681745.56548  20289026.509    20289032.519
 03  6  9 21 37  0.0000000  0  8G25G31G23G 3G18G11G15G14
  23078554.383   -13468961.75049 -10136128.37246  23078554.429    23078566.681
  23162684.797    -5183931.47849  -4022719.04846  23162684.526    23162695.778
  21735355.666     2497254.39349   2071462.90147  21735355.356    21735363.084
  23615104.221     4985659.27949   3903303.61046  23615104.173    23615117.727
  23167662.792    12727163.57549   9912931.08546  23167662.701    23167670.036
  23701236.145   -11253830.44849  -8392441.90245  23701236.056    23701244.871
  22063727.416     8451752.46249   6589015.64846  22063726.989    22063736.609
  20292720.860   -12435967.75049  -9666618.76148  20292720.652    20292726.659
 03  6  9 21 37 30.0000000  0  8G25G31G23G 3G18G11G15G14
  23060162.108   -13565613.40149 -10211441.14846  23060162.152    23060174.364
  23172575.464    -5131956.60649  -3982219.35646  23172575.240    23172586.556
  21741580.271     2529964.67849   2096951.36747  21741579.957    21741587.716
  23629835.226     5063069.48449   3963622.92346  23629835.125    23629848.786
  23180792.174    12796158.21049   9966692.99946  23180792.032    23180799.445
  23683525.825   -11346898.71049  -8464962.62645  23683525.757    23683534.642
  22081467.858     8544978.21649   6661658.90046  22081467.398    22081477.098
  20296496.382   -12416127.68949  -9651159.00448  20296496.168    20296502.168
 03  6  9 21 38  0.0000000  0  8G25G31G23G 3G18G11G15G14
  23041800.889   -13662101.75549 -10286626.66646  23041800.914    23041813.082
  23182540.878    -5079589.17049  -3941413.74346  23182540.601    23182551.946
  21747830.417     2562809.06449   2122544.34547  21747830.110    21747837.887
  23644598.345     5140648.03949   4024073.44046  23644598.215    23644611.896
  23193944.136    12865271.19349  10020547.16346  23193943.937    23193951.390
  23665854.599   -11439761.81849  -8537323.48445  23665854.530    23665863.383
  22099271.394     8638535.45049   6734560.48046  22099270.923    22099280.658
  20300352.934   -12395861.79349  -9635367.41148  20300352.708    20300358.692
 03  6  9 21 38 30.0000000  0  8G25G31G23G 3G18G11G15G14
  23023471.217   -13758424.06949 -10361682.73146  23023471.233    23023483.345
  23192580.341    -5026831.85849  -3900304.25746  23192580.130    23192591.640
  21754106.126     2595787.95649   2148242.17947  21754105.796    21754113.615
  23659392.935     5218392.16449   4084653.05446  23659392.762    23659406.480
  23207118.471    12934502.45649  10074493.57146  23207118.286    23207125.755
  23648222.797   -11532417.40149  -8609522.53245  23648222.746    23648231.766
  22117137.646     8732422.59749   6807719.19846  22117137.194    22117146.950
  20304290.155   -12375171.60149  -9619245.17048  20304289.933    20304295.909
 03  6  9 21 39  0.0000000  0  8G25G31G23G 3G18G11G15G14
  23005173.629   -13854577.48849 -10436607.23646  23005173.640    23005185.707
  23202693.680    -4973687.14749  -3858892.93846  23202693.350    23202704.962
  21760407.567     2628902.02349   2174045.32247  21760407.233    21760415.090
  23674218.340     5296299.01449   4145359.42745  23674218.159    23674231.975
  23220315.378    13003851.97649  10128532.08946  23220315.180    23220322.586
  23630630.909   -11624862.97549  -8681557.98545  23630630.855    23630639.936
  22135066.322     8826637.96649   6881133.65846  22135065.873    22135075.621
  20308307.862   -12354058.46849  -9602793.38048  20308307.641    20308313.641
 03  6  9 21 39 30.0000000  0  8G25G31G23G 3G18G11G15G14
  22986908.701   -13950559.26049 -10511398.00746  22986908.675    22986920.819
  23212880.153    -4920157.68249  -3817181.83946  23212879.817    23212891.426
  21766734.751     2662151.44449   2199953.92347  21766734.423    21766742.327
  23689074.088     5374365.61649   4206190.26345  23689073.964    23689087.830
  23233534.799    13073319.88749  10182662.82746  23233534.569    23233541.947
  23613079.482   -11717096.26949  -8753428.04045  23613079.425    23613088.594
  22153057.111     8921179.48049   6954802.22746  22153056.668    22153066.453
  20312405.708   -12332524.19149  -9586013.43448  20312405.494    20312411.515
 03  6  9 21 40  0.0000000  0  8G25G31G23G 3G18G11G15G14
  22968676.915   -14046366.62549 -10586052.88746  22968676.946    22968689.058
  23223139.349    -4866245.98549  -3775172.89446  23223139.035    23223150.653
  21773087.757     2695536.61049   2225968.30147  21773087.415    21773095.359
  23703959.754     5452589.02549   4267143.29645  23703959.650    23703973.539
  23246776.684    13142906.35549  10236885.95545  23246776.491    23246783.930
  23595568.873   -11809114.94249  -8825130.85545  23595568.797    23595578.042
  22171109.612     9016045.35849   7028723.53946  22171109.130    22171118.998
  20316583.481   -12310570.08249  -9568906.34648  20316583.252    20316589.280
 03  6  9 21 40 30.0000000  0  8G25G31G23G 3G18G11G15G14
  22950478.861   -14141996.89149 -10660569.74946  22950478.915    22950491.016
  23233470.829    -4811954.52449  -3732868.01146  23233470.503    23233482.125
  21779466.654     2729058.04449   2252088.87347  21779466.309    21779474.283
  23718874.563     5530966.27049   4328216.20945  23718874.444    23718888.558
  23260041.156    13212611.30449  10291201.41246  23260040.948    23260048.474
  23578099.633   -11900916.44549  -8896664.43345  23578099.521    23578108.812
  22189223.519     9111234.09549   7102896.44846  22189223.040    22189232.956
  20320840.761   -12288197.68449  -9551473.30948  20320840.545    20320846.596
 03  6  9 21 41  0.0000000  0  8G25G31G23G 3G18G11G15G14
  22932314.970   -14237447.69449 -10734946.77646  22932315.059    22932327.113
  23243873.750    -4757286.88349  -3690270.03346  23243873.471    23243885.117
  21785871.460     2762715.38449   2278315.32947  21785871.145    21785879.077
  23733818.035     5609493.63549   4389406.07045  23733817.949    23733832.145
  23273328.022    13282433.79549  10345608.43946  23273327.770    23273335.334
  23560671.970   -11992499.15149  -8968027.54145  23560671.886    23560681.180
  22207398.320     9206742.76549   7177318.64946  22207397.868    22207407.776
  20325177.179   -12265409.59849  -9533716.36948  20325176.963    20325183.024
 03  6  9 21 41 30.0000000  0  8G25G31G23G 3G18G11G15G14
  22914185.986   -14332715.55049 -10809181.21346  22914186.069    22914197.983
  23254347.957    -4702244.90649  -3647380.32346  23254347.700    23254359.430
  21792302.351     2796509.60649   2304648.47647  21792302.013    21792309.937
  23748789.715     5688169.16449   4450711.44145  23748789.604    23748803.926
  23286637.467    13352374.96949  10400108.01446  23286637.246    23286644.876
  23543286.473   -12083860.22049  -9039217.88945  23543286.412    23543295.715
  22225633.856     9302570.43749   7251989.47446  22225633.364    22225643.359
  20329592.594   -12242206.56549  -9515636.07048  20329592.366    20329598.430
 03  6  9 21 42  0.0000000  0  8G25G31G23G 3G18G11G15G14
  22896092.332   -14427797.69349 -10883270.94946  22896092.365    22896104.203
  23264893.033    -4646831.07849  -3604200.84046  23264892.779    23264904.474
  21798759.432     2830441.48449   2331088.88247  21798759.103    21798766.979
  23763788.885     5766989.90249   4512129.94245  23763788.821    23763803.346
  23299969.540    13422435.01449  10454700.19146  23299969.316    23299976.933
  23525943.722   -12174996.54449  -9110233.10345  23525943.618    23525953.002
  22243929.631     9398715.22649   7326907.36946  22243929.168    22243939.244
  20334086.661   -12218590.14049  -9497233.64948  20334086.425    20334092.507
 03  6  9 21 42 30.0000000  0  8G25G31G23G 3G18G11G15G14
  22878034.438   -14522691.87749 -10957214.18446  22878034.487    22878046.252
  23275508.158    -4591048.69649  -3560734.15946  23275507.930    23275519.630
  21805242.592     2864510.53649   2357636.20147  21805242.255    21805250.108
  23778815.036     5845952.34549   4573658.90345  23778814.969    23778829.656
  23313324.043    13492612.94949  10509384.27246  23313323.792    23313331.483
  23508644.029   -12265906.60949  -9181071.97946  23508644.014    23508653.358
  22262285.326     9495174.50049   7402070.35546  22262284.901    22262294.972
  20338658.942   -12194562.50549  -9478510.79148  20338658.710    20338664.809
 03  6  9 21 43  0.0000000  0  8G25G31G23G 3G18G11G15G14
  22860012.714   -14617395.33149 -11031008.82046  22860012.783    22860024.525
  23286193.061    -4534900.25349  -3516982.22246  23286192.794    23286204.567
  21811752.009     2898717.49949   2384290.98347  21811751.669    21811759.488
  23793867.761     5925053.71649   4635296.14245  23793867.668    23793882.368
  23326700.981    13562909.15049  10564160.51146  23326700.711    23326708.513
  23491387.967   -12356587.83249  -9251732.53046  23491387.941    23491397.178
  22280700.601     9591946.82849   7477477.28546  22280700.172    22280710.255
  20343309.248   -12170124.95949  -9459468.52148  20343309.020    20343315.113
 03  6  9 21 43 30.0000000  0  8G25G31G23G 3G18G11G15G14
  22842027.803   -14711905.40349 -11104652.75946  22842027.924    22842039.564
  23296947.182    -4478388.29649  -3472947.03446  23296946.829    23296958.597
  21818287.751     2933062.82249   2411053.57247  21818287.414    21818295.217
  23808946.283     6004291.12549   4697039.36945  23808946.199    23808960.993
  23340100.408    13633323.58649  10619028.85446  23340100.195    23340108.033
  23474175.906   -12447037.85449  -9322212.94046  23474175.857    23474184.942
  22299174.926     9689030.04049   7553126.45246  22299174.532    22299184.711
  20348037.279   -12145278.85949  -9440107.90548  20348037.057    20348043.153
 03  6  9 21 44  0.0000000  0  8G25G31G23G 3G18G11G15G14
  22824080.381   -14806218.67449 -11178143.35946  22824080.488    22824092.084
  23307769.772    -4421515.35049  -3428630.57246  23307769.448    23307781.272
  21824849.844     2967547.10349   2437924.43747  21824849.511    21824857.391
  23824050.142     6083661.89149   4758886.49145  23824050.043    23824064.997
  23353522.375    13703856.56149  10673989.58645  23353522.133    23353530.115
  23457008.188   -12537254.23549  -9392511.28746  23457008.151    23457017.196
  22317708.093     9786422.33449   7629016.46046  22317707.712    22317717.984
  20352842.756   -12120026.03249  -9420430.36748  20352842.530    20352848.637
 03  6  9 21 44 30.0000000  0  8G25G31G23G 3G18G11G15G14
  22806170.920   -14900332.45949 -11251478.52546  22806171.017    22806182.571
  23318660.566    -4364284.21049  -3384034.99446  23318660.267    23318672.177
  21831438.483     3002170.53949   2464903.73547  21831438.170    21831446.080
  23839178.892     6163162.89249   4820835.10345  23839178.830    23839193.777
  23366966.910    13774507.98049  10729042.60445  23366966.786    23366974.665
  23439885.410   -12627234.51249  -9462625.65546  23439885.375    23439894.413
  22336299.782     9884121.85949   7705145.85746  22336299.381    22336309.686
  20357725.284   -12094368.16649  -9400437.21348  20357725.050    20357731.162
 03  6  9 21 45  0.0000000  0  8G25G31G23G 3G18G11G15G14
  22788299.863   -14994244.47649 -11324656.47046  22788299.939    22788311.488
  23329619.001    -4306697.59049  -3339162.43246  23329618.721    23329630.686
  21838053.680     3036933.54949   2491991.78447  21838053.350    21838061.268
  23854331.866     6242791.25749   4882882.96745  23854331.789    23854346.741
  23380433.884    13845277.71349  10784187.81645  23380433.763    23380441.752
  23422808.054   -12716976.26249  -9532554.16846  23422807.997    23422816.980
  22354949.624     9982126.74849   7781513.20746  22354949.220    22354959.498
  20362684.591   -12068306.73949  -9380129.60148  20362684.367    20362690.473
 03  6  9 21 45 30.0000000  0  8G25G31G23G 3G18G11G15G14
  22770467.690   -15087952.23849 -11397675.26046  22770467.744    22770479.264
  23340644.466    -4248758.69249  -3294015.36446  23340644.218    23340656.238
  21844695.423     3071836.23649   2519188.67547  21844695.102    21844703.041
  23869508.398     6322543.78249   4945027.55045  23869508.362    23869523.423
  23393923.391    13916165.64649  10839425.12545  23393923.264    23393931.290
  23405776.520   -12806477.35249  -9602295.16246  23405776.448    23405785.348
  22373657.118    10080434.73049   7858116.71846  22373656.720    22373666.998
  20367720.288   -12041843.88749  -9359509.19548  20367720.081    20367726.164
 03  6  9 21 46  0.0000000  0  8G25G31G23G 3G18G11G15G14
  22752674.876   -15181452.76149 -11470532.55746  22752674.931    22752686.476
  23351736.461    -4190470.07349  -3248595.79546  23351736.269    23351748.330
  21851363.876     3106879.05949   2546494.76847  21851363.536    21851371.472
  23884707.967     6402417.27449   5007266.38945  23884708.000    23884723.059
  23407435.449    13987171.76649  10894754.52045  23407435.309    23407443.485
  23388791.208   -12895735.42049  -9671846.79546  23388791.136    23388799.929
  22392421.959    10179043.98649   7934954.99046  22392421.559    22392431.832
  20372832.118   -12014981.20249  -9338577.23348  20372831.892    20372837.963
 03  6  9 21 46 30.0000000  0  8G25G31G23G 3G18G11G15G14
  22734922.196   -15274742.96949 -11543225.98646  22734922.231    22734933.789
  23362894.644    -4131834.08949  -3202905.55346  23362894.465    23362906.516
  21858059.134     3142062.97649   2573910.80247  21858058.791    21858066.743
  23899930.199     6482409.46849   5069597.72145  23899930.152    23899945.316
  23420969.999    14058296.49149  10950176.32045  23420969.940    23420978.075
  23371852.594   -12984747.79849  -9741206.98546  23371852.564    23371861.253
  22411243.753    10277952.65149   8012026.56046  22411243.329    22411253.622
  20378019.720   -11987720.11449  -9317334.82648  20378019.491    20378025.562
 03  6  9 21 47  0.0000000  0  8G25G31G23G 3G18G11G15G14
  22717209.830   -15367821.06349 -11615754.14946  22717209.863    22717221.369
  23374118.239    -4072854.14549  -3156947.29746  23374117.995    23374130.145
  21864781.189     3177387.71049   2601436.56047  21864780.867    21864788.819
  23915174.355     6562517.00549   5132018.92945  23915174.249    23915189.561
  23434527.080    14129539.10549  11005689.99645  23434527.004    23434535.082
  23354961.117   -13073512.68349  -9810374.30746  23354961.058    23354969.746
  22430122.052    10377158.29149   8089329.54146  22430121.620    22430131.931
  20383282.714   -11960062.77449  -9295783.65948  20383282.507    20383288.558
 03  6  9 21 47 30.0000000  0  8G25G31G23G 3G18G11G15G14
  22699538.463   -15460684.03749 -11688114.71446  22699538.507    22699549.881
  23385406.753    -4013532.91449  -3110723.10846  23385406.500    23385418.773
  21871530.182     3212853.80849   2629072.47147  21871529.835    21871537.826
  23930439.846     6642736.97949   5194527.75645  23930439.760    23930455.127
  23448106.604    14200899.89849  11061295.75845  23448106.523    23448114.701
  23338117.217   -13162027.59949  -9879346.87346  23338117.098    23338125.732
  22449056.465    10476659.01649   8166862.45346  22449056.022    22449066.397
  20388620.856   -11932010.72949  -9273924.92348  20388620.652    20388626.657
 03  6  9 21 48  0.0000000  0  8G25G31G23G 3G18G11G15G14
  22681908.597   -15553328.47549 -11760304.97346  22681908.662    22681919.952
  23396759.904    -3953872.71349  -3064234.78446  23396759.620    23396771.896
  21878306.227     3248462.09449   2656819.17647  21878305.894    21878313.853
  23945726.435     6723066.82849   5257122.18045  23945726.328    23945741.602
  23461708.707    14272379.18649  11116993.83545  23461708.646    23461716.803
  23321321.369   -13250289.61249  -9948122.35946  23321321.265    23321329.909
  22468046.705    10576453.13449   8244623.97946  22468046.265    22468056.641
  20394033.867   -11903565.22049  -9251759.59648  20394033.664    20394039.666
 03  6  9 21 48 30.0000000  0  8G25G31G23G 3G18G11G15G14
  22664320.793   -15645752.28849 -11832323.30246  22664320.867    22664332.105
  23408176.792    -3893877.00049  -3017485.02946  23408176.507    23408188.842
  21885109.286     3284212.28449   2684676.45247  21885108.954    21885116.920
  23961033.225     6803502.90049   5319799.38145  23961033.082    23961048.344
  23475333.330    14343976.08249  11172783.57745  23475333.275    23475341.293
  23304574.074   -13338296.80849 -10016699.30446  23304574.010    23304582.720
  22487092.388    10676538.24549   8322612.26846  22487091.949    22487102.293
  20399521.295   -11874728.72849  -9229289.60648  20399521.085    20399527.095
 03  6  9 21 49  0.0000000  0  8G25G31G23G 3G18G11G15G14
  22646775.511   -15737952.82049 -11904167.65346  22646775.514    22646786.672
  23419656.975    -3833548.45249  -2970475.91646  23419656.729    23419669.119
  21891939.434     3320104.92249   2712644.73347  21891939.096    21891947.075
  23976359.485     6884042.45249   5382557.20245  23976359.342    23976374.700
  23488980.306    14415690.73049  11228665.05045  23488980.257    23488988.155
  23287875.752   -13426046.91049 -10085075.90846  23287875.710    23287884.384
  22506193.062    10776912.22249   8400825.64546  22506192.597    22506202.924
  20405082.735   -11845503.00149  -9206516.31648  20405082.525    20405088.551
 03  6  9 21 49 30.0000000  0  8G25G31G23G 3G18G11G15G14
  22629273.251   -15829926.96249 -11975835.59746  22629273.301    22629284.344
  23431200.025    -3772889.73049  -2923209.53346  23431199.708    23431212.199
  21898796.825     3356140.59349   2740724.47047  21898796.489    21898804.450
  23991704.996     6964682.64349   5445393.43345  23991704.828    23991720.320
  23502649.691    14487523.44649  11284638.53645  23502649.614    23502657.494
  23271226.764   -13513537.23549 -10153250.08646  23271226.756    23271235.503
  22525348.307    10877573.32149   8479262.75346  22525347.846    22525358.177
  20410718.107   -11815889.10149  -9183440.55348  20410717.894    20410723.909
 03  6  9 21 50  0.0000000  0  8G25G31G23G 3G18G11G15G14
  22611814.593   -15921672.12849 -12047325.12846  22611814.667    22611825.611
  23442805.443    -3711903.17849  -2875687.70446  23442805.144    23442817.702
  21905681.549     3392320.14349   2768916.31947  21905681.203    21905689.162
  24007069.167     7045420.76949   5508305.98945  24007069.041    24007084.479
  23516341.608    14559474.84149  11340704.49945  23516341.506    23516349.417
  23254627.724   -13600765.07949 -10221219.73646  23254627.747    23254636.515
  22544557.885    10978519.91549   8557922.29646  22544557.437    22544567.847
  20416426.961   -11785888.81749  -9160063.71648  20416426.762    20416432.767
 03  6  9 21 50 30.0000000  0  8G25G31G23G 3G18G11G15G14
  22594400.010   -16013185.54949 -12118634.07646  22594400.073    22594410.945
  23454472.659    -3650591.98649  -2827912.90946  23454472.377    23454484.921
  21912593.761     3428643.83949   2797220.48347  21912593.427    21912601.369
  24022451.289     7126253.74149   5571292.41845  24022451.222    24022466.708
  23530056.007    14631544.38049  11396862.53145  23530055.951    23530063.787
  23238079.094   -13687728.40549 -10288983.28746  23238079.063    23238087.900
  22563821.369    11079749.68249   8636802.51446  22563820.942    22563831.318
  20422209.014   -11755503.95149  -9136387.20348  20422208.809    20422214.842
 03  6  9 21 51  0.0000000  0  8G25G31G23G 3G18G11G15G14
  22577029.995   -16104464.86449 -12189760.60246  22577030.038    22577040.891
  23466201.142    -3588959.31949  -2779887.60846  23466200.777    23466213.310
  21919533.333     3465111.64949   2825636.94547  21919533.003    21919540.931
  24037850.977     7207178.35549   5634350.26445  24037850.932    24037866.470
  23543792.900    14703732.00149  11453112.56845  23543792.801    23543800.694
  23221581.245   -13774424.97149 -10356538.95846  23221581.183    23221590.021
  22583138.269    11181260.07449   8715901.39546  22583137.819    22583148.224
  20428063.837   -11724736.52849  -9112412.59348  20428063.636    20428069.653
 03  6  9 21 51 30.0000000  0  8G25G31G23G 3G18G11G15G14
  22559704.899   -16195507.78549 -12260702.91646  22559704.942    22559715.794
  23477990.231    -3527007.88749  -2731613.92946  23477989.895    23478002.468
  21926500.441     3501723.90149   2854165.96047  21926500.100    21926508.010
  24053267.529     7288191.81449   5697477.34045  24053267.459    24053283.071
  23557552.126    14776037.08449  11509454.12545  23557552.066    23557559.939
  23205134.535   -13860852.54149 -10423885.01946  23205134.470    23205143.341
  22602508.202    11283049.18949   8795217.47246  22602507.780    22602518.205
  20433991.157   -11693588.41549  -9088141.33748  20433990.952    20433996.991
 03  6  9 21 52  0.0000000  0  8G25G31G23G 3G18G11G15G14
  22542425.526   -16286310.27949 -12331457.89446  22542425.614    22542436.473
  23489839.553    -3464739.68249  -2683093.41346  23489839.322    23489851.869
  21933495.281     3538482.09949   2882808.69047  21933494.967    21933502.913
  24068700.670     7369292.18749   5760672.13045  24068700.496    24068716.272
  23571334.028    14848461.17149  11565888.40645  23571333.946    23571341.816
  23188739.658   -13947007.68449 -10491018.80146  23188739.590    23188748.466
  22621930.954    11385115.83649   8874749.79246  22621930.503    22621940.979
  20439990.731   -11662060.36049  -9063574.02548  20439990.529    20439996.587
 03  6  9 21 52 30.0000000  0  8G25G31G23G 3G18G11G15G14
  22525192.299   -16376870.66249 -12402024.20546  22525192.354    22525203.203
  23501748.575    -3402158.57449  -2634329.09346  23501748.268    23501760.839
  21940517.829     3575385.85449   2911564.83947  21940517.526    21940525.501
  24084149.417     7450475.55149   5823931.60345  24084149.350    24084165.248
  23585138.307    14921003.03949  11622414.47545  23585138.109    23585146.150
  23172396.919   -14032888.90049 -10557939.14846  23172396.934    23172405.675
  22641405.956    11487457.00649   8954496.01346  22641405.461    22641416.026
  20446062.044   -11630155.31649  -9038712.95848  20446061.846    20446067.946
 03  6  9 21 53  0.0000000  0  8G25G31G23G 3G18G11G15G14
  22508005.752   -16467186.07249 -12472399.64546  22508005.762    22508016.578
  23513716.546    -3339267.13149  -2585322.93746  23513716.272    23513728.808
  21947568.268     3612435.84149   2940434.93047  21947567.945    21947575.884
  24099613.639     7531739.38749   5887253.78745  24099613.534    24099629.563
  23598965.086    14993662.83849  11679032.43745  23598964.946    23598972.852
  23156106.829   -14118493.62449 -10624644.02946  23156106.841    23156115.512
  22660932.825    11590070.92049   9034454.80046  22660932.333    22660942.915
  20452204.850   -11597874.55249  -9013559.12148  20452204.633    20452210.768
 03  6  9 21 53 30.0000000  0  8G25G31G23G 3G18G11G15G14
  22490866.225   -16557253.88949 -12542582.15246  22490866.277    22490877.015
  23525743.022    -3276068.31649  -2536077.28946  23525742.747    23525755.436
  21954646.544     3649632.35849   2969419.21147  21954646.205    21954654.183
  24115092.576     7613080.49649   5950636.16545  24115092.468    24115108.600
  23612814.224    15066440.54149  11735742.26845  23612814.079    23612822.065
  23139869.809   -14203819.61449 -10691131.72846  23139869.801    23139878.456
  22680511.193    11692955.39849   9114624.39146  22680510.679    22680521.300
  20458418.801   -11565219.97149  -8988113.99348  20458418.592    20458424.710
 03  6  9 21 54  0.0000000  0  8G25G31G23G 3G18G11G15G14
  22473774.336   -16647071.61249 -12612569.78546  22473774.420    22473785.082
  23537827.460    -3212564.92349  -2486594.29346  23537827.161    23537839.884
  21961752.778     3686975.93049   2998518.07547  21961752.435    21961760.456
  24130585.586     7694495.97549   6014076.50145  24130585.513    24130601.759
  23626685.827    15139336.30749  11792544.10245  23626685.675    23626693.690
  23123686.260   -14288864.46449 -10757400.35446  23123686.215    23123694.787
  22700140.656    11796108.43949   9195003.24346  22700140.170    22700150.843
  20464703.533   -11532193.52849  -8962379.10648  20464703.301    20464709.434
 03  6  9 21 54 30.0000000  0  8G25G31G23G 3G18G11G15G14
  22456730.523   -16736636.51549 -12682360.42046  22456730.609    22456741.207
  23549969.135    -3148760.09949  -2436876.42445  23549968.866    23549981.723
  21968887.020     3724466.57549   3027731.54347  21968886.686    21968894.696
  24146092.245     7775982.83449   6077572.44645  24146092.178    24146108.443
  23640579.986    15212349.86549  11849437.70845  23640579.847    23640587.848
  23107556.576   -14373625.97049 -10823448.19546  23107556.542    23107565.078
  22719820.738    11899527.66949   9275589.53046  22719820.286    22719831.005
  20471058.675   -11498796.89749  -8936355.76748  20471058.451    20471064.626
 03  6  9 21 55  0.0000000  0  8G25G31G23G 3G18G11G15G14
  22439735.266   -16825945.85049 -12751951.90246  22439735.365    22439746.003
  23562167.791    -3084656.55649  -2386925.79345  23562167.511    23562180.339
  21976049.397     3762105.07549   3057060.21347  21976049.078    21976057.092
  24161611.988     7857538.56049   6141122.07145  24161611.874    24161628.261
  23654496.536    15285481.48049  11906423.31445  23654496.413    23654504.478
  23091481.388   -14458101.46349 -10889273.17846  23091481.371    23091489.887
  22739551.088    12003210.93449   9356381.54046  22739550.677    22739561.434
  20477483.966   -11465031.61649  -8910045.16748  20477483.753    20477489.953
 03  6  9 21 55 30.0000000  0  8G25G31G23G 3G18G11G15G14
  22422789.219   -16914996.79649 -12821342.04046  22422789.376    22422800.004
  23574422.746    -3020256.90149  -2336744.41745  23574422.437    23574435.289
  21983239.997     3799892.09149   3086504.61847  21983239.700    21983247.750
  24177144.255     7939160.26049   6204723.10245  24177144.261    24177160.655
  23668435.448    15358731.28749  11963501.00445  23668435.263    23668443.493
  23075460.990   -14542288.37549 -10954873.27646  23075461.020    23075469.572
  22759331.360    12107156.55349   9437377.97946  22759330.923    22759341.772
  20483979.051   -11430899.45449  -8883448.68548  20483978.867    20483985.090
 03  6  9 21 56  0.0000000  0  8G25G31G23G 3G18G11G15G14
  22405892.951   -17003786.59749 -12890528.71346  22405893.103    22405903.658
  23586733.446    -2955563.99649  -2286334.55845  23586733.215    23586746.154
  21990458.991     3837828.24349   3116065.23447  21990458.712    21990466.814
  24192688.454     8020845.08349   6268373.30045  24192688.480    24192705.052
  23682396.876    15432099.25749  12020670.79345  23682396.798    23682405.081
  23059496.032   -14626184.39749 -11020246.72846  23059496.064    23059504.550
  22779161.176    12211362.50549   9518577.28846  22779160.795    22779171.651
  20490543.627   -11396402.26549  -8856567.76848  20490543.462    20490549.691
 03  6  9 21 56 30.0000000  0  8G25G31G23G 3G18G11G15G14
  22389046.739   -17092313.12349 -12959510.24546  22389046.906    22389057.420
  23599099.349    -2890581.22349  -2235698.81445  23599099.064    23599112.191
  21997706.396     3875913.52949   3145742.04947  21997706.115    21997714.262
  24208244.225     8102589.80149   6332070.19645  24208244.181    24208260.725
  23696380.772    15505584.82449  12077932.18545  23696380.646    23696389.168
  23043586.851   -14709787.23949 -11085391.71846  23043586.857    23043595.394
  22799040.002    12315825.99049   9599977.25946  22799039.623    22799050.626
  20497177.290   -11361541.99749  -8829403.93848  20497177.130    20497183.408
 03  6  9 21 57  0.0000000  0  8G25G31G23G 3G18G11G15G14
  22372251.174   -17180573.46849 -13028284.36446  22372251.353    22372261.849
  23611519.948    -2825311.16849  -2184839.21245  23611519.685    23611532.877
  22004982.296     3914148.70049   3175535.66847  22004982.028    22004990.217
  24223810.816     8184391.60949   6395811.56245  24223810.894    24223827.459
  23710387.086    15579188.30649  12135285.48545  23710386.931    23710395.588
  23027733.892   -14793094.37449 -11150306.27546  23027733.932    23027742.527
  22818967.517    12420545.41249   9681576.66846  22818967.148    22818978.229
  20503879.719   -11326320.31449  -8801958.48148  20503879.580    20503885.897
 03  6  9 21 57 30.0000000  0  8G25G31G23G 3G18G11G15G14
  22355506.749   -17268564.94949 -13096848.96646  22355506.935    22355517.450
  23623994.541    -2759756.98749  -2133758.21245  23623994.348    23624007.655
  22012286.738     3952533.80149   3205446.10647  22012286.471    22012294.710
  24239387.609     8266247.42249   6459595.01645  24239387.751    24239404.521
  23724415.832    15652909.55649  12192730.54845  23724415.649    23724424.333
  23011937.652   -14876103.93649 -11214988.97946  23011937.658    23011946.228
  22838943.301    12525518.44949   9763373.69246  22838942.919    22838954.054
  20510650.556   -11290739.24249  -8774232.98048  20510650.422    20510656.766
 03  6  9 21 58  0.0000000  0  8G25G31G23G 3G18G11G15G14
  22338814.019   -17356284.93849 -13165202.02546  22338814.231    22338824.777
  23636522.784    -2693921.48149  -2082458.00545  23636522.595    23636535.865
  22019619.770     3991069.55449   3235473.94147  22019619.545    22019627.856
  24254974.321     8348154.50949   6523418.40245  24254974.450    24254991.205
  23738467.049    15726748.64549  12250267.44645  23738466.871    23738475.631
  22996198.506   -14958812.99549 -11279437.52446  22996198.524    22996207.122
  22858967.010    12630742.89049   9845366.62746  22858966.617    22858977.781
  20517489.426   -11254800.54149  -8746228.81148  20517489.308    20517495.677
 03  6  9 21 58 30.0000000  0  8G25G31G23G 3G18G11G15G14
  22322173.500   -17443730.73749 -13233341.42546  22322173.711    22322184.198
  23649104.062    -2627807.27249  -2030940.61345  23649103.886    23649117.164
  22026981.721     4029756.77449   3265619.80747  22026981.498    22026989.818
  24270570.349     8430110.51049   6587279.92645  24270570.403    24270587.170
  23752540.721    15800706.00149  12307896.48445  23752540.549    23752549.291
  22980517.023   -15041219.18449 -11343650.07446  22980517.089    22980525.661
  22879038.084    12736216.98849   9927554.08446  22879037.721    22879048.949
  20524396.118   -11218505.66749  -8717947.10248  20524396.006    20524402.391
 03  6  9 21 59  0.0000000  0  8G25G31G23G 3G18G11G15G14
  22305585.507   -17530900.37849 -13301265.64347  22305585.715    22305596.179
  23661737.686    -2561418.10149  -1979208.98845  23661737.520    23661750.808
  22034372.376     4068595.03549   3295883.37247  22034372.162    22034380.471
  24286174.887     8512111.73749   6651176.69445  24286174.991    24286191.755
  23766636.686    15874780.63749  12365616.91545  23766636.560    23766645.367
  22964893.554   -15123320.71449 -11407625.21646  22964893.635    22964902.190
  22899156.141    12841937.67949  10009933.70446  22899155.804    22899167.069
  20531370.053   -11181857.23649  -8689389.89448  20531369.968    20531376.356
 03  6  9 21 59 30.0000000  0  8G25G31G23G 3G18G11G15G14
  22289050.699   -17617790.78149 -13368972.28847  22289050.902    22289061.314
  23674423.158    -2494756.60049  -1927265.14845  23674422.958    23674436.293
  22041791.909     4107585.02649   3326265.15547  22041791.715    22041800.053
  24301787.485     8594155.52249   6715106.60945  24301787.641    24301804.534
  23780755.103    15948972.75949  12423428.88145  23780754.926    23780763.634
  22949328.456   -15205115.25249 -11471361.14246  22949328.541    22949337.193
  22919320.772    12947903.26249  10092504.12746  22919320.464    22919331.846
  20538411.054   -11144856.58449  -8660558.23248  20538410.964    20538417.378
 03  6  9 22  0  0.0000000  0  8G25G31G23G 3G18G11G15G14
  22272569.533   -17704399.10749 -13436459.13347  22272569.761    22272580.165
  23687159.869    -2427825.23349  -1875111.02145  23687159.749    23687173.055
  22049240.572     4146727.82549   3356766.00947  22049240.358    22049248.698
  24317407.766     8676239.50249   6779067.85245  24317407.889    24317424.947
  23794895.924    16023282.90149  12481332.82345  23794895.787    23794904.298
  22933822.330   -15286600.00549 -11534855.69046  22933822.426    22933831.112
  22939531.745    13054112.18549  10175264.17946  22939531.393    22939542.824
  20545518.799   -11107505.18349  -8631453.25848  20545518.703    20545525.141
 03  6  9 22  0 30.0000000  0  8G25G31G23G 3G18G11G15G14
  22256142.448   -17790723.25049 -13503724.52847  22256142.673    22256153.034
  23699947.467    -2360627.16649  -1822749.08745  23699947.367    23699960.609
  22056718.326     4186023.67449   3387386.12647  22056718.151    22056726.494
  24333035.350     8758360.84049   6843058.19845  24333035.349    24333052.390
  23809059.145    16097710.94349  12539328.61345  23809058.982    23809067.621
  22918375.815   -15367771.99549 -11598106.52346  22918375.928    22918384.589
  22959788.546    13160561.82149  10258211.79846  22959788.229    22959799.647
  20552692.895   -11069805.05549  -8602076.54748  20552692.817    20552699.244
 03  6  9 22  1  0.0000000  0  8G25G31G23G 3G18G11G15G14
  22239770.171   -17876759.59649 -13570765.67247  22239770.368    22239780.707
  23712785.293    -2293164.81249  -1770181.21745  23712785.160    23712798.501
  22064225.422     4225473.52749   3418126.24747  22064225.245    22064233.598
  24348669.447     8840517.13649   6907075.80045  24348669.376    24348686.459
  23823244.837    16172257.21749  12597416.52645  23823244.730    23823253.350
  22902989.301   -15448628.79249 -11661111.75746  22902989.410    22902998.058
  22980090.812    13267250.55749  10341345.73146  22980090.545    22980101.938
  20559933.130   -11031757.54849  -8572429.15148  20559933.034    20559939.440
 03  6  9 22  1 30.0000000  0  8G25G31G23G 3G18G11G15G14
  22223452.915   -17962506.50749 -13637581.28647  22223453.124    22223463.420
  23725672.608    -2225441.77949  -1717410.21245  23725672.528    23725685.891
  22071761.826     4265077.33949   3448986.33847  22071761.607    22071770.004
  24364309.365     8922704.79549   6971117.83145  24364309.379    24364326.581
  23837452.913    16246920.97649  12655595.98345  23837452.745    23837461.278
  22887663.050   -15529168.77549 -11723870.12746  22887663.160    22887671.771
  23000438.047    13374175.61449  10424663.78146  23000437.758    23000449.271
  20567238.949   -10993365.15449  -8542513.01148  20567238.857    20567245.278
 03  6  9 22  2  0.0000000  0  8G25G31G23G 3G18G11G15G14
  22207191.301   -18047961.10349 -13704169.12547  22207191.531    22207201.766
  23738608.984    -2157461.07149  -1664438.42245  23738608.893    23738622.338
  22079327.561     4304835.56149   3479966.75147  22079327.360    22079335.785
  24379954.747     9004921.16949   7035182.23845  24379954.898    24379972.215
  23851683.335    16321702.49649  12713867.21345  23851683.224    23851691.831
  22872397.481   -15609389.47049 -11786379.69146  22872397.579    22872406.190
  23020829.937    13481334.98149  10508164.42346  23020829.651    23020841.249
  20574610.100   -10954629.65249  -8512329.50948  20574610.014    20574616.448
 03  6  9 22  2 30.0000000  0  8G25G31G23G 3G18G11G15G14
  22190985.831   -18133121.26149 -13770527.54447  22190986.011    22190996.152
  23751593.852    -2089225.66549  -1611268.16845  23751593.834    23751607.312
  22086922.801     4344748.56549   3511067.77447  22086922.592    22086931.044
  24395605.024     9087162.87149   7099266.38345  24395605.113    24395622.349
  23865936.136    16396601.40349  12772229.92645  23865936.026    23865944.713
  22857193.171   -15689288.54149 -11848638.64146  22857193.274    22857201.843
  23041265.873    13588726.03349  10591845.60246  23041265.614    23041277.235
  20582046.145   -10915552.93549  -8481880.13248  20582046.056    20582052.520
 03  6  9 22  3  0.0000000  0  8G25G31G23G 3G18G11G15G14
  22174836.761   -18217984.31649 -13836654.45747  22174836.950    22174847.042
  23764626.646    -2020738.63949  -1557901.87045  23764626.571    23764640.161
  22094547.543     4384816.79549   3542289.73947  22094547.333    22094555.750
  24411259.686     9169427.35049   7163368.28045  24411259.706    24411277.153
  23880211.295    16471617.49649  12830683.94345  23880211.203    23880219.857
  22842050.495   -15768863.77749 -11910645.25846  22842050.538    22842059.015
  23061745.496    13696346.67049  10675705.67046  23061745.236    23061756.965
  20589546.718   -10876137.07049  -8451166.48248  20589546.634    20589553.098
 03  6  9 22  3 30.0000000  0  8G25G31G23G 3G18G11G15G14
  22158744.744   -18302547.56049 -13902547.74347  22158744.970    22158755.020
  23777706.762    -1952003.04949  -1504341.88445  23777706.606    23777720.342
  22102201.922     4425040.59349   3573632.93547  22102201.694    22102210.071
  24426918.113     9251711.56149   7227485.54045  24426918.046    24426935.556
  23894508.795    16546751.04049  12889229.47145  23894508.665    23894517.461
  22826969.832   -15848113.00949 -11972397.84846  22826969.858    22826978.266
  23082268.439    13804194.42749  10759742.72946  23082268.168    23082279.766
  20597111.552   -10836383.75049  -8420189.88048  20597111.466    20597117.900
 03  6  9 22  4  0.0000000  0  8G25G31G23G 3G18G11G15G14
  22142710.417   -18386808.32449 -13968205.34147  22142710.621    22142720.572
  23790833.597    -1883021.62049  -1450590.33845  23790833.428    23790847.285
  22109886.008     4465420.81349   3605098.01147  22109885.764    22109894.119
  24442579.900     9334013.02949   7291616.24245  24442579.784    24442597.285
  23908828.685    16622002.09749  12947866.58245  23908828.592    23908837.361
  22811951.742   -15927033.35949 -12033894.15946  22811951.805    22811960.080
  23102834.255    13912267.56249  10843955.40046  23102833.961    23102845.509
  20604740.294   -10796294.59649  -8388951.59248  20604740.175    20604746.593
 03  6  9 22  4 30.0000000  0  8G25G31G23G 3G18G11G15G14
  22126734.162   -18470763.76749 -14033625.02547  22126734.311    22126744.183
  23804006.711    -1813797.09249  -1396649.36145  23804006.608    23804020.521
  22117600.038     4505958.08449   3636685.45547  22117599.784    22117608.096
  24458244.292     9416329.13249   7355758.35545  24458244.229    24458261.766
  23923171.073    16697370.83549  13006595.39745  23923170.973    23923179.628
  22796996.612   -16005622.57949 -12095132.45746  22796996.668    22797004.925
  23123442.596    14020564.33049  10928342.33446  23123442.254    23123453.813
  20612432.610   -10755871.27449  -8357452.91348  20612432.480    20612438.889
 03  6  9 22  5  0.0000000  0  8G25G31G23G 3G18G11G15G14
  22110816.379   -18554411.74449 -14098805.12547  22110816.530    22110826.318
  23817225.486    -1744332.60649  -1342521.39845  23817225.358    23817239.348
  22125344.003     4546652.60249   3668395.45347  22125343.723    22125352.002
  24473910.956     9498656.78349   7419909.46145  24473910.844    24473928.466
  23937535.722    16772856.94849  13065415.67545  23937535.649    23937544.327
  22782105.033   -16083878.20749 -12156110.80646  22782105.097    22782113.354
  23144093.010    14129082.32549  11012901.64346  23144092.688    23144104.294
  20620188.170   -10715115.86749  -8325695.46748  20620188.031    20620194.397
 03  6  9 22  5 30.0000000  0  8G25G31G23G 3G18G11G15G14
  22094957.611   -18637749.73249 -14163743.68247  22094957.749    22094967.485
  23830489.359    -1674631.15049  -1288208.78845  23830489.215    23830503.238
  22133117.962     4587504.90049   3700228.38147  22133117.672    22133125.955
  24489579.356     9580993.48449   7484067.64545  24489579.316    24489596.906
  23951922.760    16848460.50249  13124327.44745  23951922.649    23951931.363
  22767277.296   -16161798.19549 -12216827.62546  22767277.332    22767285.598
  23164784.969    14237818.84949  11097631.23446  23164784.643    23164796.237
  20628006.528   -10674030.13549  -8293680.62748  20628006.358    20628012.721
 03  6  9 22  6  0.0000000  0  8G25G31G23G 3G18G11G15G14
  22079158.329   -18720775.00049 -14228438.56047  22079158.447    22079168.153
  23843797.873    -1604695.70249  -1233713.85345  23843797.732    23843811.672
  22140922.094     4628515.71849   3732184.82547  22140921.829    22140930.113
  24505249.043     9663336.56449   7548230.77745  24505249.038    24505266.671
  23966332.089    16924181.45749  13183330.72145  23966332.013    23966340.687
  22752513.933   -16239379.92349 -12277280.86646  22752514.022    22752522.250
  23185518.067    14346771.74849  11182529.42446  23185517.780    23185529.462
  20635887.394   -10632615.90549  -8261409.80948  20635887.242    20635893.595
 03  6  9 22  6 30.0000000  0  8G25G31G23G 3G18G11G15G14
  22063418.826   -18803485.86249 -14292888.45447  22063418.983    22063428.636
  23857150.247    -1534529.67749  -1179039.24345  23857150.058    23857164.022
  22148756.389     4669684.90249   3764264.67847  22148756.115    22148764.394
  24520919.178     9745682.53849   7612396.17745  24520919.120    24520936.982
  23980763.736    17000019.31649  13242425.07545  23980763.672    23980772.217
  22737815.309   -16316621.73849 -12337469.23746  22737815.358    22737823.604
  23206291.965    14455938.41649  11267594.19546  23206291.639    23206303.361
  20643830.318   -10590875.63149  -8228884.93848  20643830.174    20643836.521
 03  6  9 22  7  0.0000000  0  8G25G31G23G 3G18G11G15G14
  22047739.877   -18885878.96049 -14357090.75647  22047739.997    22047749.587
  23870546.084    -1464135.49749  -1124186.84945  23870545.884    23870559.793
  22156620.945     4711013.46149   3796468.71047  22156620.681    22156628.979
  24536589.331     9828028.93949   7676561.89645  24536589.313    24536607.051
  23995217.650    17075974.50649  13301610.85745  23995217.536    23995226.163
  22723181.935   -16393520.47549 -12397390.28746  22723181.999    22723190.243
  23227106.235    14565317.21749  11352824.25546  23227105.869    23227117.575
  20651835.055   -10548810.62949  -8196107.03548  20651834.892    20651841.224
 03  6  9 22  7 30.0000000  0  8G25G31G23G 3G18G11G15G14
  22032121.832   -18967952.01249 -14421043.65847  22032121.910    22032131.450
  23883984.627    -1393516.48649  -1069159.26945  23883984.401    23883998.317
  22164515.947     4752501.66549   3828797.14347  22164515.685    22164523.955
  24552259.102     9910372.96649   7740725.76845  24552258.924    24552276.924
  24009693.734    17152046.74049  13360887.82345  24009693.635    24009702.352
  22708614.204   -16470074.18549 -12457042.48046  22708614.283    22708622.534
  23247960.367    14674905.87949  11438217.84246  23247959.992    23247971.710
  20659901.208   -10506422.77349  -8163077.55348  20659901.048    20659907.366
 03  6  9 22  8  0.0000000  0  8G25G31G23G 3G18G11G15G14
  22016565.116   -19049702.49849 -14484745.22347  22016565.199    22016574.655
  23897465.376    -1322675.48649  -1013958.71445  23897465.179    23897479.072
  22172441.403     4794150.15649   3861250.47847  22172441.148    22172449.379
  24567927.883     9992712.14849   7804885.86445  24567927.767    24567945.911
  24024192.127    17228236.06949  13420256.04145  24024191.998    24024200.748
  22694112.766   -16546280.30749 -12516423.83146  22694112.763    22694121.014
  23268853.980    14784702.13949  11523773.19345  23268853.637    23268865.391
  20668028.480   -10463713.77849  -8129797.83948  20668028.292    20668034.610
 03  6  9 22  8 30.0000000  0  8G25G31G23G 3G18G11G15G14
  22001070.365   -19131127.81949 -14548193.41347  22001070.416    22001079.772
  23910987.826    -1251615.42349   -958587.46345  23910987.578    23911001.601
  22180397.545     4835959.40849   3893829.07847  22180397.280    22180405.461
  24583595.250    10075043.65849   7869039.96645  24583595.022    24583613.395
  24038712.841    17304542.71949  13479715.67845  24038712.635    24038721.350
  22679677.795   -16622136.56149 -12575532.55046  22679677.766    22679685.969
  23289786.776    14894703.89549  11609488.68345  23289786.396    23289798.137
  20676216.495   -10420685.50549  -8096269.33748  20676216.343    20676222.639
 03  6  9 22  9  0.0000000  0  8G25G31G23G 3G18G11G15G14
  21985637.875   -19212225.59349 -14611386.36047  21985637.930    21985647.252
  23924551.296    -1180339.43649   -903047.95145  23924551.067    23924565.186
  22188384.329     4877929.93149   3926533.35047  22188384.041    22188392.188
  24599260.679    10157364.63049   7933185.88045  24599260.366    24599278.958
  24053255.820    17380966.49549  13539266.58045  24053255.567    24053264.192
  22665309.785   -16697640.69349 -12634366.88846  22665309.803    22665317.964
  23310758.198    15004908.62349  11695362.34445  23310757.798    23310769.576
  20684464.942   -10377339.94549  -8062493.59048  20684464.763    20684471.053
 03  6  9 22  9 30.0000000  0  8G25G31G23G 3G18G11G15G14
  21970268.169   -19292993.28849 -14674322.11847  21970268.250    21970277.527
  23938155.399    -1108850.47249   -847342.49345  23938155.120    23938169.316
  22196401.828     4920062.14449   3959363.60647  22196401.531    22196409.726
  24614923.551    10239672.34849   7997321.46345  24614923.313    24614941.789
  24067821.025    17457507.25149  13598908.63645  24067820.775    24067829.438
  22651009.227   -16772790.52249 -12692925.14546  22651009.233    22651017.316
  23331767.759    15115314.00449  11781392.35445  23331767.303    23331779.083
  20692773.418   -10333678.68449  -8028471.85248  20692773.231    20692779.531
 03  6  9 22 10  0.0000000  0  8G25G31G23G 3G18G11G15G14
  21954961.859   -19373428.25049 -14736998.59947  21954961.926    21954971.143
  23951799.410    -1037151.21049   -791473.16645  23951799.193    23951813.369
  22204450.309     4962357.08449   3992320.67147  22204450.009    22204458.260
  24630583.428    10321964.36749   8061444.80345  24630583.211    24630601.813
  24082408.439    17534165.24949  13658642.06745  24082408.176    24082416.847
  22636776.571   -16847583.15949 -12751205.07246  22636776.586    22636784.664
  23352815.206    15225918.47349  11867577.47045  23352814.802    23352826.658
  20701141.609   -10289703.67749  -7994205.62748  20701141.418    20701147.710
 03  6  9 22 10 30.0000000  0  8G25G31G23G 3G18G11G15G14
  21939719.213   -19453528.60649 -14799414.36347  21939719.299    21939728.458
  23965482.895     -965245.10049   -735442.66845  23965482.701    23965496.947
  22212529.787     5004814.71149   4025404.50247  22212529.486    22212537.771
  24646239.821    10404237.41149   8125553.36345  24646239.593    24646258.161
  24097018.202    17610939.96049  13718466.41845  24097017.822    24097026.512
  22622612.337   -16922016.77949 -12809205.23846  22622612.322    22622620.395
  23373900.030    15336719.11949  11953915.45645  23373899.626    23373911.517
  20709569.160   -10245416.89349  -7959696.46348  20709568.954    20709575.234
 03  6  9 22 11  0.0000000  0  8G25G31G23G 3G18G11G15G14
  21924540.685   -19533291.90249 -14861567.47647  21924540.776    21924549.902
  23979205.106     -893135.25149   -679253.41345  23979204.882    23979219.223
  22220640.228     5047435.37849   4058615.36947  22220639.931    22220648.234
  24661891.981    10486488.53149   8189644.84645  24661891.767    24661910.418
  24111650.147    17687831.11449  13778381.51745  24111649.791    24111658.550
  22608516.694   -16996089.52749 -12866924.22346  22608516.660    22608524.720
  23395021.725    15447713.53049  12040404.43045  23395021.314    23395033.293
  20718055.590   -10200820.43649  -7924945.99648  20718055.379    20718061.665
 03  6  9 22 11 30.0000000  0  8G25G31G23G 3G18G11G15G14
  21909426.805   -19612715.53049 -14923455.91847  21909426.890    21909435.979
  23992965.574     -820824.50649   -622907.61445  23992965.275    23992979.784
  22228781.835     5090219.71249   4091953.76647  22228781.515    22228789.901
  24677539.472    10568715.39349   8253717.41845  24677539.325    24677558.028
  24126304.379    17764838.82649  13838387.44745  24126304.077    24126312.700
  22594490.177   -17069798.73749 -12924359.92446  22594490.200    22594498.203
  23416179.940    15558899.72049  12127042.83545  23416179.496    23416191.508
  20726600.651   -10155916.02449  -7889955.56648  20726600.453    20726606.716
 03  6  9 22 12  0.0000000  0  8G25G31G23G 3G18G11G15G14
  21894378.074   -19691796.71149 -14985077.51647  21894378.138    21894387.239
  24006763.698     -748315.85749   -566407.60845  24006763.393    24006777.986
  22236954.676     5133168.22349   4125420.09547  22236954.357    22236962.819
  24693181.890    10650915.26549   8317768.95345  24693181.716    24693200.421
  24140980.777    17841963.47049  13898484.47645  24140980.537    24140989.117
  22580533.395   -17143141.81549 -12981510.33346  22580533.422    22580541.449
  23437374.132    15670275.30049  12213828.79845  23437373.694    23437385.789
  20735203.983   -10110705.24049  -7854726.40248  20735203.787    20735210.054
 03  6  9 22 12 30.0000000  0  8G25G31G23G 3G18G11G15G14
  21879394.899   -19770533.58049 -15046430.82447  21879394.950    21879404.007
  24020598.841     -675612.52849   -509755.89045  24020598.605    24020613.279
  22245158.786     5176281.10449   4159014.50647  22245158.467    22245166.933
  24708818.544    10733085.03149   8381797.04745  24708818.301    24708836.962
  24155679.429    17919204.57449  13958672.27245  24155679.161    24155687.802
  22566646.740   -17216116.80949 -13038373.91446  22566646.726    22566654.705
  23458603.871    15781837.66449  12300760.31245  23458603.416    23458615.576
  20743865.229   -10065190.40649  -7819260.31448  20743865.011    20743871.263
 03  6  9 22 13  0.0000000  0  8G25G31G23G 3G18G11G15G14
  21864477.733   -19848923.56349 -15107513.83147  21864477.797    21864486.784
  24034470.630     -602717.45149   -452954.76345  24034470.292    24034484.961
  22253394.349     5219559.00749   4192737.51246  22253393.996    22253402.426
  24724449.006    10815222.41149   8445799.88945  24724448.859    24724467.438
  24170400.186    17996562.09249  14018950.75145  24170399.910    24170408.528
  22552830.543   -17288721.65049 -13094949.07646  22552830.470    22552838.385
  23479868.755    15893584.78249  12387835.78645  23479868.305    23479880.453
  20752583.937   -10019373.22949  -7783558.64148  20752583.735    20752590.004
 03  6  9 22 13 30.0000000  0  8G25G31G23G 3G18G11G15G14
  21849626.910   -19926964.55649 -15168324.89947  21849626.988    21849635.963
  24048378.239     -529633.74749   -396006.66045  24048377.894    24048392.460
  22261661.427     5263002.51849   4226589.56346  22261661.093    22261669.472
  24740072.852    10897324.49349   8509775.22745  24740072.583    24740091.332
  24185143.001    18074035.58349  14079319.60745  24185142.715    24185151.381
  22539085.135   -17360954.00549 -13151233.98146  22539085.086    22539093.017
  23501168.442    16005514.35749  12475053.45245  23501168.019    23501180.013
  20761359.862    -9973255.60449  -7747622.84348  20761359.660    20761365.925
 03  6  9 22 14  0.0000000  0  8G25G31G23G 3G18G11G15G14
  21834843.109   -20004653.46349 -15228861.62047  21834843.183    21834852.156
  24062321.162     -456364.00849   -338913.59545  24062320.881    24062335.421
  22269960.155     5306612.39249   4260571.24646  22269959.817    22269968.154
  24755689.442    10979388.92249   8573721.24145  24755689.302    24755707.963
  24199907.880    18151625.47149  14139779.16645  24199907.652    24199916.389
  22525411.111   -17432811.37349 -13207226.69546  22525411.042    22525419.014
  23522502.386    16117624.62549  12562411.90845  23522501.931    23522514.030
  20770192.635    -9926839.00949  -7711454.08948  20770192.445    20770198.732
 03  6  9 22 14 30.0000000  0  8G25G31G23G 3G18G11G15G14
  21820126.711   -20081988.22749 -15289122.38647  21820126.771    21820135.748
  24076298.966     -382911.16749   -281677.85145  24076298.655    24076313.298
  22278290.676     5350389.13549   4294682.94546  22278290.320    22278298.573
  24771298.319    11061412.98949   8637635.80445  24771298.157    24771316.946
  24214694.997    18229332.10949  14200329.67745  24214694.816    24214703.636
  22511808.940   -17504291.14549 -13262925.18246  22511808.889    22511816.832
  23543870.290    16229913.11849  12649909.22845  23543869.838    23543882.036
  20779081.958    -9880125.26449  -7675053.78748  20779081.771    20779088.054
 03  6  9 22 15  0.0000000  0  8G25G31G23G 3G18G11G15G14
  21805477.970   -20158967.34449 -15349106.01947  21805478.042    21805487.015
  24090310.857     -309279.07249   -224302.43545  24090310.535    24090325.183
  22286652.871     5394332.41849   4328924.43546  22286652.521    22286660.753
  24786898.765    11143393.38949   8701516.32345  24786898.676    24786917.748
  24229504.116    18307154.46649  14260970.37545  24229503.884    24229512.829
  22498278.909   -17575391.98549 -13318328.38946  22498278.846    22498286.738
  23565271.668    16342377.05049  12737543.24745  23565271.241    23565283.391
  20788027.362    -9833116.99049  -7638423.97748  20788027.148    20788033.459
 03  6  9 22 15 30.0000000  0  8G25G31G23G 3G18G11G15G14
  21790897.614   -20235587.34049 -15408809.83247  21790897.695    21790906.566
  24104356.521     -235469.94349   -166789.06045  24104356.151    24104370.879
  22295047.052     5438443.64749   4363296.77846  22295046.710    22295054.906
  24802490.633    11225327.91349   8765361.10845  24802490.513    24802509.571
  24244335.390    18385093.32249  14321701.83645  24244335.186    24244344.273
  22484821.556   -17646110.82549 -13373433.94346  22484821.482    22484829.382
  23586706.145    16455014.75749  12825312.68445  23586705.763    23586717.926
  20797028.596    -9785815.30449  -7601565.54048  20797028.387    20797034.671
 03  6  9 22 16  0.0000000  0  7G25G31G23G18G11G15G14
  21776386.196   -20311845.31849 -15468231.54247  21776386.232    21776395.071
  24118435.428     -161486.16749   -109139.60945  24118435.025    24118449.820
  22303473.343     5482723.86849   4397800.80646  22303472.987    22303481.235
  24259188.886    18463148.95349  14382524.29045  24259188.653    24259197.973
  22471437.349   -17716444.85349 -13428239.64546  22471437.328    22471445.178
  23608173.319    16567824.41249  12913216.10745  23608172.971    23608185.166
  20806085.454    -9738221.30949  -7564479.32348  20806085.237    20806091.472
 03  6  9 22 16 30.0000000  0  7G25G31G23G18G11G15G14
  21761944.905   -20387734.45249 -15527365.85047  21761944.949    21761953.769
  24132547.697      -87326.16049    -51352.83945  24132547.364    24132562.240
  22311932.739     5527178.20249   4432440.50246  22311932.380    22311940.658
  24274065.581    18541325.86949  14443441.23645  24274065.344    24274074.711
  22458127.749   -17786387.12049 -13482740.07046  22458127.722    22458135.523
  23629673.571    16680808.35249  13001255.32045  23629673.247    23629685.508
  20815198.436    -9690332.21349  -7527163.16048  20815198.238    20815204.490
 03  6  9 22 17  0.0000000  0  7G25G31G23G18G11G15G14
  21747572.636   -20463260.90549 -15586217.55447  21747572.689    21747581.487
  24146691.295      -13001.44249      6562.28645  24146691.083    24146705.950
  22320423.750     5571798.64649   4467209.63446  22320423.372    22320431.701
  24288963.782    18619615.69949  14504446.16345  24288963.540    24288972.915
  22444891.499   -17855943.99349 -13536940.19246  22444891.454    22444899.233
  23651204.992    16793955.80449  13089421.94945  23651204.522    23651216.982
  20824365.602    -9642158.55949  -7489625.26848  20824365.392    20824371.641
 03  6  9 22 17 30.0000000  0  7G25G31G23G18G11G15G14
  21733270.007   -20538421.12049 -15644783.86947  21733270.050    21733278.884
  24160865.909       61485.83649     64604.07245  24160865.641    24160880.484
  22328946.635     5616586.58149   4502109.28046  22328946.292    22328954.625
  24303883.563    18698019.19649  14565539.68745  24303883.331    24303892.586
  22431729.208   -17925112.27349 -13590837.51446  22431729.117    22431736.881
  23672767.262    16907265.46249  13177714.95445  23672766.794    23672779.279
  20833586.772    -9593701.14849  -7451866.26748  20833586.548    20833592.791
 03  6  9 22 18  0.0000000  0  7G25G31G23G18G11G15G14
  21719037.673   -20613212.20549 -15703062.55547  21719037.713    21719046.520
  24175071.138      136134.02149    122771.25045  24175070.817    24175085.805
  22337501.744     5661543.85149   4537140.87546  22337501.389    22337509.693
  24318825.264    18776537.49949  14626722.67545  24318825.007    24318834.330
  22418641.479   -17993888.61449 -13644429.42646  22418641.387    22418649.106
  23694360.208    17020736.28449  13266133.53445  23694359.746    23694372.244
  20842861.832    -9544960.36549  -7413886.46048  20842861.617    20842867.867
 03  6  9 22 18 30.0000000  0  7G25G31G23G18G11G15G14
  21704876.291   -20687630.73949 -15761050.94647  21704876.317    21704885.114
  24189306.624      210940.68849    181061.89945  24189306.201    24189321.271
  22346089.305     5706671.42449   4572305.16946  22346088.925    22346097.189
  24333788.866    18855171.04249  14687995.46045  24333788.558    24333797.992
  22405628.853   -18062270.24349 -13697713.77646  22405628.766    22405636.471
  23715983.487    17134366.61549  13354676.40345  23715983.056    23715995.646
  20852190.592    -9495937.70449  -7375687.01448  20852190.369    20852196.583
 03  6  9 22 19  0.0000000  0  7G25G31G23G18G11G15G14
  21690786.152   -20761674.55449 -15818747.34247  21690786.171    21690794.982
  24203571.650      285902.83949    239473.71445  24203571.226    24203586.315
  22354709.309     5751969.91649   4607602.65046  22354708.967    22354717.219
  24348774.323    18933919.91949  14749358.11045  24348774.104    24348783.542
  22392691.784   -18130254.75349 -13750688.69146  22392691.712    22392699.417
  23737636.680    17248153.97849  13443341.61345  23737636.286    23737648.908
  20861572.669    -9446634.81849  -7337269.21448  20861572.424    20861578.639
 03  6  9 22 19 30.0000000  0  7G25G31G23G18G11G15G14
  21676767.792   -20835341.20749 -15876149.85347  21676767.816    21676776.622
  24217865.630      361017.44049    298004.32245  24217865.150    24217880.419
  22363361.981     5797439.83749   4643033.71746  22363361.627    22363369.938
  24363781.804    19012784.02349  14810810.54445  24363781.594    24363791.032
  22379830.790   -18197839.86949 -13803352.38646  22379830.696    22379838.379
  23759319.386    17362096.24349  13532127.53745  23759318.895    23759331.602
  20871007.659    -9397053.68049  -7298634.58948  20871007.422    20871013.648
 03  6  9 22 20  0.0000000  0  7G25G31G23G18G11G15G14
  21662821.527   -20908629.13849 -15933257.25247  21662821.541    21662830.332
  24232188.085      436281.16849    356651.11545  24232187.625    24232202.903
  22372047.337     5843081.42949   4678598.54346  22372046.974    22372055.311
  24378811.087    19091762.52849  14872352.10245  24378810.910    24378820.273
  22367046.150   -18265023.71749 -13855703.40546  22367046.016    22367053.750
  23781031.067    17476190.77649  13621032.07845  23781030.574    23781043.283
  20880495.175    -9347196.49149  -7259784.85248  20880494.944    20880501.162
 03  6  9 22 20 30.0000000  0  7G25G31G23G18G11G15G14
  21648947.879   -20981535.29949 -15990067.18047  21648947.915    21648956.672
  24246538.346      511691.29749    415411.97945  24246537.920    24246553.277
  22380765.473     5888895.43649   4714297.70946  22380765.119    22380773.484
  24393862.229    19170856.08049  14933983.30345  24393861.991    24393871.457
  22354338.207   -18331804.13049 -13907740.07146  22354338.114    22354345.848
  23802771.369    17590435.59249  13710053.74845  23802770.914    23802783.611
  20890034.936    -9297064.71149  -7220721.16348  20890034.700    20890040.930
 03  6  9 22 21  0.0000000  0  7G25G31G23G18G11G15G14
  21635147.353   -21054057.31949 -16046577.78347  21635147.389    21635156.076
  24260915.943      587245.25149    474284.91645  24260915.537    24260930.982
  22389516.642     5934882.60449   4750131.81046  22389516.260    22389524.638
  24408935.278    19250064.91849  14995704.34545  24408935.066    24408944.266
  22341707.520   -18398178.64749 -13959460.44846  22341707.448    22341715.204
  23824539.893    17704828.76749  13799191.00545  23824539.464    23824552.054
  20899626.664    -9246659.72649  -7181444.58548  20899626.460    20899632.712
 03  6  9 22 21 30.0000000  0  7G25G31G23G18G11G15G14
  21621420.225   -21126193.43049 -16102787.67447  21621420.262    21621428.944
  24275320.304      662939.68649    533267.31445  24275319.955    24275335.574
  22398300.729     5981043.16949   4786101.02146  22398300.349    22398308.789
  24424030.238    19329388.52149  15057514.82145  24424030.036    24424039.118
  22329154.504   -18464145.22049 -14010862.95646  22329154.428    22329162.119
  23846336.079    17819367.67149  13888441.81245  23846335.705    23846348.380
  20909269.972    -9195983.70749  -7141956.82148  20909269.784    20909276.082
 03  6  9 22 22  0.0000000  0  7G25G31G23G18G11G15G14
  21607766.878   -21197941.59149 -16158695.27247  21607766.944    21607775.660
  24289750.736      738771.36749    592356.66745  24289750.395    24289766.165
  22407117.895     6027377.54649   4822205.66846  22407117.555    22407126.027
  24439146.907    19408826.71049  15119414.60245  24439146.631    24439155.719
  22316679.492   -18529701.57749 -14061945.80746  22316679.414    22316687.106
  23868159.577    17934049.76049  13977804.18245  23868159.147    23868171.962
  20918964.508    -9145038.67649  -7102259.43048  20918964.332    20918970.672
 03  6  9 22 22 30.0000000  0  7G25G31G23G18G11G15G14
  21594188.007   -21269298.79849 -16214298.23847  21594188.085    21594196.830
  24304206.852      814737.85949    651551.04745  24304206.567    24304222.431
  22415968.332     6073886.65049   4858446.45946  22415968.008    22415976.525
  24454285.414    19488379.58149  15181403.72645  24454285.121    24454294.283
  22304282.960   -18594845.49349 -14112707.29246  22304282.916    22304290.640
  23890009.933    18048872.94849  14067276.46345  23890009.510    23890022.389
  20928709.970    -9093825.85749  -7062353.37948  20928709.796    20928716.199
 03  6  9 22 23  0.0000000  0  7G25G31G23G18G11G15G14
  21580683.756   -21340263.66149 -16269595.48147  21580683.854    21580692.633
  24318688.027      890835.55449    710847.65045  24318687.752    24318703.602
  22424851.964     6120570.58349   4894823.47546  22424851.658    22424860.264
  24469445.659    19568046.68049  15243481.80745  24469445.325    24469454.331
  22291965.228   -18659575.26449 -14163146.06346  22291965.204    22291972.996
  23911886.722    18163834.78849  14156856.77845  23911886.236    23911899.284
  20938505.968    -9042347.59549  -7022240.49747  20938505.784    20938512.234
 03  6  9 22 23 30.0000000  0  7G25G31G23G18G11G15G14
  21567254.652   -21410833.76849 -16324585.10147  21567254.780    21567263.572
  24333193.543      967062.20849    770244.77645  24333193.300    24333209.484
  22433769.051     6167430.19449   4931337.40446  22433768.735    22433777.435
  24484627.582    19647828.34849  15305649.24445  24484627.276    24484636.533
  22279726.882   -18723888.01149 -14213259.86847  22279726.826    22279734.674
  23933789.463    18278933.42549  14246543.72945  23933789.031    23933802.210
  20948352.234    -8990605.26449  -6981921.83347  20948352.058    20948358.526
 03  6  9 22 24  0.0000000  0  7G25G31G23G18G11G15G14
  21553901.181   -21481006.62549 -16379265.18447  21553901.315    21553910.042
  24347722.930     1043414.48449    829739.78945  24347722.832    24347739.093
  22442719.638     6214465.82449   4967988.48846  22442719.349    22442728.066
  24499831.260    19727724.51749  15367905.87445  24499831.060    24499840.266
  22267568.198   -18787782.00749 -14263047.37147  22267568.183    22267576.036
  23955717.751    18394166.25649  14336335.24045  23955717.361    23955730.590
  20958248.387    -8938600.60149  -6941398.75747  20958248.237    20958254.729
 03  6  9 22 24 30.0000000  0  7G25G31G23G18G11G15G14
  21540623.731   -21550779.98649 -16433633.96947  21540623.876    21540632.534
  24362275.822     1119889.49149    889330.43445  24362275.748    24362292.100
  22451703.859     6261678.19249   5004777.28546  22451703.599    22451712.314
  24515056.909    19807735.06549  15430251.65845  24515056.569    24515066.009
  22255489.633   -18851254.97849 -14312506.81447  22255489.665    22255497.510
  23977671.104    18509531.04549  14426229.56045  23977670.775    23977683.990
  20968194.127    -8886335.60549  -6900672.83047  20968194.001    20968200.518
 03  6  9 22 25  0.0000000  0  7G25G31G23G18G11G15G14
  21527422.553   -21620152.31149 -16487690.26247  21527422.706    21527431.351
  24376851.374     1196483.80549    949014.04545  24376851.347    24376867.772
  22460721.725     6309067.19649   5041703.71446  22460721.456    22460730.204
  24530303.932    19887859.27149  15492685.93845  24530303.674    24530313.549
  22243491.536   -18914305.36249 -14361636.96947  22243491.561    22243499.459
  23999649.087    18625025.03849  14516224.55845  23999648.778    23999662.120
  20978188.995    -8833812.44649  -6859745.74147  20978188.862    20978195.413
 03  6  9 22 25 30.0000000  0  7G25G31G23G18G11G15G14
  21514298.158   -21689121.20949 -16541432.19447  21514298.321    21514306.989
  24391449.222     1273194.73949   1008788.50745  24391449.230    24391465.596
  22469773.341     6356633.70149   5078768.44346  22469773.100    22469781.898
  24545572.733    19968097.30449  15555208.93045  24545572.534    24545582.769
  22231574.366   -18976930.62149 -14410435.86347  22231574.381    22231582.261
  24021651.276    18740646.19749  14606318.63145  24021650.857    24021664.364
  20988232.678    -8781032.56249  -6818618.60347  20988232.559    20988239.136
 03  6  9 22 26  0.0000000  0  7G25G31G23G18G11G15G14
  21501250.856   -21757684.94449 -16594858.41647  21501251.004    21501259.650
  24406068.603     1350018.97049   1068651.27645  24406068.590    24406085.068
  22478858.762     6404377.90149   5115971.64446  22478858.550    22478867.327
  24560863.123    20048448.63349  15617820.22344  24560863.009    24560873.266
  22219738.439   -19039128.98749 -14458902.10847  22219738.475    22219746.323
  24043677.161    18856392.04849  14696509.88045  24043676.728    24043690.407
  20998324.836    -8727998.11549  -6777293.10847  20998324.722    20998331.320
 03  6  9 22 26 30.0000000  0  7G25G31G23G18G11G15G14
  21488281.083   -21825841.20249 -16647967.12247  21488281.272    21488289.908
  24420708.912     1426953.57749   1128600.05045  24420708.925    24420725.390
  22487978.121     6452300.13049   5153313.56546  22487977.897    22487986.700
  24576175.056    20128913.17749  15680519.68345  24576174.989    24576185.247
  22207984.063   -19100898.58549 -14507034.25147  22207984.122    22207991.953
  24065726.336    18972260.18049  14786796.41345  24065726.014    24065739.728
  21008465.126    -8674710.89649  -6735770.63947  21008465.022    21008471.632
 03  6  9 22 27  0.0000000  0  7G25G31G23G18G11G15G14
  21475389.311   -21893587.75249 -16700756.58647  21475389.467    21475398.061
  24435369.778     1503995.85349   1188632.71945  24435369.715    24435386.407
  22497131.541     6500401.44149   5190795.04346  22497131.350    22497140.146
  24591508.767    20209491.38649  15743307.74645  24591508.593    24591518.732
  22196311.759   -19162236.93649 -14554830.35747  22196311.803    22196319.658
  24087798.388    19088248.39549  14877176.49945  24087798.084    24087811.857
  21018653.185    -8621172.41949  -6694052.39647  21018653.089    21018659.707
 03  6  9 22 27 30.0000000  0  6G25G31G23G11G15G14
  21462574.912   -21960927.59149 -16753229.12447  21462575.069    21462583.655
  24450049.641     1581137.89049   1248743.12345  24450049.513    24450066.257
  22506318.198     6548677.18249   5228412.42346  22506317.980    22506326.774
  22184720.911   -19223146.95449 -14602292.69347  22184720.978    22184728.849
  24109891.969    19204349.63749  14967644.64745  24109891.639    24109905.516
  21028887.810    -8567389.26249  -6652143.49547  21028887.724    21028894.359
 03  6  9 22 28  0.0000000  0  6G25G31G23G11G15G14
  21449839.339   -22027853.11949 -16805378.82747  21449839.505    21449848.091
  24464749.015     1658382.19149   1308933.19945  24464748.817    24464765.646
  22515539.087     6597133.25149   5266170.32046  22515538.887    22515547.673
  22173213.026   -19283620.92349 -14649415.25447  22173213.074    22173221.020
  24132007.572    19320566.86849  15058203.15945  24132007.179    24132021.254
  21039169.731    -8513357.71949  -6610041.03747  21039169.626    21039176.278
 03  6  9 22 28 30.0000000  0  6G25G31G23G11G15G14
  21437183.207   -22094361.30949 -16857203.33747  21437183.377    21437191.947
  24479467.471     1735726.75649   1369201.42245  24479467.266    24479484.098
  22524794.635     6645771.27549   5304070.00846  22524794.429    22524803.254
  22161788.698   -19343655.87849 -14696195.72647  22161788.773    22161796.737
  24154145.159    19436899.05249  15148851.25545  24154144.853    24154158.841
  21049498.712    -8459078.73949  -6567745.77847  21049498.605    21049505.258
 03  6  9 22 29  0.0000000  0  6G25G31G23G11G15G14
  21424606.656   -22160451.35549 -16908702.01547  21424606.833    21424615.388
  24494204.225     1813167.23449   1429544.37745  24494203.965    24494220.775
  22534084.612     6694590.15649   5342110.61646  22534084.398    22534093.262
  22150448.045   -19403251.40249 -14742633.78047  22150448.084    22150456.051
  24176303.974    19553342.50749  15239586.07545  24176303.583    24176317.645
  21059874.183    -8404555.56149  -6525260.22947  21059874.073    21059880.713
 03  6  9 22 29 30.0000000  0  6G25G31G23G11G15G14
  21412110.126   -22226121.12249 -16959873.20547  21412110.275    21412118.787
  24508958.635     1890700.79849   1489959.88045  24508958.341    24508975.256
  22543409.201     6743590.60849   5380292.71746  22543408.953    22543417.800
  22139191.464   -19462405.21149 -14788727.63747  22139191.497    22139199.418
  24198483.462    19669894.88549  15330405.75445  24198483.138    24198497.246
  21070295.855    -8349789.56649  -6482585.47047  21070295.738    21070302.356
 03  6  9 22 30  0.0000000  0  6G25G31G23G11G15G14
  21399693.877   -22291368.83149 -17010715.52447  21399694.010    21399702.492
  24523730.203     1968324.36749   1550445.50145  24523729.944    24523746.769
  22552768.381     6792773.07249   5418616.63846  22552768.123    22552776.964
  22128019.295   -19521115.31649 -14834475.75347  22128019.331    22128027.221
  24220683.177    19786553.67249  15421308.33245  24220682.899    24220696.966
  21080763.401    -8294782.52249  -6439722.87847  21080763.271    21080769.863
 03  6  9 22 30 30.0000000  0  6G25G31G23G11G15G14
  21387358.252   -22356192.82649 -17061227.67747  21387358.370    21387366.818
  24538518.318     2046034.39049   1610998.48645  24538517.987    24538534.672
  22562162.201     6842137.41349   5457082.28746  22562161.940    22562170.773
  22116931.810   -19579380.52249 -14879877.19447  22116931.836    22116939.695
  24242902.672    19903316.03349  15512291.61445  24242902.387    24242916.468
  21091276.329    -8239537.02549  -6396674.48147  21091276.183    21091282.755
 03  6  9 22 31  0.0000000  0  6G25G31G23G11G15G14
  21375103.669   -22420590.72249 -17111407.80447  21375103.794    21375112.232
  24553322.263     2123828.36249   1671616.88845  24553321.919    24553338.588
  22571590.712     6891684.48449   5495690.32046  22571590.443    22571599.318
  22105929.487   -19637198.33149 -14924930.01347  22105929.484    22105937.304
  24265141.470    20020179.98949  15603354.06145  24265141.152    24265155.396
  21101834.348    -8184054.34749  -6353441.26847  21101834.194    21101840.766
 03  6  9 22 31 30.0000000  0  6G25G31G23G11G15G14
  21362930.567   -22484560.64949 -17161254.44947  21362930.681    21362939.114
  24568141.450     2201703.27149   1732298.35645  24568141.130    24568157.972
  22581054.124     6941414.74949   5534441.10646  22581053.852    22581062.706
  22095012.610   -19694567.08549 -14969632.92247  22095012.601    22095020.330
  24287399.056    20137143.39249  15694493.98245  24287398.733    24287413.089
  21112437.175    -8128336.40649  -6310024.73147  21112437.024    21112443.566
 03  6  9 22 32  0.0000000  0  6G25G31G23G11G15G14
  21350839.177   -22548101.15949 -17210766.49047  21350839.282    21350847.699
  24582975.551     2279656.37049   1793040.76045  24582975.310    24582992.196
  22590552.572     6991328.83849   5573335.12246  22590552.286    22590561.102
  22084181.589   -19751484.56449 -15013984.19547  22084181.559    22084189.270
  24309675.208    20254203.87249  15785709.54145  24309674.902    24309689.308
  21123084.499    -8072384.66349  -6266426.01347  21123084.333    21123090.881
 03  6  9 22 32 30.0000000  0  6G25G31G23G11G15G14
  21338829.760   -22611210.75849 -17259942.75347  21338829.866    21338838.260
  24597823.837     2357683.73349   1853841.01145  24597823.611    24597840.644
  22600085.916     7041426.27249   5612372.00946  22600085.636    22600094.365
  22073436.677   -19807949.39449 -15057982.74647  22073436.688    22073444.404
  24331969.229    20371358.07949  15876998.14645  24331968.758    24331983.349
  21133775.749    -8016201.81049  -6222647.21247  21133775.552    21133782.159
 03  6  9 22 33  0.0000000  0  6G25G31G23G11G15G14
  21326902.862   -22673886.91649 -17308781.27847  21326902.972    21326911.336
  24612685.743     2435782.86849   1914697.18645  24612685.522    24612702.732
  22609654.246     7091707.80349   5651552.34546  22609653.932    22609662.706
  22062778.355   -19863959.28649 -15101626.80847  22062778.346    22062786.077
  24354280.705    20488604.29349  15968358.44845  24354280.322    24354294.881
  21144510.777    -7959788.90149  -6178689.15147  21144510.600    21144517.236
 03  6  9 22 33 30.0000000  0  6G25G31G23G11G15G14
  21315058.839   -22736127.67449 -17357280.52747  21315058.922    21315067.264
  24627560.790     2513951.13849   1975607.23345  24627560.615    24627577.913
  22619257.703     7142174.15549   5690876.69246  22619257.414    22619266.246
  22052206.980   -19919512.24149 -15144914.81147  22052206.975    22052214.743
  24376609.306    20605940.31349  16059788.72245  24376609.004    24376623.464
  21155289.264    -7903147.68849  -6134553.17947  21155289.098    21155295.773
 03  6  9 22 34  0.0000000  0  6G25G31G23G11G15G14
  21303297.862   -22797931.62549 -17405439.40947  21303297.974    21303306.314
  24642448.423     2592185.12849   2036568.49245  24642448.138    24642465.607
  22628896.392     7192825.48649   5730345.18246  22628896.061    22628904.943
  22041722.784   -19974606.75549 -15187845.59747  22041722.813    22041730.616
  24398954.525    20723363.59649  16151287.01345  24398954.045    24398968.752
  21166110.778    -7846280.28149  -6090240.95847  21166110.626    21166117.319
 03  6  9 22 34 30.0000000  0  6G25G31G23G11G15G14
  21291620.465   -22859296.45849 -17453256.11847  21291620.578    21291628.925
  24657347.879     2670482.18349   2097578.88745  24657347.703    24657365.497
  22638570.376     7243662.41549   5769958.29146  22638570.054    22638578.973
  22031326.284   -20029240.68949 -15230417.48647  22031326.300    22031334.110
  24421315.917    20840871.97749  16242851.58645  24421315.375    24421330.067
  21176975.070    -7789188.24749  -6045753.70047  21176974.925    21176981.611
 03  6  9 22 35  0.0000000  0  6G25G31G23G11G15G14
  21280026.993   -22920220.48549 -17500729.34747  21280027.114    21280035.440
  24672259.137     2748839.25749   2158636.05945  24672258.979    24672276.636
  22648279.741     7294685.23349   5809716.24746  22648279.442    22648288.390
  22021017.747   -20083412.48149 -15272629.26447  22021017.737    22021025.527
  24443692.953    20958462.96349  16334480.50945  24443692.492    24443707.491
  21187881.807    -7731873.29249  -6001092.74247  21187881.655    21187888.341
 03  6  9 22 35 30.0000000  0  6G25G31G23G11G15G14
  21268517.560   -22980702.88349 -17547858.44947  21268517.652    21268525.955
  24687180.993     2827252.32049   2219736.86445  24687180.750    24687198.407
  22658024.409     7345893.50249   5849618.71046  22658024.146    22658033.067
  22010797.333   -20137121.12949 -15314480.15847  22010797.302    22010805.064
  24466085.084    21076133.19349  16426171.17745  24466084.851    24466099.800
  21198830.429    -7674338.25749  -5956260.29247  21198830.255    21198836.948
 03  6  9 22 36  0.0000000  0  6G25G31G23G11G15G14
  21257092.790   -23040740.22749 -17594640.76147  21257092.881    21257101.150
  24702113.034     2905720.03549   2280880.25145  24702112.913    24702130.596
  22667804.719     7397289.16649   5889667.20446  22667804.446    22667813.356
  22000665.740   -20190363.11849 -15355967.42247  22000665.726    22000673.408
  24488492.234    21193881.90349  16517922.98945  24488491.749    24488506.902
  21209820.910    -7616583.12149  -5911256.34547  21209820.737    21209827.423
 03  6  9 22 36 30.0000000  0  6G25G31G23G11G15G14
  21245752.987   -23100331.38849 -17641075.39547  21245753.061    21245761.277
  24717055.051     2984239.14249   2342063.68945  24717054.759    24717072.463
  22677620.690     7448872.10849   5929861.62646  22677620.390    22677629.401
  21990623.151   -20243137.14549 -15397090.03447  21990623.148    21990630.796
  24510913.888    21311706.62649  16609734.05245  24510913.447    24510928.796
  21220852.849    -7558610.12749  -5866082.63047  21220852.679    21220859.365
 03  6  9 22 37  0.0000000  0  6G25G31G23G11G15G14
  21234498.289   -23159475.01049 -17687161.29747  21234498.373    21234506.544
  24732006.223     3062806.41749   2403284.64845  24732005.908    24732023.663
  22687472.313     7500642.49149   5970202.09846  22687472.069    22687481.026
  21980669.948   -20295441.78549 -15437846.89547  21980669.939    21980677.534
  24533349.454    21429604.47749  16701602.09845  24533349.025    24533364.561
  21231925.876    -7500421.32949  -5820740.75847  21231925.694    21231932.351
 03  6  9 22 37 30.0000000  0  6G25G31G23G11G15G14
  21223329.219   -23218168.88449 -17732896.74747  21223329.295    21223337.401
  24746965.987     3141418.80849   2464540.76745  24746965.662    24746983.212
  22697359.790     7552600.77749   6010688.99946  22697359.485    22697368.426
  21970806.366   -20347275.25649 -15478236.61747  21970806.347    21970813.959
  24555798.505    21547573.08349  16793525.27945  24555798.053    24555813.590
  21243039.628    -7442018.47149  -5775232.08747  21243039.440    21243046.048
 03  6  9 22 38  0.0000000  0  6G25G31G23G11G15G14
  21212246.031   -23276411.32249 -17778280.42447  21212246.108    21212254.214
  24761933.777     3220073.54149   2525829.88545  24761933.330    24761951.139
  22707283.046     7604747.44749   6051322.69146  22707282.755    22707291.701
  21961032.839   -20398635.46149 -15518257.54347  21961032.813    21961040.424
  24578260.500    21665610.05649  16885501.68845  24578260.143    24578275.678
  21254193.846    -7383403.14149  -5729557.84647  21254193.618    21254200.211
 03  6  9 22 38 30.0000000  0  6G25G31G23G11G15G14
  21201249.075   -23334200.59349 -17823310.99147  21201249.161    21201257.259
  24776908.915     3298767.87249   2587149.86945  24776908.622    24776926.316
  22717242.250     7657083.07849   6092103.62846  22717241.991    22717250.952
  21951349.717   -20449520.72949 -15557908.39847  21951349.697    21951357.284
  24600735.178    21783713.32149  16977529.81345  24600734.745    24600750.371
  21265388.146    -7324576.60049  -5683719.02747  21265387.948    21265394.569
 03  6  9 22 39  0.0000000  0  6G25G31G23G11G15G14
  21190338.683   -23391534.99249 -17867987.11147  21190338.764    21190346.859
  24791891.209     3377499.06849   2648498.57145  24791890.981    24791908.624
  22727237.486     7709608.24449   6133032.25146  22727237.221    22727246.240
  21941757.342   -20499928.92549 -15597187.50447  21941757.328    21941764.913
  24623222.034    21901880.72549  17069607.88745  24623221.588    24623237.391
  21276622.340    -7265540.65849  -5637717.04047  21276622.151    21276628.779
 03  6  9 22 39 30.0000000  0  6G25G31G23G11G15G14
  21179515.129   -23448413.06449 -17912307.65447  21179515.217    21179523.289
  24806879.891     3456263.63449   2709873.26645  24806879.694    24806897.320
  22737268.854     7762322.79349   6174108.44446  22737268.587    22737277.575
  21932255.963   -20549859.16649 -15636094.18647  21932255.955    21932263.479
  24645720.517    22020109.52649  17161733.79545  24645720.002    24645735.940
  21287896.007    -7206297.55349  -5591553.62847  21287895.796    21287902.409
 03  6  9 22 40  0.0000000  0  6G25G31G23G11G15G14
  21168778.804   -23504832.69749 -17956270.97147  21168778.879    21168786.979
  24821874.352     3535058.95349   2771271.92245  24821874.083    24821891.780
  22747336.371     7815227.38049   6215332.72246  22747336.067    22747345.093
  21922845.947   -20599309.06549 -15674626.57347  21922845.920    21922853.464
  24668230.272    22138397.38149  17253905.70845  24668229.809    24668245.821
  21299208.788    -7146848.67949  -5545229.88047  21299208.565    21299215.199
 03  6  9 22 40 30.0000000  0  5G25G31G23G11G14
  21158130.575   -23560789.25849 -17999873.45047  21158130.661    21158138.790
  24836874.687     3613885.38449   2832694.82145  24836874.420    24836892.285
  22757440.720     7868325.73449   6256707.98246  22757440.382    22757449.486
  21913528.206   -20648273.92749 -15712781.01147  21913528.210    21913535.785
  21310561.001    -7087192.36049  -5498744.48747  21310560.806    21310567.512
 03  6  9 22 41  0.0000000  0  5G25G31G23G11G14
  21147570.044   -23616285.03849 -18043116.88447  21147570.142    21147578.269
  24851879.640     3692735.97949   2894136.53745  24851879.481    24851897.403
  22767581.197     7921614.04849   6298231.26946  22767580.891    22767590.029
  21904302.314   -20696756.05549 -15750559.28647  21904302.327    21904309.951
  21321951.551    -7027334.51349  -5452102.05847  21321951.380    21321958.147
 03  6  9 22 41 30.0000000  0  4G25G23G11G14
  21137100.708   -23671301.37049 -18085986.71847  21137100.840    21137108.985
  22777761.082     7975109.64949   6339916.07746  22777760.784    22777770.001
  21895171.836   -20744736.86149 -15787946.92447  21895171.858    21895179.538
  21333383.392    -6967259.97249  -5405290.77047  21333383.216    21333390.016
 03  6  9 22 42  0.0000000  0  4G25G23G11G14
  21126722.293   -23725839.92849 -18128484.26047  21126722.435    21126730.630
  22787979.941     8028810.04249   6381760.46946  22787979.650    22787988.953
  21886136.408   -20792218.05049 -15824945.25747  21886136.433    21886144.207
  21344855.624    -6906973.02049  -5358313.96347  21344855.464    21344862.295
 03  6  9 22 42 30.0000000  0  4G25G23G11G14
  21116430.082   -23779925.80649 -18170629.06747  21116430.220    21116438.433
  22798232.806     8082689.04649   6423744.03346  22798232.502    22798241.881
  21877191.362   -20839224.27949 -15861573.48647  21877191.425    21877199.226
  21356362.865    -6846502.06649  -5311193.78047  21356362.718    21356369.606
 03  6  9 22 43  0.0000000  0  4G25G23G11G14
  21106225.435   -23833551.41349 -18212415.21947  21106225.574    21106233.808
  22808520.799     8136752.85749   6465871.59946  22808520.519    22808529.924
  21868338.217   -20885747.76349 -15897825.55147  21868338.284    21868346.109
  21367905.963    -6785842.89049  -5263926.92947  21367905.816    21367912.748
 03  6  9 22 43 30.0000000  0  4G25G23G11G14
  21096109.366   -23886711.48649 -18253838.62147  21096109.517    21096117.779
  22818844.710     8191005.36249   6508146.19946  22818844.473    22818853.981
  21859577.933   -20931783.49749 -15933697.55247  21859577.979    21859585.878
  21379485.217    -6724993.72449  -5216512.03547  21379485.090    21379492.007
 03  6  9 22 44  0.0000000  0  4G25G23G11G14
  21086082.413   -23939403.05249 -18294896.95447  21086082.579    21086090.867
  22829204.909     8245448.38349   6550569.26446  22829204.670    22829214.187
  21850910.982   -20977328.41949 -15969187.10747  21850911.069    21850918.995
  21391100.615    -6663954.67649  -5168949.17447  21391100.469    21391107.399
 03  6  9 22 44 30.0000000  0  4G25G23G11G14
  21076145.100   -23991623.85449 -18335588.45547  21076145.248    21076153.529
  22839601.683     8300083.48649   6593141.99146  22839601.433    22839610.977
  21842337.976   -21022380.00349 -16004292.24047  21842338.054    21842345.968
  21402752.031    -6602726.31549  -5121238.80147  21402751.893    21402758.802
 03  6  9 22 45  0.0000000  0  4G25G23G11G14
  21066297.784   -24043371.53349 -18375911.29048  21066297.935    21066306.219
  22850035.180     8354911.39849   6635864.97846  22850034.940    22850044.507
  21833859.237   -21066936.23249 -16039011.38247  21833859.274    21833867.179
  21414439.221    -6541309.66649  -5073381.71247  21414439.072    21414446.016
 03  6  9 22 45 30.0000000  0  4G25G23G11G14
  21056540.922   -24094644.25649 -18415864.02948  21056541.070    21056549.309
  22860505.502     8409932.94549   6678738.84246  22860505.281    22860514.808
  21825475.153   -21110994.94049 -16073342.84947  21825475.208    21825483.100
  21426162.073    -6479705.82749  -5025378.75047  21426161.927    21426168.887
 03  6  9 22 46  0.0000000  0  4G25G23G11G14
  21046874.790   -24145440.13249 -18455445.19448  21046874.922    21046883.127
  22871012.889     8465148.85449   6721764.16646  22871012.637    22871022.118
  21817186.107   -21154554.34149 -16107285.24947  21817186.146    21817194.044
  21437920.288    -6417916.25249  -4977231.07347  21437920.127    21437927.059
 03  6  9 22 46 30.0000000  0  4G25G23G11G14
  21037299.683   -24195757.63849 -18494653.60748  21037299.820    21037307.965
  22881557.270     8520559.54649   6764941.26446  22881556.988    22881566.479
  21808992.410   -21197612.64649 -16140837.18547  21808992.409    21809000.277
  21449713.607    -6355942.23149  -4928939.66647  21449713.432    21449720.348
 03  6  9 22 47  0.0000000  0  4G25G23G11G14
  21027816.014   -24245594.77449 -18533487.70348  21027816.126    21027824.215
  22892138.803     8576165.82249   6808270.76746  22892138.552    22892148.021
  21800894.382   -21240167.98549 -16173997.19947  21800894.405    21800902.231
  21461541.744    -6293785.08749  -4880505.57147  21461541.574    21461548.449
 03  6  9 22 47 30.0000000  0  4G25G23G11G14
  21018423.988   -24294950.17949 -18571946.42748  21018424.108    21018432.121
  22902757.660     8631968.36849   6851753.20446  22902757.400    22902766.907
  21792892.487   -21282218.56249 -16206763.89247  21792892.484    21792900.262
  21473404.498    -6231446.01549  -4831929.71047  21473404.321    21473411.190
 03  6  9 22 48  0.0000000  0  4G25G23G11G14
  21009123.778   -24343823.16549 -18610029.24048  21009123.856    21009131.869
  22913413.872     8687966.78449   6895388.27946  22913413.604    22913423.129
  21784986.691   -21323763.77349 -16239136.79547  21784986.687    21784994.433
  21485301.410    -6168927.51649  -4783214.03047  21485301.245    21485308.113
